Date StartTime U_cm/s V_cm/s W_cm/s Ustd_cm/s Vstd_cm/s Wstd_cm/s Uvar_(cm/s)^2 Vvar_(cm/s)^2 Wvar_(cm/s)^2 KE_(m/s)^2 TurbulentKE_(m/s)^2 HorizWindSpeed_cm/s FrictionSpeec_cm/s DragCoef SpeedOfSound_m/s SonicTemperature_C Pressure_mb 
07/05/2013  00:00:00      -64.474      -14.168       -9.907       11.431       10.361       13.539      130.660      107.357      183.313        0.244        0.021       66.012        5.679        0.007      346.573       24.917      857.649
07/05/2013  00:01:00      -46.789      -17.919       -6.818        8.958        8.570        8.228       80.251       73.438       67.693        0.139        0.011       50.103        4.519        0.008      346.667       25.080      857.641
07/05/2013  00:02:00      -42.078       -8.321       -6.999        7.991       10.286        5.720       63.859      105.799       32.721        0.105        0.010       42.893        2.513        0.003      346.896       25.474      857.631
07/05/2013  00:03:00      -43.270      -17.166       -7.042        8.920       10.635        6.922       79.564      113.100       47.918        0.123        0.012       46.551        2.709        0.003      346.900       25.482      857.641
07/05/2013  00:04:00      -85.249      -26.355      -15.535       15.636       10.956        8.499      244.475      120.029       72.240        0.432        0.022       89.230        3.339        0.001      346.682       25.103      857.639
07/05/2013  00:05:00      -94.690      -26.538       -9.219       20.368       15.554       15.459      414.869      241.924      238.972        0.533        0.045       98.339       12.793        0.017      346.546       24.870      857.634
07/05/2013  00:06:00     -100.660       15.936       -7.928       44.658       38.637       19.104     1994.301     1492.841      364.974        0.715        0.193      101.914       11.700        0.013      346.398       24.617      857.639
07/05/2013  00:07:00     -145.522       34.286       -9.068       20.326       19.603       11.919      413.164      384.283      142.053        1.169        0.047      149.507        6.460        0.002      346.617       24.994      857.637
07/05/2013  00:08:00      -73.231        7.236       -1.800       28.817       22.949       19.050      830.396      526.669      362.897        0.357        0.086       73.588       17.244        0.055      346.415       24.646      857.625
07/05/2013  00:09:00      -70.207        6.549       -6.064       25.399       19.959       14.636      645.119      398.351      214.201        0.313        0.063       70.512        9.351        0.018      346.356       24.543      857.626
07/05/2013  00:10:00     -123.994       36.972      -10.874       53.148       32.699       19.685     2824.696     1069.256      387.488        1.057        0.214      129.388       17.349        0.018      346.306       24.458      857.624
07/05/2013  00:11:00     -120.481        4.545       -5.151       31.248       32.143       18.252      976.438     1033.183      333.125        0.845        0.117      120.567       12.870        0.011      346.297       24.442      857.629
07/05/2013  00:12:00     -108.742      -37.711      -10.459       30.951       34.584       16.392      957.961     1196.031      268.689        0.789        0.121      115.095       11.433        0.010      346.378       24.584      857.621
07/05/2013  00:13:00     -128.845      -51.170      -12.106       31.786       21.937       18.024     1010.354      481.219      324.864        1.059        0.091      138.634        9.599        0.005      346.322       24.487      857.610
07/05/2013  00:14:00     -101.692      -51.825       -2.962       45.801       23.711       22.662     2097.731      562.191      513.563        0.810        0.159      114.136       17.142        0.023      346.314       24.472      857.594
07/05/2013  00:15:00     -118.412      -40.836       -9.068       24.780       14.471        9.642      614.068      209.409       92.967        0.834        0.046      125.255       11.011        0.008      346.434       24.677      857.595
07/05/2013  00:16:00     -130.324      -19.879      -13.860       20.658       15.647       13.309      426.754      244.833      177.116        0.921        0.042      131.832        7.505        0.003      346.473       24.748      857.588
07/05/2013  00:17:00     -133.725      -35.079       -4.801       36.880       27.713       18.141     1360.144      767.984      329.100        1.080        0.123      138.249       17.823        0.017      346.440       24.689      857.573
07/05/2013  00:18:00     -161.651        1.109      -11.826       51.087       32.753       22.578     2609.853     1072.781      509.761        1.523        0.210      161.654       22.748        0.020      346.348       24.530      857.562
07/05/2013  00:19:00     -145.950       12.786      -11.463       37.995       26.184       16.771     1443.626      685.587      281.250        1.200        0.121      146.509       15.921        0.012      346.325       24.491      857.556
07/05/2013  00:20:00     -155.830       29.064      -12.871       40.788       28.895       21.295     1663.688      834.903      453.488        1.412        0.148      158.517       18.666        0.014      346.338       24.513      857.549
07/05/2013  00:21:00     -105.732       10.542       -8.859       32.200       27.937       20.998     1036.843      780.496      440.899        0.681        0.113      106.257        8.834        0.007      346.305       24.458      857.530
07/05/2013  00:22:00      -32.730      -15.523        2.684       37.007       21.226       19.988     1369.530      450.533      399.523        0.177        0.111       36.225       22.910        0.400      346.267       24.392      857.529
07/05/2013  00:23:00      -27.421      -20.147      -12.080       17.951       19.444       10.669      322.228      378.064      113.831        0.106        0.041       34.027       10.911        0.103      346.507       24.804      857.523
07/05/2013  00:24:00      -35.396      -18.561       -5.084       14.224       11.395       10.925      202.331      129.840      119.364        0.104        0.023       39.968        3.268        0.007      346.841       25.379      857.509
07/05/2013  00:25:00      -50.063      -25.632       -0.568       34.098       18.809       16.637     1162.662      353.774      276.791        0.248        0.090       56.244       16.423        0.085      346.442       24.693      857.520
07/05/2013  00:26:00      -51.167      -37.562        2.484       41.033       25.146       17.152     1683.703      632.299      294.178        0.332        0.131       63.474       16.811        0.070      346.299       24.445      857.517
07/05/2013  00:27:00      -68.528      -44.865       -2.586       17.270       23.041       15.258      298.269      530.883      232.792        0.389        0.053       81.908        6.838        0.007      346.400       24.619      857.512
07/05/2013  00:28:00      -65.205       -3.193      -10.481        5.647        4.844        4.638       31.887       23.463       21.514        0.222        0.004       65.283        1.738        0.001      346.583       24.934      857.522
07/05/2013  00:29:00      -55.119       -5.515       -9.804        8.361        6.814        6.396       69.906       46.430       40.903        0.166        0.008       55.394        5.009        0.008      346.668       25.078      857.512
07/05/2013  00:30:00      -55.348      -14.860      -12.634        6.431        7.340        6.240       41.352       53.871       38.935        0.179        0.007       57.308        3.508        0.004      346.612       24.988      857.509
07/05/2013  00:31:00      -69.480      -19.527      -15.024        8.226        8.396        6.775       67.660       70.499       45.900        0.281        0.009       72.172        2.539        0.001      346.526       24.836      857.518
07/05/2013  00:32:00      -73.934      -15.781      -10.550       13.931        8.561        7.986      194.063       73.296       63.772        0.308        0.017       75.599        3.142        0.002      346.437       24.682      857.496
07/05/2013  00:33:00      -58.137      -16.909      -11.692       15.697       11.067        8.287      246.406      122.469       68.671        0.212        0.022       60.546        8.533        0.020      346.450       24.705      857.490
07/05/2013  00:34:00      -10.614      -36.492        0.392       17.283       14.446       15.467      298.702      208.685      239.218        0.110        0.037       38.004       10.552        0.077      346.519       24.825      857.486
07/05/2013  00:35:00      -14.089      -28.487       -1.538       18.494       21.985       18.776      342.041      483.343      352.523        0.109        0.059       31.780        9.833        0.096      346.524       24.834      857.475
07/05/2013  00:36:00        4.585      -26.968       14.374       24.316       14.260       11.719      591.256      203.347      137.335        0.094        0.047       27.355        7.688        0.079      346.402       24.624      857.475
07/05/2013  00:37:00      -21.008      -32.762      -10.897        8.752       11.252        9.471       76.599      126.606       89.696        0.096        0.015       38.919        6.447        0.027      346.464       24.730      857.488
07/05/2013  00:38:00      -41.849      -26.010      -10.615       13.885        4.606        5.326      192.792       21.215       28.367        0.139        0.012       49.273        4.631        0.009      346.651       25.049      857.476
07/05/2013  00:39:00      -57.960      -34.129      -12.989        6.218        7.944        4.396       38.662       63.102       19.324        0.241        0.006       67.262        1.683        0.001      346.929       25.528      857.461
07/05/2013  00:40:00      -51.537      -20.924       -8.619       13.837       12.408        8.693      191.475      153.969       75.568        0.179        0.021       55.622        6.772        0.015      347.045       25.732      857.447
07/05/2013  00:41:00      -36.985      -24.677       -2.730       26.874        9.772        8.372      722.194       95.489       70.088        0.144        0.044       44.462        3.947        0.008      346.823       25.348      857.443
07/05/2013  00:42:00      -11.222      -13.513        5.110       10.005       11.635        6.350      100.109      135.382       40.328        0.031        0.014       17.565        6.133        0.122      346.777       25.270      857.432
07/05/2013  00:43:00       -0.111        8.932       10.535       10.984       11.838        7.237      120.656      140.147       52.376        0.025        0.016        8.933        7.148        0.640      346.455       24.713      857.420
07/05/2013  00:44:00      -14.601       20.902       -9.729       17.085       19.708        7.071      291.906      388.408       49.993        0.074        0.037       25.496        8.783        0.119      346.491       24.776      857.411
07/05/2013  00:45:00      -52.608      -12.533      -10.683        6.493       11.219        6.773       42.163      125.863       45.869        0.163        0.011       54.080        5.039        0.009      346.486       24.767      857.409
07/05/2013  00:46:00      -12.922      -30.620       -4.324       29.523       18.924       10.394      871.588      358.108      108.037        0.123        0.067       33.235       10.587        0.101      346.332       24.505      857.405
07/05/2013  00:47:00      -54.580      -24.504       -7.304       31.638       17.468       13.600     1000.980      305.138      184.954        0.256        0.075       59.829       15.500        0.067      346.202       24.280      857.399
07/05/2013  00:48:00      -71.171       -5.788      -11.134       31.021       17.364       13.731      962.275      301.505      188.541        0.334        0.073       71.406       11.662        0.027      346.202       24.280      857.387
07/05/2013  00:49:00      -86.749       -1.526      -11.929       12.160        8.768        7.355      147.876       76.870       54.091        0.397        0.014       86.762        4.182        0.002      346.227       24.322      857.373
07/05/2013  00:50:00      -38.636      -18.857      -15.129       22.381       12.125        8.022      500.893      147.017       64.348        0.139        0.036       42.992        3.564        0.007      346.462       24.727      857.370
07/05/2013  00:51:00       27.315      -31.738       -6.871       10.410       11.135        7.386      108.367      123.995       54.558        0.104        0.014       41.874        6.764        0.026      346.920       25.515      857.352
07/05/2013  00:52:00       11.673      -18.152       -1.364       11.459        9.201        5.880      131.312       84.654       34.570        0.036        0.013       21.582        2.786        0.017      346.678       25.097      857.333
07/05/2013  00:53:00       -3.322      -46.922       16.850       13.521       19.321       17.399      182.816      373.286      302.718        0.168        0.043       47.039       10.118        0.046      346.790       25.290      857.313
07/05/2013  00:54:00      -46.628      -26.148       -6.278       26.043       20.911       13.058      678.235      437.289      170.519        0.209        0.064       53.459       16.954        0.101      346.529       24.842      857.309
07/05/2013  00:55:00      -91.871      -31.040       -8.855       23.691       26.143       16.472      561.244      683.438      271.317        0.550        0.076       96.973       12.993        0.018      345.970       23.882      857.316
07/05/2013  00:56:00      -80.751      -66.401       -2.231       46.522       36.312       26.378     2164.315     1318.540      695.783        0.756        0.209      104.546       17.924        0.029      345.877       23.722      857.312
07/05/2013  00:57:00      -87.271      -56.057        1.919       40.839       26.469       20.617     1667.791      700.593      425.057        0.678        0.140      103.723       17.341        0.028      345.946       23.841      857.308
07/05/2013  00:58:00      -94.504      -36.445       -1.364       30.673       15.238       11.563      940.816      232.187      133.701        0.578        0.065      101.288        7.192        0.005      346.167       24.220      857.302
07/05/2013  00:59:00      -62.559      -35.839       -1.915       21.957       18.406       10.525      482.120      338.767      110.780        0.307        0.047       72.097       10.153        0.020      346.185       24.251      857.301
07/05/2013  01:00:00      -66.794      -42.650        7.198       33.181       25.239       18.881     1100.956      636.983      356.479        0.421        0.105       79.249       16.539        0.044      346.109       24.121      857.297
07/05/2013  01:01:00      -73.727      -88.128       -3.020       27.718       30.597       15.534      768.305      936.181      241.312        0.758        0.097      114.901       14.200        0.015      346.345       24.525      857.289
07/05/2013  01:02:00      -74.689      -83.201        1.040       34.038       40.285       20.705     1158.571     1622.845      428.687        0.786        0.161      111.807       16.454        0.022      346.382       24.591      857.281
07/05/2013  01:03:00      -51.170      -61.042        5.922       28.502       24.438       15.957      812.345      597.201      254.624        0.402        0.083       79.652       13.570        0.029      346.437       24.684      857.270
07/05/2013  01:04:00      -57.243      -45.990       10.418       53.457       40.582       31.487     2857.704     1646.936      991.415        0.550        0.275       73.429       28.883        0.155      346.358       24.548      857.269
07/05/2013  01:05:00     -137.126      -70.070       -0.316       50.025       37.988       26.526     2502.489     1443.105      703.655        1.418        0.232      153.992       20.378        0.018      346.339       24.515      857.260
07/05/2013  01:06:00     -122.798      -96.365       -2.457       33.317       29.385       21.661     1110.025      863.476      469.182        1.341        0.122      156.095       19.912        0.016      346.374       24.575      857.262
07/05/2013  01:07:00      -65.315      -45.004       -2.089       47.020       25.480       15.611     2210.927      649.209      243.702        0.470        0.155       79.318       19.601        0.061      346.313       24.470      857.251
07/05/2013  01:08:00      -31.123      -45.857        7.903       30.830       20.096       17.837      950.467      403.844      318.165        0.240        0.084       55.422       11.747        0.045      346.336       24.510      857.238
07/05/2013  01:09:00      -52.642      -38.665        4.532       40.974       28.088       19.488     1678.846      788.928      379.798        0.357        0.142       65.316       23.643        0.131      346.221       24.313      857.231
07/05/2013  01:10:00      -53.386      -50.815        2.927       38.387       20.121       18.606     1473.573      404.857      346.174        0.383        0.111       73.704        7.496        0.010      346.195       24.268      857.222
07/05/2013  01:11:00      -64.117      -54.565        7.400       33.184       25.433       18.874     1101.152      646.845      356.234        0.462        0.105       84.192       14.570        0.030      346.260       24.379      857.211
07/05/2013  01:12:00      -42.958      -44.050        3.496       43.812       27.699       26.612     1919.512      767.242      708.191        0.360        0.170       61.529       20.376        0.110      346.234       24.335      857.197
07/05/2013  01:13:00      -83.643      -87.591        4.330       62.355       57.503       30.929     3888.163     3306.563      956.626        1.142        0.408      121.113       35.379        0.085      346.210       24.292      857.197
07/05/2013  01:14:00     -101.031      -87.629        4.734       62.133       41.346       37.267     3860.481     1709.525     1388.840        1.243        0.348      133.739       35.218        0.069      346.157       24.203      857.197
07/05/2013  01:15:00      -78.138      -71.212        0.213       41.679       37.083       22.671     1737.114     1375.113      513.960        0.740        0.181      105.720       15.706        0.022      346.136       24.166      857.190
07/05/2013  01:16:00      -86.947      -57.007        1.122       46.162       30.729       26.409     2130.966      944.257      697.449        0.729        0.189      103.969       22.753        0.048      346.114       24.128      857.178
07/05/2013  01:17:00      -97.827      -62.248        0.247       42.499       35.058       22.599     1806.143     1229.097      510.700        0.849        0.177      115.953       20.975        0.033      346.056       24.028      857.172
07/05/2013  01:18:00      -57.780      -76.018        1.853       47.615       50.633       24.701     2267.150     2563.715      610.136        0.728        0.272       95.484       23.561        0.061      346.009       23.949      857.168
07/05/2013  01:19:00      -53.455      -59.323        2.025       40.190       30.022       25.096     1615.261      901.318      629.820        0.476        0.157       79.854       26.120        0.107      345.967       23.875      857.160
07/05/2013  01:20:00      -72.069      -41.331        6.075       41.266       33.559       20.220     1702.897     1126.198      408.847        0.509        0.162       83.080       20.160        0.059      345.992       23.921      857.143
07/05/2013  01:21:00      -43.681      -60.061       12.730       50.364       42.743       27.225     2536.569     1826.972      741.178        0.539        0.255       74.266       25.375        0.117      345.981       23.899      857.138
07/05/2013  01:22:00      -82.636      -43.002        1.174       35.673       30.133       19.537     1272.560      908.014      381.710        0.562        0.128       93.155       18.298        0.039      345.941       23.831      857.139
07/05/2013  01:23:00      -64.793      -50.564        4.704       37.796       22.652       18.537     1428.563      513.123      343.628        0.453        0.114       82.188       19.019        0.054      345.890       23.744      857.123
07/05/2013  01:24:00      -91.640      -23.887        1.026       33.499       33.816       20.092     1122.152     1143.510      403.675        0.582        0.133       94.703       14.117        0.022      345.730       23.469      857.111
07/05/2013  01:25:00     -115.359      -44.012        5.564       34.813       28.251       19.739     1211.977      798.112      389.618        0.884        0.120      123.470       18.688        0.023      345.620       23.280      857.107
07/05/2013  01:26:00     -104.634       -8.700        2.700       47.553       43.504       24.285     2261.311     1892.611      589.760        0.789        0.237      104.995       21.518        0.042      345.563       23.182      857.101
07/05/2013  01:27:00     -152.737      -54.777       -1.640       40.210       33.731       21.475     1616.812     1137.752      461.160        1.477        0.161      162.262       18.405        0.013      345.567       23.190      857.082
07/05/2013  01:28:00     -127.867      -55.439       -3.327       39.632       32.723       19.376     1570.693     1070.802      375.417        1.123        0.151      139.368       19.800        0.020      345.619       23.278      857.065
07/05/2013  01:29:00     -109.727      -52.700       -2.576       30.195       34.800       19.014      911.741     1211.064      361.535        0.865        0.124      121.726       14.830        0.015      345.611       23.265      857.062
07/05/2013  01:30:00      -90.527      -15.884       -1.800       48.722       31.877       22.271     2373.795     1016.138      495.998        0.617        0.194       91.910       22.120        0.058      345.600       23.245      857.046
07/05/2013  01:31:00      -73.485      -33.399        4.172       37.848       27.743       17.913     1432.499      769.649      320.885        0.453        0.126       80.719       16.120        0.040      345.512       23.094      857.030
07/05/2013  01:32:00      -65.969      -55.306       -0.128       49.286       28.982       24.571     2429.106      839.941      603.733        0.564        0.194       86.086       24.013        0.078      345.623       23.284      857.031
07/05/2013  01:33:00      -17.620      -39.155        0.534       57.360       31.026       23.132     3290.146      962.593      535.097        0.331        0.239       42.937       21.059        0.241      345.713       23.442      857.023
07/05/2013  01:34:00       -2.320      -53.606        0.957       33.458       26.324       28.716     1119.447      692.942      824.611        0.276        0.132       53.656       26.827        0.250      345.667       23.363      857.016
07/05/2013  01:35:00      -44.677      -90.834       -2.386       45.850       30.507       21.861     2102.228      930.689      477.925        0.688        0.176      101.227       17.899        0.031      345.686       23.394      857.015
07/05/2013  01:36:00      -65.865     -102.417       -6.920       23.783       18.752       16.667      565.653      351.626      277.785        0.804        0.060      121.768       12.373        0.010      345.678       23.380      857.020
07/05/2013  01:37:00      -36.888      -66.595        3.155       23.573       23.390       21.682      555.679      547.081      470.106        0.369        0.079       76.129       15.574        0.042      345.669       23.363      857.011
07/05/2013  01:38:00      -74.821     -100.089      -11.858       35.056       31.012       19.785     1228.917      961.761      391.432        0.917        0.129      124.964       12.512        0.010      345.714       23.441      857.007
07/05/2013  01:39:00      -58.416      -77.238        1.347       50.761       33.511       28.897     2576.687     1123.002      835.022        0.696        0.227       96.841       32.453        0.112      345.745       23.495      857.012
07/05/2013  01:40:00      -34.248      -51.992        2.691       50.433       33.274       26.883     2543.497     1107.160      722.701        0.413        0.219       62.258       22.384        0.129      345.718       23.448      857.016
07/05/2013  01:41:00      -40.471      -37.151       10.557       46.583       27.831       22.186     2169.933      774.551      492.225        0.328        0.172       54.937       23.018        0.176      345.624       23.286      857.013
07/05/2013  01:42:00      -35.843      -27.585        7.663       36.818       26.932       22.260     1355.557      725.355      495.518        0.234        0.129       45.229       19.044        0.177      345.572       23.198      857.017
07/05/2013  01:43:00      -23.660      -39.586       12.297       41.817       23.160       19.710     1748.656      536.376      388.501        0.248        0.134       46.118       16.863        0.134      345.584       23.218      857.028
07/05/2013  01:44:00      -60.839      -47.546        5.179       58.522       22.466       18.757     3424.779      504.740      351.807        0.513        0.214       77.214       19.606        0.064      345.587       23.224      857.026
07/05/2013  01:45:00      -41.177      -47.739        9.207       40.560       28.959       17.250     1645.104      838.603      297.574        0.342        0.139       63.044       15.350        0.059      345.526       23.117      857.028
07/05/2013  01:46:00      -43.529      -45.572        0.804       29.363       24.234       17.638      862.184      587.294      311.100        0.287        0.088       63.021       15.739        0.062      345.510       23.092      857.030
07/05/2013  01:47:00      -61.639      -67.928        0.077       34.823       35.102       26.784     1212.651     1232.166      717.395        0.579        0.158       91.725       23.322        0.065      345.605       23.255      857.023
07/05/2013  01:48:00      -97.410      -49.811       -3.025       18.868       21.282       18.714      355.985      452.911      350.197        0.657        0.058      109.406        9.072        0.007      345.567       23.190      857.013
07/05/2013  01:49:00      -96.789      -30.381       -5.544       26.724       21.115       15.967      714.196      445.834      254.956        0.587        0.071      101.446       15.268        0.023      345.496       23.069      857.015
07/05/2013  01:50:00      -75.575      -38.376       -5.091       36.071       28.301       18.416     1301.122      800.936      339.166        0.483        0.122       84.760       12.960        0.023      345.421       22.938      857.017
07/05/2013  01:51:00      -83.634      -38.221       -0.021       31.321       25.429       20.006      981.010      646.642      400.220        0.524        0.101       91.954       14.921        0.026      345.443       22.976      857.008
07/05/2013  01:52:00      -94.228      -49.036        0.409       34.977       25.837       15.907     1223.374      667.538      253.024        0.671        0.107      106.224       14.597        0.019      345.390       22.886      857.010
07/05/2013  01:53:00      -44.939      -52.551        9.669       46.945       24.140       21.875     2203.792      582.736      478.512        0.407        0.163       69.146       24.921        0.130      345.432       22.958      857.017
07/05/2013  01:54:00      -19.040      -51.739        6.266       21.012       37.086       15.312      441.487     1375.340      234.452        0.256        0.103       55.131       17.545        0.101      345.462       23.009      857.013
07/05/2013  01:55:00      -17.998      -38.298        5.651       27.651       20.088       18.429      764.570      403.541      339.627        0.166        0.075       42.316       10.294        0.059      345.451       22.990      857.011
07/05/2013  01:56:00      -35.800      -60.406        1.692       41.038       44.718       15.666     1684.146     1999.667      245.428        0.443        0.196       70.218       18.225        0.067      345.425       22.945      857.026
07/05/2013  01:57:00      -75.681      -52.764        3.274       42.343       33.809       19.771     1792.952     1143.063      390.878        0.592        0.166       92.259       14.886        0.026      345.393       22.891      857.022
07/05/2013  01:58:00      -46.387      -44.490        1.526       47.719       32.986       19.963     2277.129     1088.046      398.510        0.395        0.188       64.273        9.162        0.020      345.413       22.925      857.025
07/05/2013  01:59:00      -66.347      -29.239        0.589       28.117       19.002       12.996      790.541      361.089      168.888        0.329        0.066       72.504       16.604        0.052      345.280       22.696      857.040
07/05/2013  02:00:00      -47.113      -71.718        7.947       54.797       53.604       26.686     3002.657     2873.439      712.154        0.701        0.329       85.808       26.898        0.098      345.382       22.870      857.040
07/05/2013  02:01:00      -69.448      -85.795        3.659       55.323       39.451       27.323     3060.624     1556.360      746.561        0.878        0.268      110.380       24.041        0.047      345.417       22.933      857.030
07/05/2013  02:02:00      -83.195      -90.625        0.068       59.547       43.025       29.768     3545.885     1851.108      886.112        1.071        0.314      123.022       33.683        0.075      345.370       22.852      857.037
07/05/2013  02:03:00      -48.333      -75.000       10.740       40.897       47.508       23.325     1672.599     2257.021      544.072        0.627        0.224       89.225       22.070        0.061      345.358       22.832      857.044
07/05/2013  02:04:00      -57.477      -71.175       -6.400       43.839       34.918       16.483     1921.872     1219.291      271.684        0.591        0.171       91.485       15.667        0.029      345.404       22.909      857.044
07/05/2013  02:05:00      -43.006      -54.880        5.268       42.764       28.488       23.082     1828.752      811.592      532.781        0.403        0.159       69.723       19.819        0.081      345.400       22.903      857.046
07/05/2013  02:06:00      -12.789      -46.621        5.415       23.917       30.955       21.164      572.045      958.224      447.898        0.217        0.099       48.343        7.376        0.023      345.463       23.012      857.042
07/05/2013  02:07:00      -52.999      -66.023        2.269       25.901       40.896       21.619      670.844     1672.450      467.384        0.499        0.141       84.664       17.782        0.044      345.482       23.043      857.053
07/05/2013  02:08:00      -62.334      -31.941        5.080       38.427       33.126       15.707     1476.605     1097.359      246.716        0.388        0.141       70.041       15.651        0.050      345.448       22.987      857.056
07/05/2013  02:09:00      -58.406      -30.231        5.851       32.987       20.191       16.159     1088.166      407.684      261.126        0.306        0.088       65.766       16.302        0.061      345.375       22.860      857.063
07/05/2013  02:10:00      -49.207      -35.502       -0.958       29.158       17.010       15.897      850.213      289.333      252.726        0.254        0.070       60.677       15.109        0.062      345.475       23.031      857.075
07/05/2013  02:11:00      -52.485      -51.260       -2.010       33.623       22.581       15.482     1130.487      509.885      239.703        0.363        0.094       73.363       16.010        0.048      345.437       22.966      857.078
07/05/2013  02:12:00      -33.496      -82.010       -1.918       18.263       26.120       14.451      333.541      682.275      208.845        0.454        0.061       88.587        6.180        0.005      345.402       22.905      857.073
07/05/2013  02:13:00      -43.230      -83.462       -6.753       18.448       31.860       13.432      340.320     1015.080      180.408        0.521        0.077       93.993        9.403        0.010      345.452       22.992      857.068
07/05/2013  02:14:00      -21.878      -11.623        7.874       28.174       20.812       11.342      793.781      433.144      128.650        0.102        0.068       24.774       15.306        0.382      345.358       22.829      857.085
07/05/2013  02:15:00       17.174       17.036        6.918       10.937        9.954       13.661      119.609       99.084      186.626        0.052        0.020       24.190        6.951        0.083      345.313       22.755      857.082
07/05/2013  02:16:00        5.180       12.471       -4.399       13.831       17.873        9.923      191.287      319.434       98.472        0.041        0.030       13.504        8.840        0.428      345.316       22.759      857.074
07/05/2013  02:17:00       14.566       46.618       -8.416       10.676       14.404        7.968      113.977      207.482       63.493        0.142        0.019       48.840        4.950        0.010      345.163       22.496      857.070
07/05/2013  02:18:00       25.233       49.377       -0.682       20.421       12.811       12.733      417.020      164.134      162.135        0.191        0.037       55.451        9.209        0.028      345.070       22.338      857.064
07/05/2013  02:19:00       55.549       30.633       -2.835       16.008       18.470       13.068      256.244      341.123      170.769        0.240        0.038       63.436        5.900        0.009      344.946       22.126      857.047
07/05/2013  02:20:00       61.961       35.830       10.712       19.539       17.766       19.165      381.780      315.635      367.280        0.315        0.053       71.574        5.561        0.006      344.754       21.797      857.046
07/05/2013  02:21:00        0.381       18.138       -3.414       37.377       22.076       15.064     1397.063      487.330      226.932        0.123        0.106       18.142       12.852        0.502      344.671       21.656      857.064
07/05/2013  02:22:00        8.342       69.594      -10.772       23.643       25.500       10.822      559.014      650.252      117.114        0.318        0.066       70.092        5.981        0.007      344.929       22.097      857.074
07/05/2013  02:23:00       18.698       76.027      -12.775       18.087       24.204       14.227      327.130      585.827      202.419        0.370        0.056       78.292       12.149        0.024      345.128       22.437      857.075
07/05/2013  02:24:00      -14.890       93.507      -17.707       25.898       18.962       12.844      670.715      359.561      164.963        0.524        0.060       94.685        9.423        0.010      345.245       22.637      857.074
07/05/2013  02:25:00      -11.303       67.229       -2.582       29.822       26.601       14.545      889.363      707.615      211.551        0.323        0.090       68.173       10.177        0.022      345.042       22.289      857.075
07/05/2013  02:26:00       -9.791       78.759       -8.608       19.852       28.802       14.440      394.107      829.535      208.514        0.390        0.072       79.365       12.724        0.026      345.245       22.638      857.073
07/05/2013  02:27:00      -43.931       14.035       -6.798       15.124       26.210        7.797      228.745      686.956       60.799        0.157        0.049       46.119        6.547        0.020      345.190       22.543      857.084
07/05/2013  02:28:00       -6.197       15.714       -4.386        9.007        8.629        4.890       81.128       74.464       23.916        0.024        0.009       16.892        4.189        0.062      345.325       22.775      857.077
07/05/2013  02:29:00      -27.210       16.652       -4.190       13.873        7.704        4.216      192.465       59.356       17.775        0.065        0.013       31.901        5.429        0.029      345.391       22.887      857.078
07/05/2013  02:30:00      -14.605      -16.336       -0.701       10.716        7.096        5.667      114.837       50.349       32.118        0.034        0.010       21.913        2.386        0.012      345.259       22.661      857.075
07/05/2013  02:31:00      -66.548       -7.420      -13.097       23.052       10.836        7.023      531.397      117.418       49.329        0.268        0.035       66.960        8.275        0.015      345.272       22.686      857.072
07/05/2013  02:32:00      -64.605       12.527      -10.497       10.698        6.693        3.518      114.456       44.795       12.373        0.231        0.009       65.808        2.912        0.002      345.302       22.735      857.077
07/05/2013  02:33:00      -59.707       21.876       -4.843        8.277       11.127        6.522       68.506      123.819       42.537        0.215        0.012       63.589        5.959        0.009      345.562       23.181      857.082
07/05/2013  02:34:00      -54.035      -22.787      -13.963       13.263       15.821       10.064      175.914      250.303      101.289        0.208        0.026       58.643        7.160        0.015      345.255       22.655      857.079
07/05/2013  02:35:00      -59.151      -19.857       -5.170       10.368       18.775        7.937      107.489      352.503       62.993        0.222        0.026       62.395        9.051        0.021      345.268       22.677      857.076
07/05/2013  02:36:00      -32.411        3.392       -7.301       10.281        5.242        4.836      105.704       27.483       23.389        0.064        0.008       32.588        3.296        0.010      345.548       23.156      857.062
07/05/2013  02:37:00      -38.665       -7.999       -6.537       17.629       10.121        7.791      310.787      102.429       60.698        0.104        0.024       39.484        6.679        0.029      345.590       23.231      857.058
07/05/2013  02:38:00      -42.581      -14.075       -8.635       18.075       10.112        6.898      326.704      102.253       47.577        0.128        0.024       44.847        5.892        0.017      345.450       22.990      857.059
07/05/2013  02:39:00      -81.363      -21.405       -3.182       17.559       16.473        9.056      308.318      271.363       82.009        0.387        0.033       84.132        4.421        0.003      344.919       22.079      857.060
07/05/2013  02:40:00      -35.516       -0.907       -1.887       16.156       15.511        9.060      261.018      240.601       82.078        0.092        0.029       35.528        9.263        0.068      344.984       22.191      857.053
07/05/2013  02:41:00      -26.626        8.783        1.174        7.162       13.844        7.539       51.297      191.661       56.834        0.054        0.015       28.037        1.797        0.004      345.179       22.525      857.045
07/05/2013  02:42:00      -50.253      -17.571       -5.597       15.812       15.691       12.082      250.009      246.202      145.979        0.175        0.032       53.236       10.734        0.041      345.116       22.415      857.059
07/05/2013  02:43:00      -39.319      -15.677       -9.666       28.109       11.268        7.523      790.104      126.978       56.594        0.143        0.049       42.329        6.542        0.024      344.919       22.080      857.052
07/05/2013  02:44:00       13.590        5.434        4.784       13.396       15.368        5.900      179.440      236.189       34.812        0.034        0.023       14.636        6.573        0.202      345.091       22.374      857.032
07/05/2013  02:45:00      -34.149      -22.087       -5.810       27.516       18.707       10.893      757.124      349.968      118.658        0.146        0.061       40.669       16.536        0.165      345.281       22.698      857.042
07/05/2013  02:46:00     -107.467      -46.460       -4.877       36.310       22.984       14.119     1318.406      528.273      199.335        0.789        0.102      117.080        5.219        0.002      344.965       22.158      857.064
07/05/2013  02:47:00      -39.989       -4.599       -5.995       15.568       11.055        7.919      242.357      122.220       62.713        0.104        0.021       40.253        4.261        0.011      344.823       21.915      857.061
07/05/2013  02:48:00      -31.247       12.013       -7.558       14.909        9.147        5.197      222.283       83.672       27.011        0.076        0.017       33.476        3.465        0.011      344.968       22.162      857.045
07/05/2013  02:49:00      -86.557      -19.406      -14.038       20.506       15.306        9.556      420.480      234.274       91.319        0.441        0.037       88.706        9.094        0.011      344.981       22.186      857.045
07/05/2013  02:50:00      -40.599      -10.076       -4.239       38.934       19.164        7.651     1515.836      367.243       58.538        0.185        0.097       41.831       15.447        0.136      344.966       22.161      857.035
07/05/2013  02:51:00       -8.079       47.855       -5.787       36.175       21.172       13.836     1308.626      448.234      191.431        0.217        0.097       48.532       15.578        0.103      345.281       22.699      857.010
07/05/2013  02:52:00      -72.506       11.660      -10.329       18.085       14.461       10.114      327.073      209.112      102.289        0.307        0.032       73.438        7.041        0.009      345.002       22.221      857.023
07/05/2013  02:53:00      -32.296      -29.388       -6.047       18.168       12.469       10.016      330.060      155.473      100.328        0.126        0.029       43.666        6.784        0.024      345.032       22.273      857.016
07/05/2013  02:54:00      -32.027      -24.657      -10.784       19.472       10.665        7.833      379.159      113.733       61.359        0.115        0.028       40.419        3.471        0.007      345.055       22.310      857.010
07/05/2013  02:55:00      -17.038       11.277       -0.985       21.713       27.317       13.222      471.444      746.214      174.819        0.091        0.070       20.431       15.047        0.542      345.309       22.747      856.996
07/05/2013  02:56:00      -72.483       -9.992       -9.788       34.774       20.327       15.434     1209.211      413.184      238.204        0.365        0.093       73.169       15.764        0.046      345.063       22.327      857.000
07/05/2013  02:57:00      -34.377      -29.504       -6.468       23.022       19.152       14.705      530.035      366.781      216.243        0.160        0.056       45.302       13.212        0.085      344.919       22.080      857.002
07/05/2013  02:58:00       -3.877      -34.357       -1.915       15.277       22.048        7.366      233.373      486.098       54.264        0.099        0.039       34.575        3.303        0.009      345.046       22.297      856.994
07/05/2013  02:59:00      -17.229        5.893       -9.928       15.306       14.997       10.349      234.289      224.895      107.109        0.050        0.028       18.209        9.534        0.274      345.276       22.689      856.981
07/05/2013  03:00:00      -56.757      -14.099       -9.679       29.883       15.369       12.540      893.020      236.217      157.253        0.240        0.064       58.482       15.802        0.073      345.108       22.403      856.969
07/05/2013  03:01:00      -71.551      -13.820       -8.252       27.932       12.067       13.217      780.196      145.622      174.690        0.324        0.055       72.874       14.793        0.041      344.854       21.968      856.965
07/05/2013  03:02:00      -19.837       -2.384       -2.196       10.891        9.381        7.854      118.605       88.007       61.692        0.034        0.013       19.980        6.390        0.102      344.989       22.201      856.963
07/05/2013  03:03:00        2.978        0.717       -0.207        5.793        6.312        3.887       33.561       39.842       15.110        0.005        0.004        3.063        2.429        0.629      344.939       22.113      856.954
07/05/2013  03:04:00      -53.986      -21.931       -9.408       35.562       20.422        8.381     1264.635      417.069       70.240        0.262        0.088       58.270        7.545        0.017      345.058       22.319      856.961
07/05/2013  03:05:00      -43.671      -35.106       -5.178       32.438       25.551       20.342     1052.197      652.855      413.814        0.264        0.106       56.032       15.298        0.075      344.863       21.984      856.959
07/05/2013  03:06:00      -36.817      -32.243       -3.383       22.939       19.482       11.221      526.178      379.534      125.917        0.172        0.052       48.940       10.946        0.050      344.879       22.013      856.960
07/05/2013  03:07:00      -81.428      -18.613      -13.910        8.550        8.747        7.753       73.106       76.506       60.110        0.369        0.010       83.529        3.666        0.002      345.003       22.224      856.971
07/05/2013  03:08:00      -88.952      -23.553      -15.561       12.388       15.110       10.913      153.455      228.318      119.100        0.460        0.025       92.017        5.386        0.003      344.912       22.067      856.958
07/05/2013  03:09:00      -90.555      -17.603      -12.750       10.995       12.760       10.330      120.883      162.808      106.700        0.453        0.020       92.250        6.667        0.005      344.893       22.035      856.950
07/05/2013  03:10:00      -89.086       -1.592      -11.406       12.957       11.378        6.216      167.883      129.470       38.644        0.420        0.017       89.100        3.308        0.001      345.134       22.446      856.935
07/05/2013  03:11:00     -104.951      -39.053      -11.365       16.897       23.067       11.493      285.502      532.101      132.095        0.681        0.047      111.982        7.441        0.004      344.875       22.005      856.940
07/05/2013  03:12:00     -103.292      -32.971      -10.969       25.852       16.884       10.511      668.323      285.079      110.487        0.647        0.053      108.427        3.204        0.001      344.769       21.823      856.945
07/05/2013  03:13:00      -33.245      -27.570       -4.151       23.689       16.498       11.403      561.167      272.181      130.029        0.142        0.048       43.190       10.615        0.060      344.800       21.876      856.940
07/05/2013  03:14:00      -56.172      -43.411      -11.476       16.648       19.505       12.834      277.166      380.439      164.710        0.300        0.041       70.992        7.976        0.013      344.789       21.855      856.928
07/05/2013  03:15:00      -98.320      -34.937      -10.367       23.623       16.213       12.406      558.043      262.865      153.912        0.598        0.049      104.343        9.992        0.009      344.744       21.778      856.911
07/05/2013  03:16:00      -99.882      -43.150      -12.420       37.069       32.211       12.357     1374.120     1037.570      152.686        0.728        0.128      108.804       13.572        0.016      344.717       21.733      856.922
07/05/2013  03:17:00     -115.791      -63.232        3.026       40.223       25.432       17.660     1617.876      646.800      311.868        1.000        0.129      131.931       20.457        0.024      344.690       21.687      856.916
07/05/2013  03:18:00     -168.647      -45.423       -8.686       27.019       34.351       11.785      730.016     1180.010      138.894        1.631        0.102      174.657       11.719        0.005      344.657       21.633      856.905
07/05/2013  03:19:00      -87.134       -3.104        2.409       35.219       22.705       17.396     1240.346      515.539      302.623        0.483        0.103       87.189       16.664        0.037      344.757       21.803      856.887
07/05/2013  03:20:00     -112.579        0.218       -5.974       30.409       21.653       17.488      924.703      468.864      305.823        0.720        0.085      112.579       12.543        0.012      344.739       21.772      856.875
07/05/2013  03:21:00     -120.738      -30.989       -0.496       23.678       18.703       16.565      560.636      349.805      274.390        0.836        0.059      124.651       16.437        0.017      344.758       21.805      856.875
07/05/2013  03:22:00      -88.104      -50.704       -9.457       20.491       16.362       12.215      419.863      267.716      149.214        0.563        0.042      101.652       10.646        0.011      344.708       21.718      856.875
07/05/2013  03:23:00      -73.272      -52.693        0.328       39.922       31.555       19.817     1593.764      995.743      392.696        0.556        0.149       90.251       21.103        0.055      344.683       21.673      856.889
07/05/2013  03:24:00      -27.617      -56.961       13.594       51.180       34.684       29.211     2619.390     1202.994      853.269        0.443        0.234       63.303       31.138        0.242      344.750       21.791      856.907
07/05/2013  03:25:00      -45.563      -83.568       -4.674       46.305       45.709       27.675     2144.182     2089.346      765.912        0.704        0.250       95.181       25.754        0.073      344.759       21.805      856.906
07/05/2013  03:26:00      -25.273      -64.624       -4.466       35.964       37.796       25.433     1293.405     1428.504      646.814        0.410        0.168       69.390       24.870        0.128      344.799       21.874      856.906
07/05/2013  03:27:00      -45.240      -27.156        1.451       44.445       25.732       19.450     1975.330      662.154      378.297        0.290        0.151       52.765       16.470        0.097      344.734       21.763      856.896
07/05/2013  03:28:00      -18.201      -50.586        9.273       42.386       33.957       27.866     1796.591     1153.082      776.497        0.335        0.186       53.761       25.482        0.225      344.749       21.789      856.889
07/05/2013  03:29:00     -115.398      -46.198       -9.007       24.134       26.606       16.246      582.468      707.884      263.925        0.854        0.078      124.302       11.051        0.008      344.805       21.886      856.885
07/05/2013  03:30:00      -86.508      -32.317       -1.534       33.415       26.716       15.684     1116.535      713.756      245.993        0.530        0.104       92.348       17.581        0.036      344.676       21.663      856.878
07/05/2013  03:31:00      -42.872      -37.695        1.261       34.919       18.779       11.656     1219.311      352.668      135.867        0.248        0.085       57.087       11.977        0.044      344.757       21.803      856.873
07/05/2013  03:32:00      -34.617      -38.735       -3.005       34.739       16.961       16.172     1206.765      287.662      261.518        0.223        0.088       51.949       11.942        0.053      344.826       21.922      856.874
07/05/2013  03:33:00       -2.365      -35.140        5.150       13.113       20.138       13.462      171.954      405.547      181.232        0.101        0.038       35.219       13.219        0.141      344.872       21.999      856.863
07/05/2013  03:34:00      -39.203      -19.500        9.800       35.414       17.447       13.825     1254.140      304.408      191.126        0.188        0.087       43.785       19.224        0.193      344.805       21.884      856.859
07/05/2013  03:35:00      -30.280       15.916       -1.740       15.452       13.287       10.521      238.759      176.544      110.702        0.085        0.026       34.208       11.147        0.106      344.587       21.513      856.845
07/05/2013  03:36:00      -36.114       -3.490        1.017       10.489       10.681        7.046      110.022      114.084       49.645        0.080        0.014       36.282        4.853        0.018      344.732       21.761      856.836
07/05/2013  03:37:00      -42.278       14.031       -3.645       10.846        7.347        5.089      117.631       53.984       25.901        0.110        0.010       44.546        3.470        0.006      344.780       21.843      856.813
07/05/2013  03:38:00      -18.728        5.146       -4.499        8.677       14.512        5.257       75.286      210.599       27.632        0.036        0.016       19.422        4.722        0.059      344.739       21.772      856.794
07/05/2013  03:39:00      -21.582       -5.596       -2.862       12.984        6.598        3.979      168.594       43.536       15.835        0.037        0.011       22.296        4.148        0.035      344.860       21.982      856.794
07/05/2013  03:40:00       -9.520      -12.570       -3.086       11.761        7.768        7.152      138.327       60.339       51.153        0.025        0.012       15.769        5.949        0.142      344.833       21.934      856.801
07/05/2013  03:41:00        3.439       -4.049       13.486       16.804       15.878       12.263      282.365      252.105      150.383        0.045        0.034        5.312        7.414        1.948      344.752       21.792      856.790
07/05/2013  03:42:00        5.919      -31.268       -4.264       12.582       17.100       10.527      158.302      292.397      110.820        0.080        0.028       31.823        6.139        0.037      344.751       21.791      856.798
07/05/2013  03:43:00       16.523        3.892        7.066        9.620       15.627       12.041       92.537      244.201      144.995        0.041        0.024       16.975       12.031        0.502      344.702       21.709      856.795
07/05/2013  03:44:00       33.504       32.819        9.347       10.972       12.137       12.650      120.382      147.316      160.015        0.136        0.021       46.899       11.671        0.062      344.644       21.609      856.801
07/05/2013  03:45:00       35.591       12.887        6.961       11.583       15.944       11.596      134.175      254.210      134.476        0.100        0.026       37.852        4.690        0.015      344.559       21.464      856.801
07/05/2013  03:46:00       52.691       53.339       29.136       30.588       20.176       26.373      935.615      407.089      695.560        0.425        0.102       74.976       23.509        0.098      344.439       21.259      856.794
07/05/2013  03:47:00       14.529       13.601       29.003       23.955       18.552       12.854      573.834      344.194      165.228        0.116        0.054       19.902       11.862        0.355      344.403       21.197      856.788
07/05/2013  03:48:00       31.775       38.720        7.834       14.481       22.316       15.076      209.691      497.994      227.301        0.175        0.047       50.089       14.595        0.085      344.397       21.186      856.791
07/05/2013  03:49:00       12.207       16.191        4.435       21.109       20.525       13.782      445.605      421.263      189.934        0.074        0.053       20.277       10.935        0.291      344.236       20.912      856.797
07/05/2013  03:50:00       24.342       19.555        4.219       24.150       25.766       13.644      583.221      663.884      186.167        0.121        0.072       31.224        8.303        0.071      344.432       21.245      856.786
07/05/2013  03:51:00       26.409       37.319        6.217       22.419       15.291       16.033      502.599      233.818      257.062        0.156        0.050       45.718       12.219        0.071      344.545       21.440      856.781
07/05/2013  03:52:00       59.651       40.087       19.353       28.777       34.482       17.262      828.098     1189.035      297.991        0.393        0.116       71.870        6.809        0.009      344.652       21.621      856.760
07/05/2013  03:53:00      -38.536      -28.883       -2.317       36.462       15.826       15.738     1329.443      250.473      247.675        0.208        0.091       48.159       14.607        0.092      344.641       21.603      856.787
07/05/2013  03:54:00      -30.008       32.953       -0.086       18.760       27.906        9.034      351.951      778.772       81.613        0.160        0.061       44.569        5.329        0.014      344.489       21.344      856.788
07/05/2013  03:55:00       32.802       59.262        0.256       20.050       20.459       16.486      401.987      418.567      271.797        0.284        0.055       67.735       13.583        0.040      344.556       21.457      856.772
07/05/2013  03:56:00        3.152       42.144       -5.158       20.302       16.962        8.544      412.176      287.718       73.006        0.129        0.039       42.262        5.752        0.019      344.693       21.695      856.770
07/05/2013  03:57:00       27.296       70.397       -6.073       42.479       22.603       11.435     1804.486      510.917      130.756        0.409        0.122       75.503       13.682        0.033      344.961       22.152      856.774
07/05/2013  03:58:00       80.561       52.301        2.353       56.777       37.138       25.805     3223.634     1379.224      665.880        0.725        0.263       96.049       16.030        0.028      344.805       21.885      856.739
07/05/2013  03:59:00        2.072       27.774       -5.231       22.530       56.663       21.686      507.599     3210.724      470.268        0.249        0.209       27.851       10.473        0.141      344.620       21.568      856.738
07/05/2013  04:00:00      -11.709       -5.520      -18.631       33.733       28.522       16.516     1137.915      813.503      272.784        0.137        0.111       12.945        9.735        0.566      345.034       22.278      856.759
07/05/2013  04:01:00       81.088       46.953        0.186       27.219       24.681       26.282      740.848      609.135      690.747        0.541        0.102       93.701        7.741        0.007      344.875       22.003      856.742
07/05/2013  04:02:00       21.416       30.027       28.224       23.430       13.930        9.480      548.979      194.056       89.872        0.149        0.042       36.882        1.477        0.002      344.662       21.640      856.746
07/05/2013  04:03:00       35.207       29.735       28.097       29.924       32.043       19.756      895.474     1026.764      390.317        0.261        0.116       46.084       11.315        0.060      344.784       21.851      856.747
07/05/2013  04:04:00       34.633       43.427       -3.654       17.656       16.732       16.346      311.721      279.948      267.198        0.198        0.043       55.546       11.983        0.047      344.722       21.742      856.744
07/05/2013  04:05:00      106.790       51.960       15.123       36.604       14.826       17.740     1339.838      219.822      314.716        0.810        0.094      118.760       10.143        0.007      344.716       21.731      856.745
07/05/2013  04:06:00       44.820       80.708       76.872       42.950       29.162       26.472     1844.737      850.450      700.773        0.891        0.170       92.318       24.319        0.069      344.765       21.815      856.733
07/05/2013  04:07:00       52.891       62.812       60.838       27.168       27.672       24.459      738.101      765.732      598.240        0.627        0.105       82.115       16.300        0.039      344.671       21.654      856.745
07/05/2013  04:08:00       48.708       78.506       83.868       40.384       42.326       31.611     1630.830     1791.449      999.236        0.999        0.221       92.388       32.002        0.120      344.734       21.764      856.755
07/05/2013  04:09:00       10.852      127.624      131.484       37.250       50.176       31.612     1387.557     2517.597      999.293        1.930        0.245      128.084       34.416        0.072      344.763       21.811      856.740
07/05/2013  04:10:00       12.216      124.208      130.523       29.639       52.627       31.482      878.449     2769.590      991.133        1.863        0.232      124.807       33.336        0.071      344.854       21.967      856.734
07/05/2013  04:11:00       18.935       70.016      102.907       40.300       69.957       32.818     1624.123     4893.927     1077.018        1.172        0.380       72.531       41.514        0.328      344.851       21.962      856.740
07/05/2013  04:12:00       21.343      -12.032       49.850       27.255       38.227       31.881      742.835     1461.340     1016.398        0.315        0.161       24.501       22.795        0.866      344.724       21.745      856.742
07/05/2013  04:13:00       57.816      103.436       86.307       59.263       42.860       25.473     3512.115     1837.013      648.876        1.374        0.300      118.498       22.650        0.037      344.793       21.863      856.708
07/05/2013  04:14:00       86.930       47.543       15.620       59.684       37.534       38.795     3562.147     1408.771     1505.036        0.827        0.324       99.082       27.317        0.076      344.796       21.869      856.673
07/05/2013  04:15:00       -3.235       -4.404       -4.365       27.856       35.554       13.599      775.984     1264.098      184.942        0.114        0.111        5.464       11.241        4.232      344.492       21.351      856.668
07/05/2013  04:16:00       13.407      -16.581       -1.243       14.231       17.222       12.153      202.527      296.593      147.701        0.055        0.032       21.323        4.873        0.052      344.570       21.483      856.692
07/05/2013  04:17:00       35.408      -34.323       -1.813       21.986       42.805       16.324      483.396     1832.244      266.489        0.251        0.129       49.314       14.501        0.086      344.682       21.673      856.731
07/05/2013  04:18:00       11.562       -0.129       40.235       26.356       39.008       20.262      694.617     1521.647      410.534        0.219        0.131       11.563       19.118        2.733      344.749       21.790      856.755
07/05/2013  04:19:00       63.870      -57.087        6.124       41.467       40.217       29.583     1719.512     1617.414      875.137        0.579        0.211       85.664       31.311        0.134      344.819       21.909      856.754
07/05/2013  04:20:00       67.014       47.911       44.625       56.089       45.834       33.566     3145.961     2100.775     1126.657        0.757        0.319       82.379       35.350        0.184      344.709       21.719      856.741
07/05/2013  04:21:00      118.619       57.579       25.718       55.162       33.268       32.221     3042.821     1106.776     1038.175        1.162        0.259      131.855       18.479        0.020      344.888       22.027      856.715
07/05/2013  04:22:00       99.535       74.998       52.136       48.719       45.428       39.621     2373.545     2063.729     1569.832        1.213        0.300      124.627       31.119        0.062      344.840       21.944      856.708
07/05/2013  04:23:00       52.297       27.370       45.601       46.500       27.553       25.510     2162.288      759.180      650.772        0.457        0.179       59.026       21.141        0.128      344.742       21.775      856.717
07/05/2013  04:24:00        0.674       28.865       45.259       17.895       32.448       18.582      320.226     1052.851      345.273        0.230        0.086       28.873       15.999        0.307      344.702       21.708      856.735
07/05/2013  04:25:00       18.525      -22.882       33.174       41.608       40.950       35.615     1731.218     1676.926     1268.438        0.332        0.234       29.441       32.683        1.232      344.680       21.669      856.738
07/05/2013  04:26:00       37.263       34.172       55.634       39.946       45.192       24.970     1595.688     2042.307      623.508        0.496        0.213       50.559       21.058        0.173      344.631       21.586      856.726
07/05/2013  04:27:00       99.554       49.779       19.574       31.913       23.738       26.989     1018.457      563.516      728.427        0.754        0.116      111.306       22.385        0.040      344.818       21.906      856.724
07/05/2013  04:28:00       83.363       61.031       34.358       30.595       22.004       21.898      936.080      484.163      479.541        0.688        0.095      103.316       11.805        0.013      344.941       22.119      856.721
07/05/2013  04:29:00        7.412       33.827       16.367       23.653       19.315       22.200      559.472      373.072      492.820        0.145        0.071       34.629        9.518        0.076      344.886       22.023      856.726
07/05/2013  04:30:00        1.265       46.505        4.086        9.147       15.729       12.962       83.663      247.386      168.015        0.134        0.025       46.522        7.619        0.027      344.717       21.733      856.741
07/05/2013  04:31:00        9.349       -4.192       11.832       20.567       30.045       10.185      422.985      902.722      103.734        0.084        0.071       10.246        3.590        0.123      344.785       21.851      856.763
07/05/2013  04:32:00       -3.652      -67.674       14.020       15.488       21.327       17.309      239.863      454.820      299.613        0.289        0.050       67.773        6.966        0.011      344.927       22.093      856.776
07/05/2013  04:33:00       13.156      -57.999        7.901       17.387       22.852       18.343      302.302      522.229      336.469        0.238        0.058       59.472       13.100        0.049      344.915       22.073      856.782
07/05/2013  04:34:00       13.875      -56.672       -9.617       19.729       17.829       14.678      389.246      317.869      215.438        0.221        0.046       58.346        7.146        0.015      344.959       22.147      856.795
07/05/2013  04:35:00        1.006      -50.338        3.153       16.612       24.778       20.530      275.970      613.940      421.475        0.193        0.066       50.348        8.974        0.032      345.013       22.241      856.807
07/05/2013  04:36:00      -58.606      -35.371       -4.458       23.324       10.786       10.481      544.002      116.348      109.847        0.274        0.039       68.453        8.499        0.015      344.818       21.907      856.825
07/05/2013  04:37:00      -75.375      -38.251       -5.051       26.811       18.187       12.028      718.840      330.757      144.682        0.418        0.060       84.525        7.528        0.008      344.715       21.731      856.822
07/05/2013  04:38:00       -3.440      -10.320       10.024       21.470       11.024        8.613      460.965      121.520       74.184        0.044        0.033       10.878        7.624        0.491      344.612       21.554      856.811
07/05/2013  04:39:00      -10.946        6.415       -3.545        8.195        7.731        4.082       67.161       59.770       16.660        0.016        0.007       12.687        2.406        0.036      344.781       21.841      856.789
07/05/2013  04:40:00      -33.449      -12.902        3.886       22.690       10.114        5.470      514.825      102.285       29.923        0.097        0.032       35.851        5.554        0.024      344.745       21.782      856.783
07/05/2013  04:41:00      -29.698      -17.745       -0.886       26.839       15.628        7.762      720.308      244.246       60.251        0.111        0.051       34.596        9.866        0.081      344.744       21.779      856.759
07/05/2013  04:42:00      -15.098       -2.457       -4.974        7.012       10.661        4.180       49.173      113.663       17.471        0.022        0.009       15.297        3.134        0.042      344.726       21.746      856.722
07/05/2013  04:43:00       -1.437       10.968       -2.362        9.127        6.175        4.036       83.310       38.127       16.292        0.013        0.007       11.061        2.056        0.035      344.834       21.929      856.684
07/05/2013  04:44:00      -42.246      -12.553       -4.549       20.981       16.929        7.539      440.217      286.603       56.830        0.137        0.039       44.072       11.824        0.072      344.836       21.940      856.679
07/05/2013  04:45:00      -35.048      -23.994        0.425       34.356       18.028       17.914     1180.315      325.023      320.929        0.181        0.091       42.475       18.547        0.191      344.618       21.566      856.709
07/05/2013  04:46:00      -47.042      -29.054       11.248       46.029       26.209       24.360     2118.664      686.918      593.387        0.329        0.170       55.290       19.227        0.121      344.487       21.340      856.732
07/05/2013  04:47:00      -73.509      -56.060       -2.671       41.070       23.855       17.602     1686.760      569.058      309.817        0.556        0.128       92.446       14.658        0.025      344.652       21.622      856.724
07/05/2013  04:48:00      -22.217      -17.026       -0.370       18.741       24.798        9.196      351.219      614.947       84.571        0.092        0.053       27.991        9.623        0.118      344.657       21.632      856.702
07/05/2013  04:49:00      -32.787       27.117       -1.965        9.325        9.647        4.630       86.963       93.072       21.440        0.101        0.010       42.548        2.797        0.004      344.562       21.468      856.689
07/05/2013  04:50:00      -47.179       -9.033       -4.625       14.222       14.770        6.011      202.276      218.142       36.137        0.139        0.023       48.036        5.106        0.011      344.675       21.665      856.681
07/05/2013  04:51:00      -43.124        3.083       -1.750       14.211       10.381        8.463      201.963      107.761       71.630        0.113        0.019       43.234        3.488        0.007      344.624       21.574      856.658
07/05/2013  04:52:00      -31.724       41.489       -9.233       10.354       18.141        7.467      107.214      329.108       55.757        0.165        0.025       52.228        8.146        0.024      344.585       21.510      856.633
07/05/2013  04:53:00       -9.023       52.015       -4.175       14.036       14.243        9.568      197.020      202.867       91.544        0.165        0.025       52.792        7.849        0.022      344.634       21.591      856.605
07/05/2013  04:54:00      -16.136      106.817      -15.512       15.764       23.773       11.263      248.516      565.173      126.854        0.643        0.047      108.029       10.626        0.010      344.597       21.529      856.565
07/05/2013  04:55:00      -22.670      122.869      -17.095       17.965       22.234       10.765      322.739      494.365      115.890        0.842        0.047      124.942        8.400        0.005      344.725       21.746      856.540
07/05/2013  04:56:00      -27.950        3.572       -4.234       23.654       65.606       16.830      559.503     4304.212      283.256        0.298        0.257       28.177       17.558        0.388      344.629       21.583      856.552
07/05/2013  04:57:00        7.844      -29.199        1.822       18.383       19.488       17.077      337.941      379.801      291.634        0.096        0.050       30.234        7.986        0.070      344.501       21.364      856.596
07/05/2013  04:58:00      -44.796      -22.017        2.971       48.272       18.712       17.306     2330.154      350.145      299.496        0.274        0.149       49.914       11.614        0.054      344.534       21.422      856.613
07/05/2013  04:59:00      -53.357      -14.847       -3.856       22.393       12.526       13.037      501.446      156.899      169.966        0.196        0.041       55.384        6.323        0.013      344.461       21.296      856.609
07/05/2013  05:00:00      -41.473      -17.480       -4.345       17.712       16.667        8.722      313.706      277.794       76.072        0.136        0.033       45.006        4.183        0.009      344.433       21.250      856.610
07/05/2013  05:01:00      -75.121      -27.811        0.147       18.845       15.929       12.605      355.143      253.747      158.890        0.359        0.038       80.104       10.987        0.019      344.408       21.205      856.608
07/05/2013  05:02:00      -98.634        7.921       -9.048       19.046       33.224       12.965      362.752     1103.817      168.091        0.575        0.082       98.951        8.320        0.007      344.354       21.113      856.593
07/05/2013  05:03:00     -113.243       32.821       -6.782       22.831       14.968       11.315      521.263      224.054      128.025        0.741        0.044      117.903        9.936        0.007      344.474       21.318      856.575
07/05/2013  05:04:00     -154.938       -6.628      -15.238       35.809       26.263       19.106     1282.304      689.727      365.026        1.331        0.117      155.080        7.475        0.002      344.325       21.062      856.584
07/05/2013  05:05:00     -132.894       23.542      -13.888       53.419       39.504       21.234     2853.610     1560.557      450.875        1.164        0.243      134.963       22.543        0.028      344.156       20.774      856.609
07/05/2013  05:06:00     -153.008       31.438      -18.551       34.745       26.946       17.690     1207.209      726.084      312.944        1.349        0.112      156.205       13.128        0.007      344.141       20.750      856.630
07/05/2013  05:07:00      -49.800        4.207      -12.135       40.976       33.726       17.117     1679.005     1137.451      293.003        0.288        0.155       49.977       14.918        0.089      344.152       20.769      856.617
07/05/2013  05:08:00      -28.633       11.692       -2.535       22.142       21.881       15.867      490.263      478.793      251.763        0.109        0.061       30.928       15.724        0.258      344.291       21.006      856.601
07/05/2013  05:09:00      -28.370        7.287      -11.599       13.154       18.337        8.670      173.025      336.248       75.172        0.079        0.029       29.290        8.196        0.078      344.406       21.202      856.615
07/05/2013  05:10:00       -0.893      -17.317       -2.541       14.159       14.493       12.804      200.489      210.046      163.950        0.044        0.029       17.340        4.328        0.062      344.365       21.131      856.648
07/05/2013  05:11:00      -63.574      -40.292        5.097       35.728       19.703       17.408     1276.471      388.194      303.045        0.383        0.098       75.267       18.387        0.060      344.175       20.807      856.683
07/05/2013  05:12:00      -99.472      -26.025       -9.104       26.295       24.432       15.315      691.402      596.933      234.551        0.609        0.076      102.820       13.176        0.016      344.069       20.627      856.689
07/05/2013  05:13:00     -119.371        6.602      -12.975       20.725       19.845       16.107      429.510      393.826      259.439        0.777        0.054      119.554       12.824        0.012      343.952       20.426      856.673
07/05/2013  05:14:00      -73.857       31.529      -10.232       42.900       26.777       24.090     1840.423      717.025      580.338        0.485        0.157       80.305       14.375        0.032      344.012       20.529      856.638
07/05/2013  05:15:00     -102.435      126.022      -21.564       30.234       39.790       20.659      914.073     1583.242      426.809        1.488        0.146      162.402       17.096        0.011      344.501       21.365      856.602
07/05/2013  05:16:00      -40.249      115.131      -15.809       28.455       26.339       15.132      809.693      693.761      228.986        0.843        0.087      121.963        9.832        0.006      344.494       21.355      856.576
07/05/2013  05:17:00      -16.837       88.385      -11.466       19.417       44.902       10.935      377.036     2016.210      119.579        0.537        0.126       89.974       14.825        0.027      344.250       20.936      856.595
07/05/2013  05:18:00        5.980       27.556       -4.828       19.285       15.005        7.216      371.926      225.154       52.073        0.073        0.032       28.198        2.174        0.006      344.319       21.055      856.621
07/05/2013  05:19:00       15.168       29.663       -1.758       14.241       16.168       20.372      202.802      261.400      415.010        0.100        0.044       33.317       10.106        0.092      344.392       21.179      856.641
07/05/2013  05:20:00       -1.505        5.793        7.388        9.154       13.249       13.167       83.792      175.528      173.383        0.026        0.022        5.986        8.463        1.999      344.272       20.972      856.656
07/05/2013  05:21:00      -16.273       23.894      -11.506       12.670        9.578        7.458      160.529       91.733       55.620        0.064        0.015       28.909        4.918        0.029      344.582       21.504      856.649
07/05/2013  05:22:00      -37.152       18.868       -6.192       11.289        9.394        6.433      127.435       88.241       41.377        0.102        0.013       41.669        6.605        0.025      344.368       21.138      856.637
07/05/2013  05:23:00      -66.176       13.143      -10.874        8.454        9.083        6.497       71.466       82.509       42.211        0.243        0.010       67.468        2.675        0.002      344.291       21.003      856.636
07/05/2013  05:24:00      -73.923       -7.211      -12.499        8.041       13.008        7.421       64.655      169.210       55.078        0.298        0.014       74.274        4.724        0.004      344.274       20.975      856.632
07/05/2013  05:25:00      -76.705      -13.721       -9.981       11.950       17.591       10.649      142.800      309.459      113.401        0.337        0.028       77.922       10.242        0.017      344.360       21.124      856.646
07/05/2013  05:26:00      -87.518      -32.244      -12.915       18.956       15.813       13.119      359.312      250.051      172.116        0.482        0.039       93.269        8.345        0.008      344.237       20.914      856.679
07/05/2013  05:27:00     -106.413      -12.902       -9.963       32.614       25.195       17.504     1063.701      634.763      306.392        0.680        0.100      107.192       15.413        0.021      344.038       20.574      856.681
07/05/2013  05:28:00      -54.432        7.395       -6.500       33.954       30.156       20.341     1152.845      909.387      413.773        0.277        0.124       54.932       17.206        0.098      344.080       20.644      856.668
07/05/2013  05:29:00      -43.032       13.216       -7.913       24.758       23.760       17.057      612.934      564.560      290.941        0.178        0.073       45.016       14.555        0.105      344.231       20.903      856.650
07/05/2013  05:30:00      -61.283       16.942       -2.988       28.514       20.604       15.857      813.053      424.529      251.446        0.277        0.074       63.582       15.595        0.060      344.449       21.275      856.644
07/05/2013  05:31:00      -55.383       -2.772       -6.086       10.699       21.511       12.121      114.463      462.708      146.925        0.192        0.036       55.452        6.530        0.014      344.434       21.250      856.626
07/05/2013  05:32:00      -82.915      -10.797      -13.385       21.861       19.513       13.137      477.919      380.776      172.569        0.410        0.052       83.615       12.698        0.023      344.136       20.741      856.600
07/05/2013  05:33:00      -82.041        3.440      -20.607       37.070       29.783       21.095     1374.186      887.002      445.003        0.494        0.135       82.113       21.053        0.066      344.151       20.767      856.573
07/05/2013  05:34:00     -143.731       13.261      -21.861       43.817       29.074       21.485     1919.886      845.325      461.600        1.227        0.161      144.341       12.929        0.008      344.218       20.880      856.586
07/05/2013  05:35:00     -105.365      -29.808       -8.882       38.558       27.375       13.206     1486.752      749.375      174.412        0.724        0.121      109.500       12.383        0.013      344.019       20.540      856.646
07/05/2013  05:36:00       -5.462      -34.393       10.087       30.761       27.129       18.712      946.213      735.970      350.130        0.167        0.102       34.824       19.224        0.305      344.123       20.716      856.678
07/05/2013  05:37:00      -76.372      -22.800       -9.203       36.000       29.328       14.380     1296.001      860.150      206.778        0.440        0.118       79.703       17.081        0.046      344.313       21.044      856.670
07/05/2013  05:38:00     -120.410      -26.754      -13.815       40.811       25.896       14.253     1665.509      670.596      203.158        0.897        0.127      123.347       16.477        0.018      344.288       21.001      856.659
07/05/2013  05:39:00      -76.212      -37.376        4.954       43.096       39.286       21.781     1857.294     1543.356      474.394        0.555        0.194       84.884       23.251        0.075      344.312       21.041      856.672
07/05/2013  05:40:00      -57.142       11.268       -0.154       23.297       23.231       11.906      542.755      539.664      141.762        0.231        0.061       58.243        8.021        0.019      344.321       21.058      856.681
07/05/2013  05:41:00      -62.417       12.843       -7.462       19.374       23.025       12.148      375.364      530.146      147.569        0.258        0.053       63.725        8.755        0.019      344.228       20.897      856.668
07/05/2013  05:42:00      -52.942      -29.569        7.877       25.351       15.480       15.598      642.692      239.621      243.283        0.243        0.056       60.640       16.337        0.073      344.209       20.866      856.657
07/05/2013  05:43:00      -32.152      -23.648        4.378       44.349       18.875       16.649     1966.853      356.265      277.183        0.211        0.130       39.912       17.673        0.196      344.183       20.822      856.659
07/05/2013  05:44:00      -28.977      -56.793        4.899       37.267       43.646       17.066     1388.828     1904.936      291.242        0.384        0.179       63.758       16.374        0.066      344.270       20.969      856.667
07/05/2013  05:45:00      -73.987      -93.169       -9.956       37.307       34.879       26.817     1391.777     1216.522      719.164        0.879        0.166      118.973       23.263        0.038      344.150       20.765      856.669
07/05/2013  05:46:00      -92.108      -71.554        0.086       69.181       59.358       29.335     4785.987     3523.366      860.535        1.139        0.458      116.636       38.716        0.110      344.089       20.660      856.667
07/05/2013  05:47:00     -148.717      -89.894       -5.898       48.007       39.489       26.067     2304.689     1559.405      679.476        1.739        0.227      173.775       23.819        0.019      344.123       20.719      856.644
07/05/2013  05:48:00     -182.359      -50.246       -4.094       62.825       39.029       30.850     3946.974     1523.242      951.692        2.111        0.321      189.155       31.079        0.027      344.083       20.648      856.630
07/05/2013  05:49:00     -231.938      -95.808      -10.437       38.206       46.998       28.572     1459.671     2208.769      816.343        3.378        0.224      250.948       19.911        0.006      344.052       20.590      856.630
07/05/2013  05:50:00     -260.143      -34.772       -9.138       71.403       53.422       37.733     5098.350     2853.947     1423.769        3.917        0.469      262.457       39.334        0.022      343.987       20.482      856.645
07/05/2013  05:51:00     -210.390      -63.123       -2.277       69.817       78.340       31.920     4874.345     6137.152     1018.887        3.014        0.602      219.655       29.418        0.018      343.968       20.451      856.648
07/05/2013  05:52:00      -72.516       -7.890        5.009       76.634       41.696       25.977     5872.712     1738.542      674.783        0.681        0.414       72.944       26.981        0.137      343.943       20.410      856.616
07/05/2013  05:53:00      -68.922       51.383      -12.874       34.599       39.907       21.184     1197.118     1592.583      448.781        0.540        0.162       85.968       22.967        0.071      343.967       20.451      856.584
07/05/2013  05:54:00     -108.819       94.186      -18.958       33.516       38.543       29.376     1123.292     1485.527      862.939        1.227        0.174      143.919       24.367        0.029      344.114       20.704      856.573
07/05/2013  05:55:00     -103.324       68.443      -17.402       25.935       27.886       22.048      672.648      777.632      486.119        0.880        0.097      123.937       20.303        0.027      344.064       20.617      856.572
07/05/2013  05:56:00     -119.926       49.183      -11.294       44.599       27.184       26.899     1989.048      738.970      723.581        1.019        0.173      129.619       25.104        0.038      344.159       20.780      856.576
07/05/2013  05:57:00     -150.664      -35.784       -5.195       52.018       50.854       26.493     2705.899     2586.121      701.898        1.500        0.300      154.856       18.077        0.014      344.076       20.638      856.609
07/05/2013  05:58:00     -182.299      -85.892       -6.861       77.037       57.138       37.785     5934.737     3264.758     1427.710        2.564        0.531      201.521       33.758        0.028      343.943       20.408      856.645
07/05/2013  05:59:00      -99.384      -21.464        3.281       78.229       43.226       22.787     6119.700     1868.521      519.231        0.943        0.425      101.675       20.453        0.040      343.827       20.214      856.649
07/05/2013  06:00:00      -49.747       21.398       -5.417       27.928       32.779       23.641      779.956     1074.438      558.900        0.269        0.121       54.154       13.942        0.066      343.922       20.377      856.603
07/05/2013  06:01:00      -89.833       56.998       -8.754       34.293       35.255       20.988     1176.036     1242.899      440.488        0.713        0.143      106.389       16.360        0.024      344.060       20.611      856.561
07/05/2013  06:02:00      -74.335       47.019       -9.849       24.436       28.168       18.083      597.119      793.428      326.990        0.478        0.086       87.957       16.632        0.036      344.189       20.831      856.540
07/05/2013  06:03:00      -22.558      -19.695       -2.146       28.865       25.160       12.384      833.215      633.017      153.374        0.126        0.081       29.946        9.543        0.102      344.233       20.906      856.547
07/05/2013  06:04:00      -38.979      -84.794       12.442       81.146       61.664       34.967     6584.697     3802.462     1222.711        1.023        0.580       93.324       43.055        0.213      344.127       20.725      856.585
07/05/2013  06:05:00      -83.396     -119.685       -6.828       48.729       39.345       23.324     2374.516     1548.059      544.019        1.290        0.223      145.875       15.918        0.012      344.032       20.564      856.619
07/05/2013  06:06:00      -22.033      -55.911        6.810       41.494       33.041       27.231     1721.724     1091.678      741.547        0.361        0.178       60.096        7.554        0.016      344.093       20.667      856.613
07/05/2013  06:07:00      -30.988      -22.463       -6.872       18.837       18.983       15.394      354.838      360.346      236.970        0.123        0.048       38.274        3.625        0.009      344.214       20.874      856.594
07/05/2013  06:08:00      -42.783       39.193       -5.060       14.693       26.602       11.990      215.879      707.663      143.763        0.223        0.053       58.021        4.223        0.005      344.062       20.617      856.573
07/05/2013  06:09:00      -22.574       91.436      -11.793       14.453       26.805       13.150      208.875      718.534      172.927        0.505        0.055       94.181        7.205        0.006      344.107       20.690      856.568
07/05/2013  06:10:00      -43.094       60.823       -7.002       21.366       24.610       11.725      456.504      605.659      137.475        0.340        0.060       74.543       12.187        0.027      344.127       20.727      856.572
07/05/2013  06:11:00      -22.124       39.930        0.406       15.645       17.531       14.836      244.779      307.345      220.098        0.143        0.039       45.649       14.090        0.095      344.151       20.766      856.582
07/05/2013  06:12:00       18.864       45.997        3.191       18.132       23.209       13.357      328.754      538.678      178.403        0.176        0.052       49.715       11.735        0.056      344.096       20.674      856.608
07/05/2013  06:13:00       49.985       45.074       25.567       33.857       28.306       22.420     1146.328      801.249      502.679        0.382        0.123       67.307       18.366        0.074      344.047       20.589      856.634
07/05/2013  06:14:00       13.433      -60.667       20.360       55.501       88.257       43.269     3080.341     7789.348     1872.199        0.851        0.637       62.136       57.746        0.864      344.090       20.661      856.684
07/05/2013  06:15:00       58.774     -123.366       -9.453       52.459       50.349       45.208     2751.968     2534.995     2043.734        1.305        0.367      136.651       41.182        0.091      344.032       20.563      856.723
07/05/2013  06:16:00       33.101      -49.210       16.493       39.800       64.510       29.017     1584.016     4161.485      841.966        0.519        0.329       59.307       42.576        0.515      344.118       20.710      856.730
07/05/2013  06:17:00      -32.447        3.248       -7.072       16.273       19.739       18.133      264.801      389.644      328.793        0.105        0.049       32.609       11.987        0.135      344.110       20.697      856.696
07/05/2013  06:18:00       -0.247       -2.097        7.245       10.963        6.959        9.830      120.177       48.431       96.625        0.016        0.013        2.111        8.274       15.363      344.384       21.165      856.680
07/05/2013  06:19:00       25.427       20.102       16.277       21.552       21.836       10.951      464.484      476.801      119.932        0.119        0.053       32.413       10.677        0.108      344.214       20.875      856.683
07/05/2013  06:20:00       46.511       28.473       15.614       59.679       31.224       24.525     3561.597      974.936      601.491        0.418        0.257       54.534       21.047        0.149      344.185       20.824      856.669
07/05/2013  06:21:00      125.659       65.899       16.678       43.873       24.290       25.111     1924.833      590.010      630.570        1.178        0.157      141.890        8.092        0.003      344.087       20.657      856.646
07/05/2013  06:22:00       33.926       59.154        1.171       41.975       25.562       23.909     1761.879      653.441      571.629        0.382        0.149       68.192       20.617        0.091      344.110       20.697      856.622
07/05/2013  06:23:00      -47.498       96.136      -20.942       19.378       28.893       12.544      375.502      834.818      157.357        0.665        0.068      107.230       11.208        0.011      344.161       20.784      856.645
07/05/2013  06:24:00      -57.324       42.099       -6.524       25.156       18.746       15.010      632.827      351.417      225.291        0.316        0.060       71.122       13.788        0.038      344.093       20.667      856.685
07/05/2013  06:25:00       11.456       35.278        5.112       24.436       17.099       18.186      597.116      292.378      330.728        0.131        0.061       37.091       12.962        0.122      344.290       21.005      856.698
07/05/2013  06:26:00       80.772       36.674       -3.695       25.591       15.308       19.348      654.923      234.349      374.364        0.457        0.063       88.708        8.870        0.010      344.276       20.979      856.696
07/05/2013  06:27:00       73.679       46.698       11.049       14.618       16.301       15.060      213.685      265.715      226.790        0.422        0.035       87.231        9.545        0.012      344.156       20.776      856.693
07/05/2013  06:28:00       64.217       35.600        5.240       16.906       17.240       10.966      285.803      297.224      120.254        0.306        0.035       73.425        6.529        0.008      344.173       20.803      856.684
07/05/2013  06:29:00       13.121        1.491       15.156       22.879       10.427       13.462      523.443      108.730      181.223        0.061        0.041       13.206       14.916        1.276      344.620       21.568      856.696
07/05/2013  06:30:00      -15.894      -15.095       12.201       18.334       19.053       14.325      336.125      363.032      205.195        0.077        0.045       21.920       13.289        0.368      344.570       21.483      856.732
07/05/2013  06:31:00      -28.338      -17.083        2.664       31.750       19.539       17.292     1008.074      381.780      299.016        0.140        0.084       33.089       12.202        0.136      344.445       21.268      856.752
07/05/2013  06:32:00       -3.907      -12.612       12.992       17.578       16.396       13.463      308.990      268.842      181.247        0.055        0.038       13.203       10.860        0.677      344.624       21.575      856.773
07/05/2013  06:33:00       31.033       34.976       27.602       26.848       20.276       12.261      720.796      411.110      150.343        0.211        0.064       46.759        5.742        0.015      344.603       21.537      856.753
07/05/2013  06:34:00      106.607       64.287       16.957       28.251       15.808       14.729      798.094      249.898      216.935        0.852        0.063      124.491       10.131        0.007      344.513       21.386      856.728
07/05/2013  06:35:00      119.840       66.377       20.769       45.248       33.113       33.633     2047.356     1096.504     1131.160        1.174        0.214      136.995       19.966        0.021      344.536       21.424      856.712
07/05/2013  06:36:00       80.962       50.125        3.609       39.015       29.003       29.790     1522.186      841.166      887.442        0.616        0.163       95.222        7.202        0.006      344.428       21.239      856.725
07/05/2013  06:37:00       17.737        6.772        4.836       29.985       24.534       18.857      899.113      601.925      355.577        0.112        0.093       18.986       15.207        0.642      344.580       21.501      856.728
07/05/2013  06:38:00        9.647       69.459       -8.972       12.107       15.562        8.270      146.575      242.184       68.394        0.273        0.023       70.126        3.928        0.003      344.418       21.223      856.737
07/05/2013  06:39:00       14.094       78.185       -2.678       22.591       34.444       26.811      510.339     1186.401      718.834        0.437        0.121       79.445       25.248        0.101      344.598       21.531      856.729
07/05/2013  06:40:00       -2.970      112.218      -10.774       10.505       18.835       13.202      110.350      354.744      174.293        0.668        0.032      112.257       11.376        0.010      344.295       21.011      856.722
07/05/2013  06:41:00       14.028      107.641       -7.882       20.225       18.393       13.695      409.037      338.302      187.558        0.639        0.047      108.551       11.039        0.010      344.347       21.102      856.741
07/05/2013  06:42:00       -9.700       72.764       -0.939       16.600       32.187       18.463      275.550     1036.009      340.892        0.352        0.083       73.407       19.758        0.072      344.489       21.343      856.765
07/05/2013  06:43:00      -31.469       46.349       -4.156       17.364       16.773       14.029      301.518      281.343      196.803        0.197        0.039       56.023        9.403        0.028      344.458       21.291      856.774
07/05/2013  06:44:00      -40.535       47.202       -8.592       12.960       15.201       10.688      167.953      231.062      114.232        0.223        0.026       62.219        7.000        0.013      344.423       21.231      856.771
07/05/2013  06:45:00      -49.307       41.900       -3.028       26.774       23.754       17.728      716.873      564.254      314.291        0.290        0.080       64.705       18.612        0.083      344.561       21.467      856.742
07/05/2013  06:46:00      -30.416       56.687        6.599       28.852       36.514       18.580      832.457     1333.264      345.203        0.335        0.126       64.331       20.388        0.100      344.933       22.103      856.725
07/05/2013  06:47:00      -21.536       47.572       -3.736       19.051       39.550       20.464      362.924     1564.166      418.779        0.254        0.117       52.220       17.575        0.113      344.806       21.885      856.728
07/05/2013  06:48:00      -46.681        4.520       -9.922       31.428       39.295       12.979      987.718     1544.098      168.460        0.250        0.135       46.899        9.575        0.042      344.718       21.736      856.750
07/05/2013  06:49:00       17.451      -57.139       -8.729       15.045       17.360       15.137      226.350      301.368      229.131        0.220        0.038       59.744       10.917        0.033      344.770       21.822      856.778
07/05/2013  06:50:00      -29.912      -12.431        1.234       39.469       15.323       13.600     1557.820      234.803      184.961        0.151        0.099       32.393       10.820        0.112      344.950       22.131      856.789
07/05/2013  06:51:00      -47.077        3.958       -2.302       16.386       10.561        8.026      268.517      111.529       64.418        0.134        0.022       47.243        5.535        0.014      344.785       21.849      856.794
07/05/2013  06:52:00      -26.163       -4.257        1.054       14.935       12.242        7.703      223.039      149.875       59.335        0.057        0.022       26.507        5.423        0.042      344.857       21.974      856.793
07/05/2013  06:53:00      -36.630        2.629        0.114       12.905        9.455        6.556      166.532       89.398       42.984        0.082        0.015       36.724        3.661        0.010      344.795       21.867      856.800
07/05/2013  06:54:00      -47.715      -18.144       -5.627       10.487       12.982        6.105      109.982      168.524       37.275        0.148        0.016       51.048        6.045        0.014      344.844       21.953      856.810
07/05/2013  06:55:00      -39.343      -24.889       -2.730       24.842       15.898       12.889      617.149      252.742      166.122        0.161        0.052       46.555        7.564        0.026      344.897       22.041      856.835
07/05/2013  06:56:00      -53.643      -52.099       -1.634       28.130       25.961       13.686      791.300      673.961      187.314        0.362        0.083       74.779       11.156        0.022      344.869       21.994      856.850
07/05/2013  06:57:00      -48.114      -40.008       -3.400       22.214       16.586       18.212      493.447      275.110      331.692        0.251        0.055       62.574       13.532        0.047      344.937       22.110      856.854
07/05/2013  06:58:00      -41.623       -1.052        0.269       18.360       20.855       13.686      337.082      434.951      187.306        0.135        0.048       41.636       12.386        0.089      344.956       22.144      856.858
07/05/2013  06:59:00      -10.559        5.855        7.403       10.236       11.900       12.236      104.767      141.616      149.729        0.030        0.020       12.074        5.851        0.235      345.339       22.801      856.845
07/05/2013  07:00:00       -5.921       -2.776       16.395        7.883        5.760        7.199       62.144       33.180       51.827        0.023        0.007        6.539        2.678        0.168      345.743       23.492      856.851
07/05/2013  07:01:00      -30.101        8.497        0.055       10.499        8.594        9.769      110.224       73.860       95.427        0.063        0.014       31.277        4.855        0.024      345.066       22.330      856.875
07/05/2013  07:02:00      -67.503      -32.815       -3.185       25.442       16.809       13.034      647.270      282.529      169.887        0.337        0.055       75.056        8.202        0.012      344.951       22.135      856.896
07/05/2013  07:03:00      -81.492      -31.024       -6.492       27.423       27.709       15.003      752.048      767.773      225.094        0.469        0.087       87.197       11.949        0.019      344.897       22.041      856.894
07/05/2013  07:04:00      -31.884        3.270        5.766       21.471       15.453       11.980      460.984      238.803      143.532        0.095        0.042       32.051       10.380        0.105      345.049       22.303      856.868
07/05/2013  07:05:00      -20.942        2.088       11.653       16.722        7.237        9.809      279.630       52.372       96.209        0.050        0.021       21.046       11.312        0.289      345.212       22.581      856.861
07/05/2013  07:06:00        7.732       10.591       15.896       24.022       15.993       12.230      577.076      255.770      149.565        0.070        0.049       13.113       12.598        0.923      345.330       22.783      856.879
07/05/2013  07:07:00      -47.413        3.804        6.001       13.373       17.359       10.595      178.825      301.332      112.254        0.145        0.030       47.565        9.214        0.038      345.102       22.393      856.905
07/05/2013  07:08:00      -54.469       -7.444       -0.364       13.264       13.109        7.936      175.930      171.852       62.984        0.172        0.021       54.975        3.318        0.004      345.097       22.386      856.919
07/05/2013  07:09:00      -41.186       16.446        1.715       12.852       13.693        7.602      165.162      187.495       57.788        0.119        0.021       44.348        3.654        0.007      345.101       22.391      856.920
07/05/2013  07:10:00       -6.689        5.867       13.132        8.880       13.048       15.225       78.859      170.242      231.790        0.037        0.024        8.898        9.304        1.093      345.937       23.825      856.915
07/05/2013  07:11:00        0.977        4.096       23.073        9.745        8.680        8.860       94.971       75.343       78.505        0.040        0.012        4.211        4.330        1.057      345.983       23.903      856.911
07/05/2013  07:12:00       38.490       50.890       37.301       30.840       27.766       15.956      951.099      770.963      254.596        0.372        0.099       63.807        9.510        0.022      345.378       22.867      856.897
07/05/2013  07:13:00       73.970       72.342       39.546       23.651       17.860       21.334      559.391      318.982      455.131        0.680        0.067      103.465       12.917        0.016      345.208       22.575      856.889
07/05/2013  07:14:00       22.492       33.369       42.603       22.296       21.187       18.967      497.127      448.902      359.729        0.237        0.065       40.241       11.572        0.083      345.511       23.094      856.896
07/05/2013  07:15:00       -9.588      -56.737        8.100       28.698       46.561       22.917      823.589     2167.926      525.211        0.345        0.176       57.541       26.677        0.215      345.204       22.569      856.930
07/05/2013  07:16:00      -47.315      -36.619        2.302       26.204       37.983       20.346      686.654     1442.705      413.964        0.306        0.127       59.830       16.661        0.078      345.199       22.557      856.957
07/05/2013  07:17:00      -26.036       -5.721        3.203       18.750       16.428       16.237      351.560      269.878      263.630        0.080        0.044       26.658       10.181        0.146      345.529       23.124      856.977
07/05/2013  07:18:00      -30.590       -1.814        4.626       18.519       10.193       10.022      342.949      103.906      100.440        0.075        0.027       30.644        5.923        0.037      345.429       22.952      856.990
07/05/2013  07:19:00      -13.494       -3.587        5.248       15.059       13.983       15.972      226.764      195.523      255.098        0.045        0.034       13.962       10.376        0.552      345.742       23.488      856.991
07/05/2013  07:20:00       32.498       40.695       57.278       39.777       31.612       23.700     1582.172      999.323      561.700        0.457        0.157       52.078       13.915        0.071      345.660       23.349      856.968
07/05/2013  07:21:00       47.559       62.443       28.502       36.592       34.289       23.232     1338.999     1175.724      539.705        0.501        0.153       78.492       15.960        0.041      345.453       22.994      856.942
07/05/2013  07:22:00       25.603       35.510       29.970       59.967       58.032       40.335     3596.001     3367.717     1626.929        0.570        0.430       43.777       32.482        0.551      345.636       23.307      856.920
07/05/2013  07:23:00       58.890       61.624       62.374       47.604       47.631       27.760     2266.178     2268.759      770.616        0.823        0.265       85.238       18.391        0.047      345.618       23.277      856.913
07/05/2013  07:24:00       81.410       65.979       49.621       40.642       32.058       26.921     1651.776     1027.737      724.767        0.842        0.170      104.789       11.366        0.012      345.429       22.954      856.923
07/05/2013  07:25:00       70.419       58.685       34.581       22.713       17.345       20.064      515.896      300.841      402.571        0.541        0.061       91.667        5.602        0.004      345.333       22.788      856.922
07/05/2013  07:26:00       36.372       35.676       36.341       28.243       22.644       16.411      797.693      512.746      269.327        0.275        0.079       50.948       13.926        0.075      345.693       23.407      856.928
07/05/2013  07:27:00       -1.995      -14.460       35.856       27.351       53.480       18.236      748.081     2860.100      332.536        0.272        0.197       14.597       19.925        1.863      345.729       23.468      856.937
07/05/2013  07:28:00        8.208      -19.621       28.691       16.797       29.715       21.707      282.156      882.990      471.188        0.146        0.082       21.268       14.359        0.456      345.984       23.906      856.949
07/05/2013  07:29:00       12.707       -8.401       15.480       18.268       33.171       19.525      333.709     1100.301      381.217        0.114        0.091       15.233       13.937        0.837      346.062       24.040      856.955
07/05/2013  07:30:00        5.977      -16.528       14.398       13.038       22.167       14.848      169.980      491.368      220.462        0.070        0.044       17.576       14.277        0.660      346.167       24.220      856.954
07/05/2013  07:31:00      -32.209       -4.947        5.483       15.181       18.374       11.247      230.475      337.614      126.490        0.089        0.035       32.587       10.403        0.102      345.555       23.169      856.944
07/05/2013  07:32:00      -46.905      -16.866        2.928       27.201       16.570       11.884      739.882      274.561      141.237        0.182        0.058       49.845        6.698        0.018      345.518       23.105      856.946
07/05/2013  07:33:00      -35.516      -19.984        4.054       21.706       19.277       13.706      471.157      371.602      187.854        0.135        0.052       40.752       10.265        0.063      345.669       23.364      856.946
07/05/2013  07:34:00      -30.895      -44.710        2.117       24.238       18.605       13.391      587.504      346.152      179.332        0.204        0.056       54.346       12.824        0.056      345.713       23.438      856.954
07/05/2013  07:35:00      -29.481      -77.070       -1.773       20.596       14.991       13.782      424.188      224.728      189.942        0.383        0.042       82.516        7.237        0.008      345.596       23.240      856.966
07/05/2013  07:36:00      -25.863      -33.041       -4.741       12.879       19.392       11.060      165.875      376.038      122.328        0.122        0.033       41.959        5.171        0.015      345.703       23.423      856.955
07/05/2013  07:37:00      -23.839       -4.437       13.471       13.868       18.801       15.628      192.326      353.470      244.237        0.078        0.040       24.249       13.926        0.330      346.211       24.298      856.946
07/05/2013  07:38:00      -17.091       -6.019       30.574       13.317       19.030       12.815      177.352      362.132      164.231        0.098        0.035       18.120        7.956        0.193      346.290       24.433      856.935
07/05/2013  07:39:00        8.621       -9.870       28.587       18.683       29.771       24.269      349.045      886.323      588.980        0.141        0.091       13.105       22.289        2.893      346.451       24.708      856.945
07/05/2013  07:40:00        6.051      -44.651       17.612       18.235       30.148       21.605      332.524      908.918      466.792        0.202        0.085       45.059       14.649        0.106      346.190       24.258      856.949
07/05/2013  07:41:00      -22.013       -8.594       20.309       13.324       16.565       10.282      177.524      274.392      105.712        0.076        0.028       23.631        6.047        0.065      346.019       23.965      856.942
07/05/2013  07:42:00      -25.336       -7.524        2.121       12.656        9.363        9.904      160.171       87.661       98.098        0.052        0.017       26.430        4.928        0.035      345.816       23.617      856.934
07/05/2013  07:43:00      -29.819        0.939       -0.004        9.263       10.027        8.307       85.801      100.535       68.999        0.057        0.013       29.833        5.467        0.034      345.746       23.499      856.932
07/05/2013  07:44:00      -27.242      -29.318        0.880       12.054       17.216        7.836      145.300      296.377       61.405        0.105        0.025       40.021        8.390        0.044      345.756       23.514      856.957
07/05/2013  07:45:00      -10.719      -20.569        3.859       12.066       11.568       15.015      145.591      133.807      225.450        0.053        0.025       23.194        7.045        0.092      346.169       24.224      856.995
07/05/2013  07:46:00      -24.037      -18.577       13.318       26.491       18.202       16.911      701.786      331.314      285.987        0.121        0.066       30.379       10.330        0.116      346.378       24.583      857.037
07/05/2013  07:47:00      -54.866      -25.482       16.860       27.981       35.868       21.095      782.929     1286.520      444.981        0.323        0.126       60.495       22.201        0.135      346.096       24.098      857.060
07/05/2013  07:48:00      -56.931      -17.998        6.652       47.445       38.478       29.678     2251.043     1480.571      880.758        0.411        0.231       59.708       24.309        0.166      346.056       24.031      857.067
07/05/2013  07:49:00      -36.909       -8.222        1.289       54.346       41.621       29.737     2953.451     1732.292      884.313        0.350        0.279       37.814       27.075        0.513      346.145       24.181      857.071
07/05/2013  07:50:00      -18.135        4.532       23.374       21.223       30.037       17.165      450.402      902.244      294.649        0.127        0.082       18.693        9.546        0.261      346.348       24.531      857.059
07/05/2013  07:51:00       29.438       10.125       47.782       46.641       25.813       25.635     2175.344      666.290      657.138        0.337        0.175       31.131       22.202        0.509      346.691       25.121      857.060
07/05/2013  07:52:00       31.852      -25.717       14.139       48.910       53.606       45.609     2392.201     2873.626     2080.171        0.461        0.367       40.938       48.111        1.381      346.382       24.591      857.058
07/05/2013  07:53:00        4.115      -13.393       31.375       25.952       38.715       26.878      673.511     1498.878      722.453        0.204        0.145       14.011       13.539        0.934      346.466       24.734      857.060
07/05/2013  07:54:00       14.663      -60.341       -3.912       53.183       40.089       34.097     2828.439     1607.167     1162.607        0.473        0.280       62.098       26.127        0.177      346.355       24.545      857.079
07/05/2013  07:55:00       15.781      -33.769       16.497       46.196       73.945       38.259     2134.036     5467.826     1463.731        0.536        0.453       37.274       44.443        1.422      346.338       24.515      857.083
07/05/2013  07:56:00        5.498       18.981       42.996       29.876       29.908       24.334      892.546      894.459      592.159        0.231        0.119       19.761       15.451        0.611      346.824       25.351      857.081
07/05/2013  07:57:00       34.279      -18.928       28.552       26.698       34.608       28.808      712.771     1197.726      829.904        0.254        0.137       39.157       26.662        0.464      346.700       25.137      857.069
07/05/2013  07:58:00       13.104       -7.127       41.972       20.314       38.459       21.466      412.649     1479.083      460.770        0.217        0.118       14.917       21.796        2.135      346.734       25.194      857.065
07/05/2013  07:59:00       19.763       41.774       36.396       34.918       24.946       20.279     1219.245      622.286      411.232        0.286        0.113       46.213       13.470        0.085      346.454       24.714      857.061
07/05/2013  08:00:00        3.909       19.890       51.858       20.519       39.080       18.317      421.032     1527.210      335.523        0.269        0.114       20.271       13.965        0.475      346.924       25.521      857.051
07/05/2013  08:01:00       -3.906      -22.760       37.123       22.326       39.764       21.610      498.460     1581.190      466.982        0.223        0.127       23.092       14.307        0.384      347.008       25.666      857.054
07/05/2013  08:02:00       -6.664       -5.785       43.320       24.233       32.325       24.907      587.228     1044.918      620.381        0.210        0.113        8.825       19.870        5.070      347.218       26.029      857.044
07/05/2013  08:03:00       14.482      -14.079       43.735       23.348       37.735       22.191      545.138     1423.953      492.421        0.239        0.123       20.198       15.631        0.599      346.887       25.457      857.052
07/05/2013  08:04:00       71.093       57.679       42.580       54.840       32.164       35.116     3007.473     1034.546     1233.122        0.773        0.264       91.549       33.256        0.132      346.458       24.721      857.049
07/05/2013  08:05:00      101.980       84.091       17.727       29.332       19.943       23.634      860.392      397.741      558.584        0.980        0.091      132.179       14.856        0.013      346.195       24.268      857.059
07/05/2013  08:06:00        8.938       31.856       22.417       30.533       51.179       25.648      932.290     2619.333      657.802        0.290        0.210       33.086       15.026        0.206      346.444       24.698      857.072
07/05/2013  08:07:00       11.875      -60.920       11.563       30.817       43.604       33.917      949.663     1901.327     1150.361        0.399        0.200       62.067       25.470        0.168      346.555       24.886      857.072
07/05/2013  08:08:00       14.907      -24.585       26.253       23.317       27.970       23.271      543.687      782.298      541.540        0.169        0.093       28.751       17.110        0.354      346.650       25.051      857.073
07/05/2013  08:09:00       34.864      -30.869       18.095       33.116       34.300       28.694     1096.688     1176.492      823.343        0.280        0.155       46.566       27.422        0.347      346.659       25.067      857.068
07/05/2013  08:10:00       38.154       -7.709       22.024       30.594       38.250       29.596      936.019     1463.098      875.916        0.264        0.164       38.925       28.886        0.551      346.850       25.395      857.067
07/05/2013  08:11:00       74.914       62.827       31.168       35.029       31.494       27.501     1227.038      991.863      756.310        0.675        0.149       97.772       14.915        0.023      346.492       24.779      857.060
07/05/2013  08:12:00       53.467       76.967       20.130       35.815       18.192       24.204     1282.716      330.962      585.829        0.569        0.110       93.716       19.315        0.042      346.349       24.533      857.060
07/05/2013  08:13:00      -26.519      -13.704       12.816       20.210       23.470       17.863      408.454      550.846      319.076        0.117        0.064       29.850       14.161        0.225      346.562       24.899      857.067
07/05/2013  08:14:00      -19.388        1.914       17.045       22.085       19.373       17.451      487.739      375.307      304.529        0.092        0.058       19.482       11.028        0.320      346.889       25.462      857.064
07/05/2013  08:15:00       30.692       41.761       30.613       42.097       19.384       19.858     1772.158      375.751      394.344        0.308        0.127       51.827       10.750        0.043      346.705       25.145      857.056
07/05/2013  08:16:00       39.318       44.419       27.301       36.293       28.615       38.977     1317.147      818.836     1519.242        0.396        0.183       59.321       25.215        0.181      346.911       25.500      857.042
07/05/2013  08:17:00       45.252       42.875        3.845       15.191       19.263       24.259      230.755      371.076      588.506        0.255        0.060       62.338       17.732        0.081      346.386       24.597      857.040
07/05/2013  08:18:00       14.357       25.938        3.784       15.472       19.854       24.200      239.375      394.166      585.644        0.106        0.061       29.646       16.996        0.329      346.824       25.350      857.039
07/05/2013  08:19:00       24.746       12.539       19.543       33.353       17.028       17.187     1112.456      289.937      295.392        0.142        0.085       27.742       14.848        0.286      347.103       25.831      857.039
07/05/2013  08:20:00       30.494       29.798       12.911       31.580       26.650       28.996      997.282      710.230      840.755        0.227        0.127       42.636       20.017        0.220      347.329       26.221      857.024
07/05/2013  08:21:00       26.823       14.784       25.291       32.072       23.082       16.933     1028.635      532.800      286.740        0.171        0.092       30.627        9.153        0.089      347.535       26.576      857.015
07/05/2013  08:22:00       -5.636        2.916       22.492       28.420       39.700       22.552      807.699     1576.108      508.609        0.172        0.145        6.345       15.278        5.797      347.105       25.834      857.039
07/05/2013  08:23:00       -4.843      -33.840       15.061       20.211       28.211       19.883      408.477      795.882      395.346        0.150        0.080       34.185       16.485        0.233      347.236       26.059      857.052
07/05/2013  08:24:00       33.680       30.162       27.083       37.968       37.696       20.899     1441.538     1420.957      436.782        0.304        0.165       45.212       18.411        0.166      347.263       26.106      857.065
07/05/2013  08:25:00       35.580       44.911       -5.979       25.948       18.624       16.801      673.287      346.863      282.263        0.231        0.065       57.297        8.223        0.021      346.508       24.807      857.063
07/05/2013  08:26:00       36.449       95.597        0.914       36.716       32.576       31.136     1348.092     1061.182      969.448        0.692        0.169      102.310       24.245        0.056      346.637       25.028      857.047
07/05/2013  08:27:00       44.425       51.883       10.182       44.100       36.770       27.544     1944.771     1352.009      758.673        0.441        0.203       68.304       18.501        0.073      347.092       25.811      857.028
07/05/2013  08:28:00       76.824       57.812        4.182       27.786       16.782       17.407      772.058      281.637      303.013        0.531        0.068       96.146        9.974        0.011      346.525       24.835      857.024
07/05/2013  08:29:00        4.566       34.152       -5.689       23.995       22.720       19.084      575.768      516.183      364.199        0.134        0.073       34.456       18.168        0.278      346.699       25.134      857.028
07/05/2013  08:30:00       -8.824       22.248        4.501       17.672       18.291       20.610      312.311      334.559      424.762        0.083        0.054       23.934       13.331        0.310      347.059       25.756      857.034
07/05/2013  08:31:00        6.765       25.611        9.873       40.114       17.658       28.099     1609.107      311.791      789.563        0.175        0.136       26.489       26.174        0.976      346.910       25.498      857.036
07/05/2013  08:32:00       50.889       37.154       25.115       35.229       24.383       19.799     1241.111      594.516      392.006        0.341        0.111       63.008       12.741        0.041      346.975       25.609      857.036
07/05/2013  08:33:00       38.751       44.119       37.947       26.116       22.787       23.465      682.067      519.238      550.606        0.332        0.088       58.721        9.577        0.027      347.081       25.793      857.047
07/05/2013  08:34:00       38.140       31.368       22.606       30.368       35.931       28.683      922.241     1291.052      822.716        0.299        0.152       49.382       13.765        0.078      347.378       26.304      857.044
07/05/2013  08:35:00       20.626       33.203       55.036       33.750       27.710       26.826     1139.079      767.860      719.622        0.359        0.131       39.088       21.603        0.305      347.206       26.009      857.041
07/05/2013  08:36:00       47.613       11.210       28.824       50.069       56.971       36.397     2506.918     3245.718     1324.749        0.515        0.354       48.915       36.208        0.548      346.900       25.480      857.040
07/05/2013  08:37:00       61.163       61.839       60.642       30.570       38.196       28.150      934.538     1458.925      792.414        0.721        0.159       86.977       24.067        0.077      346.860       25.410      857.034
07/05/2013  08:38:00       49.630       56.561       13.385       28.034       20.332       24.086      785.895      413.391      580.120        0.381        0.089       75.248       10.256        0.019      346.928       25.528      857.045
07/05/2013  08:39:00       22.860       28.058       25.379       28.410       22.133       17.511      807.106      489.891      306.651        0.178        0.080       36.192        9.410        0.068      347.369       26.288      857.047
07/05/2013  08:40:00        3.236        6.643       32.065       22.787       22.514       21.488      519.231      506.859      461.730        0.128        0.074        7.389       16.510        4.992      348.082       27.520      857.047
07/05/2013  08:41:00        2.468       32.077       33.557       36.307       41.773       26.843     1318.193     1745.010      720.556        0.297        0.189       32.172       11.227        0.122      347.767       26.975      857.046
07/05/2013  08:42:00       86.168       87.810       51.108       46.643       31.340       44.605     2175.584      982.195     1989.569        1.145        0.257      123.027       25.675        0.044      347.058       25.753      857.043
07/05/2013  08:43:00       29.742       46.166       24.729       26.501       25.882       30.146      702.321      669.885      908.787        0.295        0.114       54.917       18.972        0.119      347.234       26.057      857.045
07/05/2013  08:44:00       27.887       41.736        9.642       24.205       20.516       27.267      585.869      420.887      743.469        0.218        0.088       50.195       17.196        0.117      347.352       26.259      857.038
07/05/2013  08:45:00       90.370       58.974       17.770       45.236       33.867       27.110     2046.276     1146.960      734.945        0.794        0.196      107.911       12.916        0.014      347.323       26.210      857.029
07/05/2013  08:46:00      133.639       93.438       20.224       30.600       22.910       20.199      936.365      524.846      408.019        1.443        0.093      163.064       11.234        0.005      346.837       25.374      857.016
07/05/2013  08:47:00       83.819       62.921       16.101       42.478       29.930       28.268     1804.346      895.816      799.092        0.737        0.175      104.807       13.506        0.017      347.069       25.773      857.000
07/05/2013  08:48:00      110.142       77.831       19.161       26.876       35.788       33.424      722.301     1280.747     1117.144        1.084        0.156      134.866       18.217        0.018      347.054       25.746      856.997
07/05/2013  08:49:00       92.844       70.832       25.513       34.504       27.441       40.652     1190.535      753.027     1652.558        0.894        0.180      116.778       20.272        0.030      347.099       25.825      856.988
07/05/2013  08:50:00       39.783       44.059       40.473       52.350       46.433       34.744     2740.506     2156.032     1207.178        0.563        0.305       59.362       20.407        0.118      347.324       26.210      856.981
07/05/2013  08:51:00       38.380       44.596       24.071       29.988       33.389       26.169      899.299     1114.797      684.804        0.337        0.135       58.838       21.927        0.139      347.550       26.602      856.970
07/05/2013  08:52:00       73.721       60.240       40.174       32.410       37.705       32.856     1050.407     1421.640     1079.502        0.711        0.178       95.203       10.039        0.011      347.418       26.374      856.960
07/05/2013  08:53:00       98.846       79.802       24.005       42.862       32.140       39.259     1837.176     1032.953     1541.269        1.056        0.221      127.039       20.737        0.027      347.309       26.185      856.953
07/05/2013  08:54:00       93.465       52.870        9.703       57.560       47.222       32.469     3313.169     2229.873     1054.229        0.911        0.330      107.382       30.041        0.078      347.689       26.841      856.940
07/05/2013  08:55:00       92.026       62.479       34.476       49.802       40.620       33.740     2480.192     1649.973     1138.358        0.941        0.263      111.232       11.754        0.011      347.409       26.359      856.935
07/05/2013  08:56:00      146.657       68.553       36.508       55.571       43.959       44.026     3088.156     1932.367     1938.279        1.725        0.348      161.888       29.304        0.033      347.254       26.090      856.938
07/05/2013  08:57:00      132.059       72.788       27.906       42.758       35.098       32.118     1828.226     1231.844     1031.570        1.380        0.205      150.790       20.580        0.019      347.187       25.975      856.924
07/05/2013  08:58:00      126.550       81.338       14.432       39.246       30.774       23.984     1540.287      947.011      575.245        1.295        0.153      150.435       10.650        0.005      347.128       25.872      856.919
07/05/2013  08:59:00       93.011       57.147       11.477       47.868       36.936       34.638     2291.369     1364.276     1199.761        0.845        0.243      109.164       24.242        0.049      347.634       26.747      856.904
07/05/2013  09:00:00       90.536       47.747        6.183       53.844       31.582       36.594     2899.160      997.424     1339.128        0.787        0.262      102.354       26.802        0.069      347.690       26.843      856.908
07/05/2013  09:01:00       26.564       60.676       -0.866       40.962       40.231       31.707     1677.907     1618.510     1005.326        0.434        0.215       66.236       25.746        0.151      347.764       26.969      856.908
07/05/2013  09:02:00       34.334       26.536       18.697       39.619       35.642       33.402     1569.638     1270.338     1115.722        0.309        0.198       43.393       19.244        0.197      347.904       27.211      856.905
07/05/2013  09:03:00       88.687       63.075       18.247       82.022       37.918       45.526     6727.682     1437.807     2072.618        1.121        0.512      108.830       36.663        0.113      347.793       27.019      856.908
07/05/2013  09:04:00      121.626       75.689       27.373       73.624       69.293       43.668     5420.449     4801.553     1906.851        1.670        0.606      143.254       40.819        0.081      347.878       27.166      856.896
07/05/2013  09:05:00      168.294       95.117       16.921       64.085       40.045       40.316     4106.835     1603.585     1625.384        2.249        0.367      193.314       33.685        0.030      347.475       26.469      856.903
07/05/2013  09:06:00      132.829      101.808        5.698       49.257       38.099       37.815     2426.258     1451.516     1429.976        1.667        0.265      167.357       26.928        0.026      347.523       26.554      856.900
07/05/2013  09:07:00      132.706       96.244       34.796       36.067       31.855       31.179     1300.863     1014.754      972.144        1.569        0.164      163.932       15.211        0.009      347.612       26.708      856.898
07/05/2013  09:08:00       58.976       61.366       17.121       31.130       27.592       25.697      969.051      761.310      660.356        0.496        0.120       85.111       17.037        0.040      347.624       26.729      856.893
07/05/2013  09:09:00       14.023      -15.736       13.879       22.788       45.593       26.221      519.295     2078.724      687.515        0.196        0.164       21.077       17.492        0.689      347.665       26.798      856.879
07/05/2013  09:10:00       36.456      -54.022        4.361       38.138       48.063       35.710     1454.488     2310.066     1275.195        0.465        0.252       65.172       34.575        0.281      347.836       27.093      856.869
07/05/2013  09:11:00       39.361      -73.771       10.289       43.673       52.186       32.941     1907.373     2723.424     1085.098        0.641        0.286       83.615       31.825        0.145      347.647       26.769      856.874
07/05/2013  09:12:00       37.003      -20.959        7.689       40.868       39.302       29.730     1670.169     1544.639      883.850        0.298        0.205       42.526       19.189        0.204      347.997       27.373      856.872
07/05/2013  09:13:00       23.973       29.196       40.031       38.999       55.465       35.646     1520.936     3076.374     1270.621        0.445        0.293       37.777       35.335        0.875      347.920       27.239      856.882
07/05/2013  09:14:00       75.788       81.325       52.701       54.710       52.823       45.944     2993.146     2790.250     2110.837        1.151        0.395      111.165       12.119        0.012      347.936       27.268      856.867
07/05/2013  09:15:00       79.734       76.804       32.635       40.601       36.229       30.507     1648.422     1312.530      930.669        0.861        0.195      110.709       12.796        0.013      347.893       27.193      856.867
07/05/2013  09:16:00        4.170       45.089       48.073       23.155       39.276       28.519      536.170     1542.616      813.313        0.363        0.145       45.282       15.311        0.114      348.523       28.280      856.844
07/05/2013  09:17:00       29.000       27.978       27.769       34.517       40.309       27.729     1191.403     1624.846      768.895        0.299        0.179       40.296       16.400        0.166      348.631       28.468      856.822
07/05/2013  09:18:00      134.070      103.907       44.068       69.351       57.685       35.849     4809.527     3327.533     1285.164        2.007        0.471      169.621       38.452        0.051      348.083       27.519      856.790
07/05/2013  09:19:00      116.817       77.041       30.185       39.673       22.470       27.358     1573.927      504.911      748.481        1.166        0.141      139.934       18.293        0.017      347.731       26.912      856.779
07/05/2013  09:20:00       59.521       63.694        7.353       29.119       42.449       31.698      847.917     1801.887     1004.767        0.565        0.183       87.176       29.281        0.113      347.883       27.175      856.758
07/05/2013  09:21:00       74.308       57.105       12.760       46.309       37.153       36.993     2144.546     1380.340     1368.462        0.692        0.245       93.716       22.337        0.057      348.265       27.835      856.745
07/05/2013  09:22:00       37.954       49.764       -5.066       21.331       28.536       23.488      454.998      814.332      551.697        0.288        0.091       62.585       13.178        0.044      347.861       27.139      856.742
07/05/2013  09:23:00       25.291       22.381       10.551       20.400       20.059       23.962      416.161      402.352      574.198        0.132        0.070       33.772       12.434        0.136      348.035       27.437      856.743
07/05/2013  09:24:00      -11.149       10.136       19.981       51.991       69.907       24.829     2703.064     4887.016      616.473        0.441        0.410       15.068       21.970        2.126      348.212       27.743      856.728
07/05/2013  09:25:00       36.985       64.554       61.564       46.806       53.140       26.615     2190.808     2823.819      708.340        0.752        0.286       74.398       22.085        0.088      348.243       27.795      856.733
07/05/2013  09:26:00       68.385       82.721       70.087       44.420       44.884       33.158     1973.171     2014.532     1099.467        1.076        0.254      107.328       29.548        0.076      347.941       27.276      856.717
07/05/2013  09:27:00       54.129       71.227       53.060       39.188       27.301       41.769     1535.663      745.336     1744.665        0.742        0.201       89.461       22.797        0.065      347.864       27.143      856.711
07/05/2013  09:28:00       -9.790       24.938       -1.641       32.628       16.438       21.537     1064.569      270.220      463.850        0.126        0.090       26.791       18.797        0.492      348.096       27.542      856.695
07/05/2013  09:29:00      -51.342       13.269       -5.784       13.588       13.267       16.236      184.645      176.012      263.593        0.173        0.031       53.029        7.745        0.021      347.862       27.138      856.675
07/05/2013  09:30:00       -8.327      -21.523       -7.763       22.484       37.213       14.947      505.525     1384.806      223.399        0.135        0.106       23.078       12.475        0.292      348.014       27.402      856.675
07/05/2013  09:31:00       35.481      -90.098       -9.909       45.163       36.591       38.830     2039.663     1338.928     1507.755        0.718        0.244       96.832       24.922        0.066      347.715       26.885      856.664
07/05/2013  09:32:00       33.624      -32.853        9.785       36.619       52.786       36.120     1340.975     2786.352     1304.664        0.387        0.272       47.009       39.480        0.705      348.373       28.025      856.669
07/05/2013  09:33:00       -9.224      -28.646       13.495       16.467       15.349       17.463      271.162      235.605      304.960        0.095        0.041       30.094        5.732        0.036      348.125       27.593      856.650
07/05/2013  09:34:00       46.004     -100.349       -2.151       59.433       44.718       30.090     3532.306     1999.657      905.391        0.931        0.322      110.392       25.406        0.053      347.882       27.174      856.647
07/05/2013  09:35:00       54.840      -12.161       19.511       47.521       92.706       33.950     2258.222     8594.339     1152.603        0.777        0.600       56.172       29.680        0.279      348.339       27.962      856.631
07/05/2013  09:36:00       95.850       66.200       48.614       92.649       59.734       39.647     8583.857     3568.124     1571.904        1.483        0.686      116.489       44.375        0.145      348.400       28.067      856.634
07/05/2013  09:37:00      109.984       99.304       35.015       64.572       34.285       51.280     4169.486     1175.438     2629.612        1.558        0.399      148.182       34.532        0.054      347.978       27.339      856.631
07/05/2013  09:38:00       15.863        8.090       37.107       25.443       23.707       15.271      647.367      562.033      233.199        0.157        0.072       17.807        8.372        0.221      348.842       28.833      856.638
07/05/2013  09:39:00       20.656       19.020        9.073       43.713       31.410       23.066     1910.833      986.568      532.027        0.215        0.171       28.078       19.404        0.478      348.672       28.539      856.636
07/05/2013  09:40:00       46.639       70.827       13.319       36.515       32.738       37.309     1333.348     1071.791     1391.936        0.558        0.190       84.804       18.374        0.047      348.689       28.569      856.642
07/05/2013  09:41:00       -0.565       50.303        1.683       23.452       39.027       37.326      549.984     1523.108     1393.199        0.300        0.173       50.306       33.960        0.456      348.879       28.897      856.631
07/05/2013  09:42:00       33.531       38.813       14.772       24.461       33.620       30.967      598.329     1130.312      958.943        0.277        0.134       51.291       25.369        0.245      348.955       29.029      856.627
07/05/2013  09:43:00        6.626       45.389       15.024       21.952       44.044       24.225      481.903     1939.864      586.864        0.267        0.150       45.870       24.982        0.297      349.020       29.143      856.603
07/05/2013  09:44:00        3.315       27.488       31.251       21.719       25.336       21.120      471.707      641.907      446.058        0.165        0.078       27.688       18.549        0.449      349.331       29.681      856.589
07/05/2013  09:45:00       -0.401       27.024       17.507       18.282       32.342       21.937      334.223     1046.001      481.233        0.145        0.093       27.027       11.644        0.186      349.248       29.539      856.584
07/05/2013  09:46:00       -8.436      -20.409        9.106       25.573       26.620       18.945      654.001      708.612      358.908        0.115        0.086       22.084       12.574        0.324      348.776       28.718      856.569
07/05/2013  09:47:00      -24.362      -62.763      -12.633       36.344       24.895       16.502     1320.854      619.767      272.311        0.345        0.111       67.325       17.281        0.066      348.290       27.878      856.566
07/05/2013  09:48:00      -10.474       30.310       13.932       41.444       61.232       21.635     1717.604     3749.415      468.068        0.358        0.297       32.068       24.395        0.579      349.095       29.272      856.561
07/05/2013  09:49:00       -9.831      148.488       -4.320       31.519       42.717       31.345      993.456     1824.783      982.504        1.298        0.190      148.813       23.525        0.025      348.896       28.927      856.568
07/05/2013  09:50:00      -11.880      173.705       -7.216       36.442       42.301       34.041     1328.041     1789.373     1158.799        1.732        0.214      174.111       28.302        0.026      348.743       28.664      856.571
07/05/2013  09:51:00      -45.981      145.295       -3.562       28.373       39.009       30.764      805.046     1521.707      946.444        1.325        0.164      152.397       24.558        0.026      348.824       28.803      856.577
07/05/2013  09:52:00      -33.069      108.775       -0.889       24.472       41.436       28.484      598.885     1716.913      811.347        0.803        0.156      113.691       22.440        0.039      348.974       29.061      856.576
07/05/2013  09:53:00      -51.567      121.066       -4.105       29.118       36.164       28.844      847.831     1307.809      831.964        1.016        0.149      131.591       25.808        0.038      348.924       28.975      856.572
07/05/2013  09:54:00      -43.666       83.648      -15.568       38.226       54.986       26.839     1461.244     3023.460      720.345        0.717        0.260       94.360        9.551        0.010      348.712       28.610      856.571
07/05/2013  09:55:00      -75.755      105.004       -8.105       43.271       39.739       27.728     1872.387     1579.191      768.821        1.052        0.211      129.478       29.152        0.051      348.705       28.596      856.560
07/05/2013  09:56:00     -145.542        6.870      -13.465       24.954       28.715       18.004      622.727      824.565      324.136        1.159        0.089      145.704       10.943        0.006      348.318       27.926      856.552
07/05/2013  09:57:00     -143.637        2.352      -13.851       29.723       37.836       19.915      883.449     1431.564      396.613        1.177        0.136      143.656       10.962        0.006      348.291       27.880      856.553
07/05/2013  09:58:00     -163.264       -4.748      -17.708       35.077       22.764       16.779     1230.406      518.220      281.532        1.451        0.102      163.333       12.806        0.006      348.382       28.037      856.552
07/05/2013  09:59:00     -119.108      -51.207        3.028       48.521       35.211       21.568     2354.246     1239.805      465.199        1.044        0.203      129.649       16.302        0.016      348.632       28.470      856.552
07/05/2013  10:00:00      -50.978        8.800       15.247       48.301       36.492       25.622     2332.972     1331.645      656.487        0.361        0.216       51.732       28.011        0.293      349.323       29.668      856.547
07/05/2013  10:01:00       -3.953       34.078       26.351       55.286       33.441       27.437     3056.498     1118.322      752.775        0.340        0.246       34.306       25.078        0.534      349.347       29.709      856.540
07/05/2013  10:02:00       22.515       44.886       18.637       36.070       37.138       31.092     1301.054     1379.244      966.687        0.326        0.182       50.216       25.721        0.262      349.527       30.022      856.527
07/05/2013  10:03:00       29.951      120.136       -7.528       35.151       51.523       37.020     1235.603     2654.581     1370.447        1.032        0.263      123.813       25.518        0.042      349.166       29.395      856.523
07/05/2013  10:04:00       60.884       98.828        9.371       71.810       87.705       72.462     5156.605     7692.217     5250.751        1.583        0.905      116.077       61.850        0.284      349.126       29.324      856.508
07/05/2013  10:05:00      159.169      165.252       -4.890      105.417       94.738       69.328    11112.761     8975.380     4806.355        3.878        1.245      229.441       57.067        0.062      348.886       28.906      856.489
07/05/2013  10:06:00      157.052      118.548       72.837       62.212       54.743       54.074     3870.347     2996.769     2923.949        2.691        0.490      196.771       32.530        0.027      348.855       28.852      856.494
07/05/2013  10:07:00       75.467       61.630       82.555       68.609       48.092       49.539     4707.198     2312.871     2454.161        1.289        0.474       97.435       36.693        0.142      349.014       29.132      856.506
07/05/2013  10:08:00       61.113       77.457       87.280       61.395       70.509       49.722     3769.380     4971.577     2472.256        1.428        0.561       98.663       33.040        0.112      348.711       28.606      856.505
07/05/2013  10:09:00      144.961      110.078       50.495       47.455       51.716       53.249     2251.968     2674.591     2835.420        2.172        0.388      182.019       37.005        0.041      348.833       28.816      856.513
07/05/2013  10:10:00       76.876        7.015       15.766       63.911       89.423       30.439     4084.578     7996.465      926.520        0.961        0.650       77.195       20.805        0.073      348.861       28.867      856.503
07/05/2013  10:11:00       45.163      -35.765       54.913       54.356       69.767       51.393     2954.577     4867.390     2641.220        0.840        0.523       57.610       33.128        0.331      349.356       29.723      856.485
07/05/2013  10:12:00       49.640        1.141       32.127       55.607       38.154       47.060     3092.174     1455.734     2214.601        0.513        0.338       49.653       29.675        0.357      349.322       29.665      856.476
07/05/2013  10:13:00       25.186      -95.660        7.743       60.961       41.236       38.137     3716.297     1700.426     1454.440        0.836        0.344       98.920       29.878        0.091      348.933       28.989      856.465
07/05/2013  10:14:00       -2.017      -64.121       22.804       18.875       22.326       20.232      356.268      498.440      409.328        0.295        0.063       64.153       13.554        0.045      348.672       28.538      856.454
07/05/2013  10:15:00      -23.250       18.932        1.803       17.154       16.430       17.880      294.246      269.959      319.699        0.089        0.044       29.983       11.260        0.141      348.955       29.030      856.434
07/05/2013  10:16:00       -1.660       14.207       36.048       15.731       22.808       13.013      247.455      520.199      169.349        0.122        0.047       14.304        9.997        0.488      350.245       31.269      856.443
07/05/2013  10:17:00       21.802       45.563       19.947       29.046       36.433       23.870      843.651     1327.361      569.757        0.284        0.137       50.511       21.224        0.177      349.773       30.447      856.440
07/05/2013  10:18:00      158.979      118.624       22.711       72.563       48.980       50.486     5265.430     2399.044     2548.878        2.504        0.511      198.358       28.173        0.020      349.149       29.363      856.446
07/05/2013  10:19:00      138.993       93.221       34.512       61.988       58.021       47.412     3842.571     3366.420     2247.928        1.933        0.473      167.360       28.928        0.030      348.934       28.992      856.449
07/05/2013  10:20:00       73.467      106.096        4.065       47.487       45.370       42.203     2254.994     2058.466     1781.101        1.138        0.305      129.050       33.504        0.067      348.931       28.988      856.441
07/05/2013  10:21:00      -19.671       54.486        6.032       34.457       37.552       29.189     1187.267     1410.116      852.011        0.342        0.172       57.928       22.557        0.152      349.423       29.841      856.409
07/05/2013  10:22:00       -0.914       91.738       11.275       97.643       54.693       44.519     9534.158     2991.342     1981.909        1.152        0.725       91.743       51.063        0.310      349.433       29.857      856.392
07/05/2013  10:23:00      131.458       90.936       26.151       74.741       76.833       52.081     5586.238     5903.269     2712.453        2.022        0.710      159.845       31.659        0.039      349.302       29.629      856.374
07/05/2013  10:24:00      116.889       58.086       35.855       71.190       53.558       42.360     5068.071     2868.468     1794.349        1.402        0.487      130.526       29.683        0.052      349.640       30.216      856.367
07/05/2013  10:25:00       42.229       53.417       78.480       66.141       60.608       41.503     4374.689     3673.299     1722.490        1.028        0.489       68.093       42.962        0.398      349.286       29.602      856.361
07/05/2013  10:26:00      133.004      113.359       74.727       94.830       46.722       57.426     8992.808     2182.924     3297.727        2.530        0.724      174.758       39.139        0.050      349.005       29.114      856.343
07/05/2013  10:27:00       94.202      105.467       55.208       85.649       54.859       51.209     7335.820     3009.519     2622.394        1.800        0.648      141.412       54.760        0.150      349.285       29.599      856.334
07/05/2013  10:28:00       92.714       90.877       66.525       51.221       41.576       40.627     2623.628     1728.596     1650.526        1.364        0.300      129.825       30.209        0.054      349.258       29.554      856.318
07/05/2013  10:29:00        2.167       -0.074       30.320       46.845       47.744       31.812     2194.484     2279.517     1011.982        0.320        0.274        2.168       25.483      138.139      349.810       30.512      856.304
07/05/2013  10:30:00       88.852       73.445       35.133       85.322       69.939       58.161     7279.799     4891.480     3382.708        1.504        0.778      115.277       44.991        0.152      349.470       29.923      856.311
07/05/2013  10:31:00       80.638       73.764       25.583       70.182       51.402       42.287     4925.528     2642.184     1788.228        1.098        0.468      109.287       16.047        0.022      349.713       30.344      856.321
07/05/2013  10:32:00      105.844       72.430       21.238       74.374       43.849       40.130     5531.426     1922.726     1610.438        1.298        0.453      128.254       16.783        0.017      349.697       30.315      856.328
07/05/2013  10:33:00      164.133      101.396       28.808       62.129       55.425       52.996     3860.016     3071.951     2808.626        2.389        0.487      192.927       40.745        0.045      349.334       29.683      856.331
07/05/2013  10:34:00       97.876       67.904       35.092       99.394       52.514       48.664     9879.131     2757.735     2368.193        1.521        0.750      119.125       47.240        0.157      349.274       29.580      856.328
07/05/2013  10:35:00       80.767       17.204       17.798       56.122       61.101       54.735     3149.702     3733.303     2995.881        0.851        0.494       82.579       38.303        0.215      349.153       29.372      856.312
07/05/2013  10:36:00       71.579       71.085       17.849       47.246       39.875       28.045     2232.177     1590.011      786.539        0.755        0.230      100.880       17.382        0.030      349.149       29.364      856.299
07/05/2013  10:37:00       50.384        9.817       17.164       72.752       45.759       34.034     5292.816     2093.899     1158.317        0.574        0.427       51.331       31.354        0.373      349.457       29.901      856.284
07/05/2013  10:38:00       56.824      -29.155       34.688       66.031       80.967       52.718     4360.035     6555.589     2779.207        0.949        0.685       63.867       57.729        0.817      349.650       30.236      856.270
07/05/2013  10:39:00       67.487      -77.243       26.680       77.299       96.394       69.605     5975.080     9291.886     4844.859        1.567        1.006      102.572       60.956        0.353      349.575       30.103      856.269
07/05/2013  10:40:00      103.989      -24.780       62.955      113.848      117.320       92.750    12961.411    13763.953     8602.654        2.535        1.766      106.901      106.693        0.996      349.710       30.336      856.276
07/05/2013  10:41:00        9.065       24.304       86.303       42.721       67.383       43.501     1825.054     4540.418     1892.301        0.819        0.413       25.939       24.550        0.896      349.756       30.418      856.312
07/05/2013  10:42:00      107.871     -118.201      -12.320       63.885       70.661       56.546     4081.259     4993.026     3197.440        1.901        0.614      160.024       53.756        0.113      349.478       29.934      856.317
07/05/2013  10:43:00       76.312      -66.497        5.666       46.260       40.415       40.281     2139.981     1633.368     1622.584        0.784        0.270      101.220       33.562        0.110      348.916       28.962      856.326
07/05/2013  10:44:00       41.782      -17.248       26.606       33.136       44.095       47.723     1097.987     1944.360     2277.455        0.403        0.266       45.202       36.353        0.647      349.467       29.917      856.323
07/05/2013  10:45:00       51.323      -15.541       20.211       51.239       65.396       37.990     2625.405     4276.588     1443.278        0.581        0.417       53.625       28.863        0.290      349.251       29.541      856.306
07/05/2013  10:46:00       96.828       51.102       62.490       90.420       63.247       46.241     8175.819     4000.217     2138.192        1.510        0.716      109.486       44.285        0.164      349.657       30.244      856.289
07/05/2013  10:47:00       97.545       89.115       47.519       60.327       43.068       28.694     3639.299     1854.894      823.319        1.301        0.316      132.124       13.384        0.010      349.308       29.640      856.280
07/05/2013  10:48:00       42.884      -53.272       17.297       34.548       67.098       36.619     1193.595     4502.077     1340.979        0.601        0.352       68.389       33.037        0.233      349.224       29.495      856.261
07/05/2013  10:49:00       20.653        9.632        7.846       33.767       47.597       27.818     1140.231     2265.491      773.818        0.238        0.209       22.789       21.814        0.916      349.234       29.512      856.254
07/05/2013  10:50:00       11.918      -50.856       21.230       46.757       56.516       44.629     2186.254     3194.088     1991.783        0.527        0.369       52.234       34.632        0.440      349.361       29.732      856.250
07/05/2013  10:51:00       23.462       14.339       67.534       43.294       52.543       31.472     1874.347     2760.807      990.491        0.547        0.281       27.497       18.296        0.443      350.103       31.020      856.248
07/05/2013  10:52:00        9.875       40.329       61.749       34.249       36.342       39.655     1172.971     1320.761     1572.528        0.480        0.203       41.520       25.277        0.371      350.165       31.127      856.244
07/05/2013  10:53:00       14.464       52.181       61.936       42.236       36.779       29.282     1783.906     1352.704      857.434        0.538        0.200       54.149        8.287        0.023      350.273       31.315      856.238
07/05/2013  10:54:00       56.320       41.105       -2.593       27.218       20.481       21.640      740.804      419.468      468.278        0.325        0.081       69.724       10.349        0.022      349.489       29.955      856.237
07/05/2013  10:55:00       85.709       47.099        4.919       38.002       32.631       33.435     1444.168     1064.772     1117.867        0.661        0.181       97.798       15.623        0.026      349.727       30.367      856.231
07/05/2013  10:56:00       45.820       37.899        2.076       31.582       25.955       27.443      997.410      673.667      753.099        0.298        0.121       59.463       16.976        0.082      349.920       30.703      856.229
07/05/2013  10:57:00       82.139       54.343       24.805       50.806       26.603       35.874     2581.216      707.728     1286.913        0.744        0.229       98.488        8.335        0.007      349.640       30.217      856.233
07/05/2013  10:58:00       84.342       54.574       24.778       43.641       36.574       30.937     1904.549     1337.681      957.100        0.745        0.210      100.458       19.199        0.037      349.684       30.292      856.231
07/05/2013  10:59:00        9.808       40.520       -2.253       61.217       44.352       27.274     3747.510     1967.090      743.867        0.410        0.323       41.690       21.616        0.269      349.598       30.145      856.226
07/05/2013  11:00:00      -26.225       49.252       21.523       69.707       29.560       38.171     4859.023      873.787     1457.005        0.538        0.359       55.799       33.967        0.371      350.060       30.945      856.226
07/05/2013  11:01:00      -83.034       21.609        0.176       60.290       24.306       31.512     3634.916      590.800      992.995        0.629        0.261       85.800       37.902        0.195      349.945       30.746      856.210
07/05/2013  11:02:00     -108.395       53.986      -31.457       43.387       48.736       22.200     1882.419     2375.196      492.842        1.020        0.238      121.095       17.597        0.021      349.421       29.835      856.200
07/05/2013  11:03:00     -135.666       17.803       -9.384       47.234       52.769       30.240     2231.030     2784.555      914.485        1.237        0.297      136.829       23.448        0.029      349.630       30.199      856.176
07/05/2013  11:04:00     -153.035       23.084      -11.488       53.435       45.445       20.460     2855.259     2065.233      418.627        1.471        0.267      154.766       22.536        0.021      349.369       29.747      856.174
07/05/2013  11:05:00      -39.825        8.140        5.795       47.555       27.322       32.692     2261.434      746.499     1068.797        0.288        0.204       40.648       31.485        0.600      350.515       31.740      856.168
07/05/2013  11:06:00       -5.383      117.192        7.983       29.435       50.986       35.170      866.418     2599.604     1236.940        0.926        0.235      117.316       31.784        0.073      350.162       31.124      856.154
07/05/2013  11:07:00       18.754       90.109       -2.109       60.880       70.872       44.910     3706.426     5022.839     2016.880        0.961        0.537       92.040       42.965        0.218      350.224       31.230      856.145
07/05/2013  11:08:00       29.955       41.769       15.902       76.245       55.346       38.327     5813.258     3063.200     1468.948        0.662        0.517       51.400       26.973        0.275      350.215       31.216      856.125
07/05/2013  11:09:00       81.238       57.479       25.478       53.822       51.114       36.294     2896.853     2612.653     1317.287        0.869        0.341       99.516       24.184        0.059      350.267       31.306      856.137
07/05/2013  11:10:00       30.227       35.944       24.253       56.519       39.256       32.439     3194.445     1541.025     1052.275        0.429        0.289       46.964       24.716        0.277      350.550       31.797      856.135
07/05/2013  11:11:00      152.501      116.318       16.499      114.035       73.433       58.750    13003.905     5392.407     3451.593        2.945        1.092      191.798       45.473        0.056      349.978       30.801      856.129
07/05/2013  11:12:00      207.367      157.999       25.191       62.720       53.582       61.946     3933.781     2871.029     3837.343        3.962        0.532      260.701       33.516        0.017      349.850       30.576      856.123
07/05/2013  11:13:00      169.116       97.788        9.283       57.074       58.844       39.717     3257.384     3462.635     1577.416        2.327        0.415      195.353       18.982        0.009      349.598       30.140      856.129
07/05/2013  11:14:00      133.860       93.389       10.157       78.297       52.902       41.989     6130.497     2798.575     1763.077        1.872        0.535      163.218       25.126        0.024      349.749       30.405      856.124
07/05/2013  11:15:00      141.637       78.702       29.995       48.470       39.242       46.855     2349.381     1539.929     2195.365        1.662        0.304      162.034       19.904        0.015      349.806       30.504      856.124
07/05/2013  11:16:00       43.210       38.200       41.864       61.795       47.455       38.172     3818.656     2251.960     1457.133        0.630        0.376       57.674       28.520        0.245      350.103       31.022      856.121
07/05/2013  11:17:00       23.418      -51.690       19.317       24.917       55.936       34.919      620.863     3128.788     1219.364        0.428        0.248       56.747       31.717        0.312      349.746       30.403      856.112
07/05/2013  11:18:00       83.561       39.995       19.954       55.709       54.011       43.817     3103.475     2917.152     1919.922        0.846        0.397       92.640       30.323        0.107      350.037       30.905      856.108
07/05/2013  11:19:00       83.522       39.795       31.660       66.260       43.810       36.818     4390.442     1919.346     1355.549        0.861        0.383       92.518       34.410        0.138      350.057       30.942      856.120
07/05/2013  11:20:00       85.805       49.824       25.550       39.215       27.067       25.576     1537.842      732.616      654.112        0.671        0.146       99.221       13.106        0.017      349.954       30.762      856.116
07/05/2013  11:21:00       52.196       48.129       10.484       38.566       45.321       37.411     1487.303     2054.032     1399.616        0.504        0.247       70.998       14.823        0.044      350.106       31.027      856.121
07/05/2013  11:22:00       31.323       13.417        5.784       38.469       17.457       24.328     1479.896      304.740      591.851        0.179        0.119       34.075       18.455        0.293      350.208       31.203      856.116
07/05/2013  11:23:00       -5.321        3.328       25.204       10.588       15.106       14.539      112.114      228.194      211.373        0.061        0.028        6.276        6.474        1.064      350.877       32.367      856.107
07/05/2013  11:24:00      -13.224        1.363       10.829       39.410       36.642       22.946     1553.158     1342.655      526.540        0.186        0.171       13.294       15.494        1.358      350.427       31.585      856.105
07/05/2013  11:25:00        1.028       -5.915       19.140       44.968       33.936       37.910     2022.079     1151.652     1437.159        0.251        0.231        6.004       35.346       34.654      350.287       31.339      856.112
07/05/2013  11:26:00       16.478       95.960       -6.851       62.662       76.610       55.175     3926.532     5869.018     3044.329        1.118        0.642       97.365       24.061        0.061      349.960       30.771      856.079
07/05/2013  11:27:00       47.786      159.056      -14.002       91.762      118.714       60.548     8420.276    14093.026     3666.016        2.697        1.309      166.079       41.161        0.061      350.035       30.902      856.043
07/05/2013  11:28:00      101.842       63.879       22.271       78.305       54.639       49.997     6131.688     2985.459     2499.708        1.328        0.581      120.218       40.328        0.113      350.256       31.286      856.043
07/05/2013  11:29:00       66.041       93.595       73.844       88.832       60.589       63.773     7891.165     3671.077     4067.002        1.710        0.781      114.549       46.423        0.164      350.627       31.930      855.999
07/05/2013  11:30:00       40.980       29.125       25.966       78.358       93.084       43.093     6140.029     8664.569     1857.008        0.993        0.833       50.275       40.587        0.652      350.570       31.832      855.994
07/05/2013  11:31:00        8.783     -108.695        1.336       49.983       56.067       43.851     2498.293     3143.489     1922.896        0.973        0.378      109.049       30.772        0.080      350.467       31.653      856.059
07/05/2013  11:32:00     -194.165       62.186        4.477      139.669       61.549       57.486    19507.526     3788.240     3304.594        3.409        1.330      203.880       67.369        0.109      350.414       31.559      856.056
07/05/2013  11:33:00     -169.513      -47.295       -8.166      125.909       74.904       39.188    15853.199     5610.576     1535.710        2.701        1.150      175.987       56.053        0.101      350.164       31.124      856.039
07/05/2013  11:34:00     -135.429      -59.616        3.266       92.909      102.125       49.932     8632.089    10429.614     2493.190        2.173        1.078      147.970       53.840        0.132      350.333       31.418      856.035
07/05/2013  11:35:00      -22.931      -48.982       20.701       71.602       74.376       50.740     5126.799     5531.840     2574.501        0.829        0.662       54.084       53.178        0.967      350.668       32.004      856.026
07/05/2013  11:36:00      -14.420      -50.075       30.774       46.067       68.463       43.469     2122.149     4687.190     1889.592        0.618        0.435       52.110       18.471        0.126      350.848       32.316      856.036
07/05/2013  11:37:00      135.564      -45.611       61.995      113.082      108.341       78.392    12787.550    11737.766     6145.376        2.748        1.534      143.031       88.891        0.386      350.496       31.701      856.025
07/05/2013  11:38:00       87.331       65.744       70.125       93.605       62.548       55.844     8761.856     3912.196     3118.498        1.633        0.790      109.311       49.552        0.205      350.385       31.510      855.980
07/05/2013  11:39:00       90.209     -132.544        3.355      113.529      121.654       50.414    12888.794    14799.648     2541.582        2.797        1.512      160.330       62.116        0.150      350.539       31.776      855.958
07/05/2013  11:40:00      139.828      -33.136       70.826      173.840      217.257      118.422    30220.500    47200.670    14023.815        5.854        4.572      143.700      167.677        1.362      350.408       31.548      855.964
07/05/2013  11:41:00       56.799      -30.491       22.285       58.910       53.927       38.224     3470.366     2908.122     1461.091        0.624        0.392       64.466       34.762        0.291      350.251       31.278      855.983
07/05/2013  11:42:00       26.322      -70.800        5.240       52.465       47.059       31.675     2752.560     2214.520     1003.324        0.585        0.299       75.534       26.804        0.126      350.448       31.620      855.965
07/05/2013  11:43:00      -49.920      -48.844       -6.487       44.744       30.666       17.495     2002.063      940.424      306.078        0.408        0.162       69.841       16.838        0.058      350.574       31.838      855.973
07/05/2013  11:44:00      -79.282      -60.145      -22.425       93.550       36.812       23.990     8751.599     1355.144      575.530        1.054        0.534       99.514       14.362        0.021      350.573       31.837      855.966
07/05/2013  11:45:00     -155.492      -88.669        3.734       75.309       73.526       51.730     5671.388     5406.140     2675.982        2.290        0.688      178.997       44.820        0.063      350.411       31.554      855.919
07/05/2013  11:46:00      -45.472       73.468      -16.935       59.302       67.610       31.744     3516.778     4571.166     1007.657        0.842        0.455       86.402       12.243        0.020      350.358       31.464      855.907
07/05/2013  11:47:00       -0.818       72.934       22.257       37.937       50.375       32.813     1439.200     2537.625     1076.694        0.543        0.253       72.939       28.800        0.156      351.178       32.892      855.884
07/05/2013  11:48:00     -110.290      -49.447       -2.591       62.634       41.016       25.037     3923.014     1682.311      626.850        1.042        0.312      120.867       27.632        0.052      350.397       31.530      855.887
07/05/2013  11:49:00     -274.436      -36.634      -13.692       74.021       55.353       36.376     5479.099     3063.930     1323.223        4.335        0.493      276.870       33.599        0.015      350.305       31.369      855.900
07/05/2013  11:50:00     -194.889      -60.586      -13.138       74.087      126.665       45.439     5488.858    16044.035     2064.716        3.271        1.180      204.089       42.976        0.044      350.551       31.796      855.903
07/05/2013  11:51:00     -175.096     -150.117       10.728      134.166      100.876       63.195    18000.494    10176.035     3993.638        4.273        1.609      230.638       74.968        0.106      350.549       31.795      855.921
07/05/2013  11:52:00     -122.666     -311.848       -0.251       85.034      118.325       48.460     7230.709    14000.815     2348.360        6.793        1.179      335.106       45.982        0.019      350.188       31.166      855.934
07/05/2013  11:53:00      -78.235     -221.555      -11.806       69.600       54.615       53.116     4844.184     2982.824     2821.258        3.300        0.532      234.962       30.640        0.017      350.378       31.493      855.922
07/05/2013  11:54:00      -82.709     -129.291        2.693       89.891       90.950       43.376     8080.374     8271.830     1881.463        2.090        0.912      153.482       41.473        0.073      350.505       31.718      855.925
07/05/2013  11:55:00      -48.361      -37.307       23.598       96.821       70.220       48.583     9374.367     4930.815     2360.301        1.047        0.833       61.078       44.726        0.536      351.140       32.825      855.944
07/05/2013  11:56:00      -66.017      -19.928       27.729       46.943       55.494       30.582     2203.609     3079.565      935.268        0.587        0.311       68.959       24.453        0.126      351.223       32.970      855.958
07/05/2013  11:57:00      -15.415      -32.368       18.663       68.784       66.619       39.105     4731.189     4438.097     1529.184        0.616        0.535       35.851       32.075        0.800      350.903       32.412      855.937
07/05/2013  11:58:00       90.716     -200.433      -20.401      123.643      175.629       85.802    15287.554    30845.608     7362.007        5.115        2.675      220.006       96.486        0.192      350.470       31.655      855.908
07/05/2013  11:59:00       62.856     -181.770      -10.943       97.813      116.636       68.991     9567.316    13603.893     4759.703        3.252        1.397      192.331       68.366        0.126      350.354       31.454      855.887
07/05/2013  12:00:00       24.063      -42.476       67.045       87.842      130.032       73.987     7716.300    16908.257     5474.081        1.848        1.505       48.818       85.516        3.069      350.674       32.012      855.841
07/05/2013  12:01:00      -79.410      -53.472       11.396       62.353       78.308       45.505     3887.870     6132.087     2070.709        1.069        0.605       95.735       47.466        0.246      351.040       32.651      855.880
07/05/2013  12:02:00       -0.612     -135.583       16.862      110.356      120.677       77.458    12178.552    14563.054     5999.713        2.570        1.637      135.584       61.380        0.205      350.830       32.283      855.846
07/05/2013  12:03:00     -127.116      -69.859       25.741      161.147      142.382       88.000    25968.481    20272.571     7744.065        3.783        2.699      145.047       75.107        0.268      350.836       32.296      855.852
07/05/2013  12:04:00       -6.123     -146.931       21.458       88.128      180.568       54.524     7766.539    32604.781     2972.894        3.271        2.167      147.059       56.502        0.148      350.799       32.229      855.857
07/05/2013  12:05:00        0.416     -193.889       -6.516       84.604      129.818       71.481     7157.867    16852.626     5109.514        3.337        1.456      193.890       68.761        0.126      350.636       31.945      855.834
07/05/2013  12:06:00      127.181     -312.144      -17.370      174.497      192.735       74.975    30449.170    37146.738     5621.243        9.355        3.661      337.059       80.088        0.056      350.613       31.905      855.851
07/05/2013  12:07:00       24.469     -258.867       11.264      118.534      199.246       97.434    14050.371    39698.893     9493.353        6.548        3.162      260.021      119.115        0.210      350.463       31.643      855.866
07/05/2013  12:08:00       39.625      -96.334       25.935      110.267      113.911       75.842    12158.788    12975.715     5752.038        2.120        1.544      104.165       79.154        0.577      350.654       31.977      855.856
07/05/2013  12:09:00       90.470      -17.616       90.481      132.426      192.440      112.144    17536.699    37033.265    12576.277        4.190        3.357       92.169      135.554        2.163      350.753       32.148      855.822
07/05/2013  12:10:00      103.619     -176.064       18.985       92.127      172.211       79.154     8487.399    29656.606     6265.279        4.324        2.220      204.292       93.890        0.211      350.893       32.392      855.805
07/05/2013  12:11:00      -44.143      -72.346       35.966      104.068      121.001       69.310    10830.230    14641.213     4803.895        1.937        1.514       84.750       61.906        0.534      350.985       32.553      855.837
07/05/2013  12:12:00      -57.015       21.183        5.255       39.235       41.130       38.261     1539.418     1691.688     1463.905        0.421        0.235       60.822       21.627        0.126      351.061       32.687      855.823
07/05/2013  12:13:00     -141.815     -167.717      -14.607       89.412      103.809       40.870     7994.588    10776.247     1670.356        3.444        1.022      219.638       44.279        0.041      350.730       32.109      855.857
07/05/2013  12:14:00      -72.490     -103.079       15.000      126.578      111.857       64.430    16021.936    12512.058     4151.252        2.439        1.634      126.016       57.475        0.208      350.705       32.065      855.810
07/05/2013  12:15:00      -47.483      -16.019       40.774       42.220       68.374       34.852     1782.508     4675.005     1214.669        0.592        0.384       50.112       30.426        0.369      351.073       32.708      855.800
07/05/2013  12:16:00       66.020     -180.960        5.419      180.217      108.716       59.554    32478.180    11819.065     3546.636        4.248        2.392      192.627       50.951        0.070      350.787       32.208      855.792
07/05/2013  12:17:00      -45.258       -9.173       28.999       69.869       58.616       43.948     4881.616     3435.846     1931.417        0.661        0.512       46.179       41.043        0.790      351.072       32.706      855.765
07/05/2013  12:18:00     -171.409      -48.921       10.490      108.432       56.946       42.135    11757.498     3242.799     1775.383        2.433        0.839      178.254       44.674        0.063      351.004       32.587      855.732
07/05/2013  12:19:00     -300.028     -108.447       -6.356      163.441      108.618       60.787    26712.828    11797.934     3695.111        7.200        2.110      319.026       56.658        0.032      350.761       32.162      855.731
07/05/2013  12:20:00     -193.776      -49.643       -3.555      132.292      108.883       56.217    17501.172    11855.577     3160.333        3.627        1.626      200.034       66.399        0.110      350.707       32.069      855.743
07/05/2013  12:21:00     -128.285     -142.676       21.289      136.177       78.404       59.791    18544.178     6147.170     3574.977        3.276        1.413      191.869       40.854        0.045      350.921       32.440      855.740
07/05/2013  12:22:00     -360.550     -135.940       -9.271      142.514      138.894       61.922    20310.381    19291.468     3834.329        9.599        2.172      385.326       54.197        0.020      350.702       32.057      855.763
07/05/2013  12:23:00     -474.335     -140.293      -15.843      162.149      112.246       70.897    26292.344    12599.240     5026.391       14.441        2.196      494.647       73.675        0.022      350.505       31.715      855.796
07/05/2013  12:24:00     -252.387     -163.960        1.271      172.853      120.747       67.181    29878.289    14579.831     4513.247        6.977        2.449      300.968       85.741        0.081      350.744       32.132      855.796
07/05/2013  12:25:00     -303.223     -269.023       22.486      231.138      232.988      109.495    53424.962    54283.260    11989.185       14.224        5.985      405.361      129.159        0.102      350.830       32.283      855.797
07/05/2013  12:26:00     -280.276     -134.276      -20.453      125.800      137.927       66.140    15825.593    19023.734     4374.495        6.811        1.961      310.781       39.797        0.016      350.686       32.030      855.818
07/05/2013  12:27:00     -120.658     -115.755        3.271      137.511      105.731       67.911    18909.408    11179.008     4611.939        3.133        1.735      167.205       70.969        0.180      351.008       32.593      855.794
07/05/2013  12:28:00     -302.863     -148.553      -13.880      118.254      148.433       67.954    13984.052    22032.375     4617.784        7.730        2.032      337.334       61.457        0.033      350.620       31.917      855.799
07/05/2013  12:29:00     -353.392      -69.031       -7.929      168.667      120.576       82.464    28448.694    14538.503     6800.273        8.974        2.489      360.071       91.470        0.065      350.440       31.603      855.746
07/05/2013  12:30:00     -241.654      -55.144       -1.020      123.190       87.078       57.571    15175.768     7582.541     3314.447        4.375        1.304      247.866       60.380        0.059      350.734       32.114      855.742
07/05/2013  12:31:00     -297.896      -90.758       -2.483      145.444      111.027       67.391    21153.846    12327.077     4541.614        6.750        1.901      311.415       66.818        0.046      350.699       32.052      855.695
07/05/2013  12:32:00     -325.880     -214.853      -19.881      212.854      203.740       89.333    45306.880    41509.821     7980.327       12.376        4.740      390.333       91.753        0.055      350.759       32.156      855.683
07/05/2013  12:33:00     -419.082     -323.366      -27.035      290.427      194.002      111.124    84348.049    37636.930    12348.647       20.760        6.717      529.335      132.404        0.063      350.507       31.721      855.643
07/05/2013  12:34:00     -151.388     -206.314       -3.619      207.156      158.349       84.197    42913.775    25074.339     7089.202        7.027        3.754      255.898      103.452        0.163      350.641       31.954      855.689
07/05/2013  12:35:00     -103.670     -202.453       -0.484      104.161      132.533       75.641    10849.542    17565.019     5721.524        4.293        1.707      227.453       48.870        0.046      350.739       32.124      855.686
07/05/2013  12:36:00      -74.693     -151.628        3.789      120.108      174.404       70.933    14425.824    30416.781     5031.537        3.922        2.494      169.027       79.898        0.223      350.912       32.425      855.695
07/05/2013  12:37:00     -106.563      -12.667       16.183      313.357      125.186       92.244    98192.704    15671.449     8508.921        6.705        6.119      107.314      117.865        1.206      350.971       32.529      855.386
07/05/2013  12:38:00     -457.039     -223.052      -12.753      243.583      118.037       82.358    59332.567    13932.733     6782.818       16.941        4.002      508.564       84.737        0.028      350.920       32.437      855.640
07/05/2013  12:39:00     -374.333      -57.069      -34.661      206.529      123.434       66.012    42654.137    15235.987     4357.627       10.340        3.112      378.659       81.508        0.046      350.738       32.121      855.706
07/05/2013  12:40:00     -191.832     -154.297       12.580      158.399       93.802       63.800    25090.148     8798.741     4070.498        4.935        1.898      246.185       71.530        0.084      350.919       32.438      855.755
07/05/2013  12:41:00     -134.349      -53.944       14.857      164.334      118.861       56.234    27005.578    14128.039     3162.291        3.273        2.215      144.774       64.495        0.198      351.061       32.686      855.741
07/05/2013  12:42:00       40.874     -294.149      -26.278      114.167      175.406       82.706    13034.106    30767.216     6840.328        6.975        2.532      296.975       74.186        0.062      350.680       32.019      855.750
07/05/2013  12:43:00       17.391      -92.358        7.291      134.005      134.941      102.575    17957.313    18209.026    10521.571        2.778        2.334       93.981       85.738        0.832      350.851       32.320      855.719
07/05/2013  12:44:00      -61.253     -116.557      -10.485      108.411       75.187       53.872    11752.875     5653.072     2902.192        1.887        1.015      131.672       39.738        0.091      350.735       32.117      855.682
07/05/2013  12:45:00      -20.329     -122.144      -11.134      128.856       93.057       54.978    16603.830     8659.583     3022.628        2.187        1.414      123.824       41.508        0.112      351.015       32.605      855.690
07/05/2013  12:46:00      129.888     -124.002       17.647      116.967      143.863       81.424    13681.340    20696.466     6629.890        3.678        2.050      179.575       84.596        0.222      350.783       32.201      855.669
07/05/2013  12:47:00      113.192     -216.356       14.744      153.162      181.421      117.639    23458.701    32913.637    13839.042        6.501        3.511      244.177      117.913        0.233      350.716       32.082      855.630
07/05/2013  12:48:00       83.423     -265.908      -11.362      130.901      147.047       75.816    17135.162    21622.939     5748.115        6.114        2.225      278.687       59.463        0.046      350.718       32.086      855.653
07/05/2013  12:49:00        4.934      -59.716       53.900       72.970      145.384       84.300     5324.648    21136.586     7106.455        2.002        1.678       59.920       96.443        2.591      350.835       32.292      855.635
07/05/2013  12:50:00      144.467     -203.428       41.361      143.211      218.723      105.802    20509.262    47839.761    11193.990        7.174        3.977      249.507      133.286        0.285      350.777       32.191      855.563
07/05/2013  12:51:00       60.484     -295.866       -5.525      195.220      240.954      100.681    38110.927    58058.946    10136.596        9.874        5.315      301.985      102.692        0.116      350.818       32.261      855.617
07/05/2013  12:52:00       57.333     -151.535       -3.228       87.517      142.850       74.468     7659.312    20406.087     5545.460        2.993        1.681      162.018       30.759        0.036      350.772       32.180      855.636
07/05/2013  12:53:00      128.236     -184.546        9.115      131.529      137.694       81.084    17299.962    18959.763     6574.605        4.670        2.142      224.726       86.447        0.148      350.929       32.454      855.638
07/05/2013  12:54:00      -25.326     -222.981       28.100       99.161      187.864       74.833     9832.865    35292.831     5599.926        5.093        2.536      224.414       87.091        0.151      350.858       32.330      855.639
07/05/2013  12:55:00      -13.602      -80.829       12.919      111.536       82.779       59.992    12440.355     6852.429     3599.010        1.488        1.145       81.966       37.279        0.207      350.942       32.480      855.642
07/05/2013  12:56:00       23.658     -155.549       -0.405      103.315      103.848       74.705    10673.983    10784.499     5580.896        2.589        1.352      157.337       57.126        0.132      350.755       32.153      855.662
07/05/2013  12:57:00      -89.465     -226.426       -4.589      129.997      156.380       79.468    16899.232    24454.579     6315.177        5.347        2.383      243.460       74.269        0.093      350.744       32.133      855.637
07/05/2013  12:58:00      108.116     -137.456       35.017       98.102      162.768       86.333     9624.030    26493.522     7453.318        3.768        2.179      174.881      100.402        0.330      350.937       32.468      855.615
07/05/2013  12:59:00       57.883      -87.646       60.507      112.079      186.674      101.512    12561.676    34847.342    10304.711        3.619        2.886      105.035      116.530        1.231      350.860       32.333      855.597
07/05/2013  13:00:00      -99.637     -154.026       17.220      181.683      121.373       63.041    33008.793    14731.348     3974.125        4.282        2.586      183.443       47.605        0.067      350.997       32.574      855.635
07/05/2013  13:01:00     -182.940     -261.348       -3.213      158.597      222.623       80.602    25153.149    49561.156     6496.615        9.148        4.061      319.013       97.894        0.094      350.874       32.359      855.622
07/05/2013  13:02:00      -69.450     -191.756      -21.960      159.221       90.535       56.700    25351.435     8196.580     3214.889        3.941        1.838      203.945       38.863        0.036      350.987       32.554      855.602
07/05/2013  13:03:00      -90.076     -134.762       -5.812      133.400       99.533       63.163    17795.445     9906.780     3989.583        2.899        1.585      162.094       48.439        0.089      350.743       32.131      855.599
07/05/2013  13:04:00     -189.186     -146.443        9.180      135.476      128.617       68.934    18353.659    16542.397     4751.861        4.848        1.982      239.242       78.557        0.108      350.931       32.458      855.583
07/05/2013  13:05:00     -256.976     -224.743       -5.024      118.590      122.809       72.962    14063.631    15081.973     5323.499        7.551        1.723      341.388       64.199        0.035      351.001       32.578      855.612
07/05/2013  13:06:00     -250.262     -264.693       -7.669      168.826      142.972       76.979    28502.263    20441.045     5925.802        9.380        2.743      364.271       65.812        0.033      350.766       32.169      855.622
07/05/2013  13:07:00      -44.375     -210.537       -6.607      160.885      125.063       84.671    25884.055    15640.786     7169.143        4.751        2.435      215.163       74.173        0.119      350.757       32.154      855.635
07/05/2013  13:08:00      -72.369     -194.087       -7.175      128.218      139.399       77.276    16439.730    19431.959     5971.516        4.239        2.092      207.140       62.526        0.091      350.848       32.315      855.636
07/05/2013  13:09:00      -75.119      -66.181        4.373      108.611      130.156       63.630    11796.259    16940.557     4048.739        2.141        1.639      100.114       64.910        0.420      350.900       32.405      855.631
07/05/2013  13:10:00     -286.437     -105.251      -13.562      169.957      112.535       65.222    28885.336    12664.098     4253.961        6.955        2.290      305.162       79.633        0.068      350.786       32.206      855.606
07/05/2013  13:11:00     -284.502      -63.594        2.810      239.815      151.853       78.576    57511.320    23059.275     6174.189        8.585        4.337      291.523       99.121        0.116      350.877       32.363      855.511
07/05/2013  13:12:00     -227.961     -336.609      -20.244      135.538      224.299       74.781    18370.574    50310.108     5592.142       11.996        3.714      406.536       74.242        0.033      350.712       32.075      855.581
07/05/2013  13:13:00     -108.723      -65.407        8.934      144.315      114.549       66.668    20826.847    13121.546     4444.571        2.728        1.920      126.881       37.274        0.086      351.005       32.587      855.584
07/05/2013  13:14:00       61.595     -290.742       -3.542      145.358      183.725       92.199    21128.970    33754.952     8500.584        7.585        3.169      297.195       93.659        0.099      350.885       32.377      855.591
07/05/2013  13:15:00       16.433     -209.500      -11.522      186.733      156.758       81.284    34869.371    24573.082     6607.156        5.516        3.302      210.144       53.439        0.065      350.963       32.513      855.566
07/05/2013  13:16:00       22.878     -306.149       -6.300      167.975      171.027       74.634    28215.629    29250.068     5570.165        7.865        3.152      307.003       48.618        0.025      350.734       32.114      855.595
07/05/2013  13:17:00      -46.180     -135.130      -14.642       78.860       99.012       48.925     6218.941     9803.316     2393.650        1.951        0.921      142.803       32.805        0.053      351.135       32.814      855.572
07/05/2013  13:18:00     -136.860     -149.985       12.575      152.062      108.025       65.850    23122.906    11669.362     4336.266        4.025        1.956      203.042       69.176        0.116      351.174       32.881      855.589
07/05/2013  13:19:00     -146.721     -186.633        0.928      175.062      122.662       77.640    30646.706    15045.988     6028.026        5.403        2.586      237.400       54.255        0.052      350.980       32.543      855.600
07/05/2013  13:20:00     -124.140     -160.826        1.839      116.156       91.042       54.588    13492.132     8288.573     2979.886        3.301        1.238      203.164       43.564        0.046      350.978       32.541      855.600
07/05/2013  13:21:00     -211.827     -144.120        3.423      155.497      147.881       72.148    24179.422    21868.867     5205.335        5.844        2.563      256.205       70.120        0.075      351.187       32.903      855.596
07/05/2013  13:22:00     -349.984     -253.170      -21.547      152.712      124.719       64.779    23320.810    15554.949     4196.270       11.505        2.154      431.954       57.893        0.018      350.979       32.542      855.603
07/05/2013  13:23:00     -122.745     -134.988        3.291      111.840      123.315       45.139    12508.209    15206.490     2037.527        3.152        1.488      182.450       42.408        0.054      351.258       33.030      855.596
07/05/2013  13:24:00     -180.838      -80.212        9.480      140.230      105.632       57.264    19664.570    11158.211     3279.163        3.666        1.705      197.829       69.754        0.124      351.404       33.282      855.598
07/05/2013  13:25:00     -532.839       -1.547      -17.013      202.752      210.907       96.486    41108.244    44481.685     9309.613       18.954        4.745      532.841      103.180        0.037      351.054       32.671      855.506
07/05/2013  13:26:00     -408.641     -241.626       -7.166      179.070      144.153       79.467    32065.984    20780.082     6315.016       14.228        2.958      474.733       87.106        0.034      350.955       32.501      855.579
07/05/2013  13:27:00     -203.239     -125.233       20.401      176.678      115.496       65.137    31215.145    13339.282     4242.785        5.309        2.440      238.725       77.378        0.105      351.297       33.096      855.543
07/05/2013  13:28:00     -145.681      -77.998       -1.136      107.096       74.303       48.112    11469.469     5520.918     2314.785        2.330        0.965      165.247       47.371        0.082      351.314       33.128      855.552
07/05/2013  13:29:00      -61.458      -65.353        7.962       87.646       58.249       40.494     7681.792     3392.927     1639.753        1.041        0.636       89.711       28.463        0.101      351.448       33.361      855.540
07/05/2013  13:30:00      -94.257      -72.554        7.644      153.397       80.063       47.899    23530.764     6410.064     2294.277        2.321        1.612      118.947       50.060        0.177      351.309       33.119      855.549
07/05/2013  13:31:00      -60.784      -78.752       16.841       88.110      138.100       49.489     7763.296    19071.740     2449.203        1.973        1.464       99.481       57.235        0.331      351.188       32.907      855.542
07/05/2013  13:32:00      -90.802     -114.705       28.135      133.611      152.444       64.882    17852.004    23239.128     4209.647        3.374        2.265      146.295       69.136        0.223      351.430       33.328      855.529
07/05/2013  13:33:00     -181.114     -219.852        6.717      162.641      137.043       85.162    26452.189    18780.738     7252.572        6.682        2.624      284.845       85.451        0.090      351.190       32.909      855.528
07/05/2013  13:34:00      -91.969     -143.015       19.746      124.538      120.748       62.178    15509.590    14580.085     3866.043        3.162        1.698      170.034       47.219        0.077      351.070       32.701      855.519
07/05/2013  13:35:00     -162.079      -92.069       17.787      140.394      109.715       61.617    19710.543    12037.355     3796.716        3.530        1.777      186.403       58.923        0.100      351.242       33.000      855.497
07/05/2013  13:36:00     -251.305     -125.369       -9.397      164.231      112.666       63.255    26971.849    12693.670     4001.237        6.130        2.183      280.841       74.925        0.071      350.904       32.412      855.469
07/05/2013  13:37:00     -189.922     -154.336        0.045      157.773      209.851       64.588    24892.204    44037.334     4171.545        6.648        3.655      244.724       89.638        0.134      351.047       32.660      855.409
07/05/2013  13:38:00     -157.264     -163.929       -9.240      153.792      140.372       68.039    23652.039    19704.412     4629.246        4.983        2.399      227.167       57.218        0.063      351.178       32.889      855.419
07/05/2013  13:39:00     -351.995     -265.169      -17.055      254.301      153.199       75.142    64669.226    23469.851     5646.317       14.413        4.689      440.698       84.829        0.037      350.937       32.469      855.445
07/05/2013  13:40:00     -429.306     -261.866       -9.143      246.674      198.874       89.697    60847.843    39550.975     8045.486       18.068        5.422      502.870      114.554        0.052      350.851       32.319      855.402
07/05/2013  13:41:00     -440.096     -307.409      -14.710      300.233      184.283      119.693    90139.597    33960.103    14326.414       21.339        6.921      536.828      144.198        0.072      350.787       32.207      855.385
07/05/2013  13:42:00     -510.247     -238.973      -32.321      214.351      179.360       93.966    45946.288    32170.058     8829.525       20.271        4.347      563.436      103.974        0.034      350.877       32.365      855.417
07/05/2013  13:43:00     -276.380      -36.268        2.467      197.475      183.089       70.025    38996.433    33521.508     4903.460        7.755        3.871      278.750       91.455        0.108      351.169       32.874      855.450
07/05/2013  13:44:00     -225.573     -121.366       17.396      162.103      159.471       78.930    26277.481    25430.934     6229.955        6.192        2.897      256.150       86.244        0.113      351.332       33.155      855.453
07/05/2013  13:45:00     -462.684     -184.809      -34.955      179.943      171.956       90.951    32379.405    29568.846     8272.153       15.982        3.511      498.228       88.785        0.032      350.788       32.208      855.457
07/05/2013  13:46:00     -389.550     -239.488      -10.774      197.539      142.337       83.083    39021.793    20259.750     6902.772       13.769        3.309      457.278       83.280        0.033      350.700       32.056      855.456
07/05/2013  13:47:00      -90.143     -115.824       15.172       88.642       88.425       53.172     7857.399     7818.976     2827.210        2.013        0.925      146.768       36.621        0.062      350.767       32.175      855.435
07/05/2013  13:48:00     -286.338     -219.420      -18.858      152.277      136.090       74.220    23188.190    18520.391     5508.628        8.884        2.361      360.742       76.284        0.045      350.892       32.391      855.434
07/05/2013  13:49:00     -396.563     -107.307       -1.304      176.708      161.549       78.763    31225.746    26097.951     6203.535       11.614        3.176      410.825       82.911        0.041      350.944       32.480      855.451
07/05/2013  13:50:00     -271.245       -0.839       -5.081      144.669      125.298       72.233    20929.156    15699.696     5217.637        5.772        2.092      271.247       63.919        0.056      351.037       32.643      855.395
07/05/2013  13:51:00     -220.848      -86.101       18.766      185.708      165.665       80.213    34487.555    27444.964     6434.093        6.244        3.418      237.039       70.768        0.089      351.247       33.006      855.390
07/05/2013  13:52:00     -205.996     -180.848       -6.220      145.140      119.583       73.970    21065.699    14300.057     5471.575        5.800        2.042      274.117       74.725        0.074      351.138       32.817      855.374
07/05/2013  13:53:00     -389.944     -253.374        4.944      202.209      181.138       95.829    40888.402    32810.873     9183.213       14.956        4.144      465.032      108.059        0.054      350.977       32.538      855.400
07/05/2013  13:54:00     -482.279     -392.798       -9.592      268.643      160.800      111.855    72169.076    25856.735    12511.439       24.873        5.527      621.999      123.341        0.039      350.833       32.285      855.344
07/05/2013  13:55:00     -553.056     -274.764      -16.920      221.737      193.755      104.454    49167.496    37540.851    10910.707       23.962        4.881      617.548      119.580        0.037      350.885       32.376      855.384
07/05/2013  13:56:00     -163.690     -139.877       24.030      182.752      131.293       94.529    33398.392    17237.744     8935.761        5.324        2.979      215.313      104.827        0.237      351.008       32.592      855.400
07/05/2013  13:57:00     -431.999     -170.853      -12.708      273.249      172.743       93.240    74665.195    29840.062     8693.690       16.456        5.660      464.558      121.865        0.069      350.907       32.415      855.417
07/05/2013  13:58:00     -286.065     -219.023       12.293      179.192      179.549       96.137    32109.888    32237.667     9242.373       10.176        3.679      360.284      106.343        0.087      351.056       32.674      855.379
07/05/2013  13:59:00     -206.500     -138.988       17.257      171.407      129.877       78.657    29380.420    16867.952     6186.963        5.734        2.622      248.917       87.253        0.123      351.104       32.760      855.391
07/05/2013  14:00:00     -299.990      -49.141       -1.262      165.645      142.147       75.302    27438.144    20205.895     5670.357        7.285        2.666      303.988       69.064        0.052      350.974       32.532      855.352
07/05/2013  14:01:00     -357.180     -216.406      -15.190      178.496      168.541       80.938    31860.894    28406.197     6550.891       12.072        3.341      417.624       70.949        0.029      350.912       32.424      855.316
07/05/2013  14:02:00     -249.788     -187.555       -9.902      215.633      200.889       85.578    46497.769    40356.539     7323.604        9.590        4.709      312.364      114.148        0.134      351.085       32.727      855.327
07/05/2013  14:03:00     -145.996     -302.767        5.149      144.357      131.507       66.563    20838.878    17294.049     4430.663        7.778        2.128      336.129       62.544        0.035      351.081       32.717      855.289
07/05/2013  14:04:00     -363.907     -187.690       -9.738      216.366      136.790       82.228    46814.093    18711.394     6761.401       12.000        3.614      409.458       88.281        0.046      351.138       32.818      855.286
07/05/2013  14:05:00     -244.847     -103.453       -1.756      172.885      148.339       78.947    29889.373    22004.483     6232.577        6.438        2.906      265.805       91.311        0.118      351.234       32.985      855.268
07/05/2013  14:06:00     -282.095      -35.651      -11.995      181.056      156.470       80.445    32781.434    24482.766     6471.340        7.235        3.187      284.339       90.830        0.102      351.240       32.997      855.259
07/05/2013  14:07:00     -491.301     -125.935      -32.795      178.928      217.432       92.142    32015.250    47276.751     8490.232       17.303        4.389      507.184       96.804        0.036      351.221       32.963      855.223
07/05/2013  14:08:00     -406.783     -319.824      -18.346      207.068      183.255      113.094    42877.284    33582.445    12790.344       17.866        4.463      517.455      112.057        0.047      350.994       32.566      855.241
07/05/2013  14:09:00     -397.640     -125.035        5.456      192.504      203.438       90.862    37057.816    41387.209     8255.972       13.022        4.335      416.835      101.128        0.059      351.170       32.873      855.265
07/05/2013  14:10:00     -256.256     -301.168        5.127      194.965      161.748       87.823    38011.473    26162.379     7712.905       11.413        3.594      395.435       87.475        0.049      350.998       32.574      855.298
07/05/2013  14:11:00     -383.403     -315.849       -3.892      240.982      194.241      101.797    58072.283    37729.540    10362.550       17.645        5.308      496.748      106.654        0.046      350.815       32.256      855.294
07/05/2013  14:12:00     -343.792     -263.299       -5.159      170.203      203.232       86.738    28969.148    41303.201     7523.401       13.266        3.890      433.035      102.001        0.055      350.957       32.503      855.298
07/05/2013  14:13:00     -252.188     -135.785       18.784      188.640      189.673       91.147    35585.035    35975.887     8307.862        8.111        3.993      286.420      107.282        0.140      351.006       32.589      855.295
07/05/2013  14:14:00     -444.987     -332.047      -20.170      243.349      239.706      102.838    59218.695    57458.798    10575.604       21.794        6.363      555.219      104.829        0.036      350.808       32.244      855.273
07/05/2013  14:15:00     -456.421     -326.144      -11.718      287.229      238.705      114.463    82500.666    56979.960    13101.858       23.367        7.629      560.973      155.404        0.077      350.693       32.044      855.269
07/05/2013  14:16:00     -461.220     -236.468       -2.240      186.940      182.724       91.449    34946.712    33388.123     8362.841       17.266        3.835      518.306      100.964        0.038      350.618       31.912      855.287
07/05/2013  14:17:00     -310.429     -163.968        2.785      288.615      211.769      120.490    83298.885    44846.286    14517.807       13.293        7.133      351.072      129.991        0.137      350.987       32.555      855.165
07/05/2013  14:18:00     -280.229     -143.871       13.825      200.784      169.392       96.330    40314.055    28693.714     9279.484        8.884        3.914      315.003       96.871        0.095      351.267       33.042      855.210
07/05/2013  14:19:00     -218.577      -95.976       13.476      168.503      158.306       72.376    28393.149    25060.880     5238.244        5.792        2.935      238.720       76.714        0.103      351.147       32.834      855.264
07/05/2013  14:20:00     -345.252       25.141      -32.433      161.247       94.727       69.346    26000.618     8973.199     4808.833        8.032        1.989      346.166       79.844        0.053      350.964       32.514      855.242
07/05/2013  14:21:00     -267.016      -40.057      -10.554      187.459      130.406       73.386    35140.927    17005.630     5385.433        6.526        2.877      270.004       67.369        0.062      351.158       32.853      855.184
07/05/2013  14:22:00     -313.089     -189.663      -12.176      158.532      152.431       76.416    25132.525    23235.356     5839.444        9.417        2.710      366.056       79.775        0.047      351.145       32.830      855.192
07/05/2013  14:23:00     -288.430     -173.215       -1.917      206.809      142.366       73.919    42769.964    20267.995     5463.980        9.084        3.425      336.445       99.893        0.088      351.168       32.872      855.183
07/05/2013  14:24:00     -217.661     -122.733       -2.559      158.430      113.855       72.827    25100.204    12962.947     5303.784        5.290        2.168      249.879       86.486        0.120      351.335       33.161      855.187
07/05/2013  14:25:00     -230.285      -67.195       -4.592      188.493      101.543       71.295    35529.686    10311.049     5082.968        5.424        2.546      239.888       69.006        0.083      351.366       33.216      855.187
07/05/2013  14:26:00     -434.593     -137.336      -10.878      206.688      163.545       94.207    42720.135    26746.876     8874.962       14.308        3.917      455.777      101.705        0.050      351.075       32.709      855.157
07/05/2013  14:27:00     -475.161     -107.032      -18.331      129.167      155.807       75.031    16684.166    24275.721     5629.626       14.207        2.329      487.067       62.453        0.016      351.010       32.594      855.176
07/05/2013  14:28:00     -223.840      -66.232        2.094      152.700      145.329       76.412    23317.371    21120.517     5838.847        5.238        2.514      233.433       75.227        0.104      351.199       32.924      855.166
07/05/2013  14:29:00     -225.110     -222.959        7.708      211.900      154.750      103.645    44901.449    23947.518    10742.293        9.000        3.980      316.836      124.312        0.154      351.093       32.740      855.132
07/05/2013  14:30:00     -503.557     -139.322      -27.912      241.706      191.228       98.553    58421.592    36567.993     9712.623       18.921        5.235      522.475      118.239        0.051      350.956       32.502      855.109
07/05/2013  14:31:00     -386.673     -231.597      -16.080      215.267      200.047      114.694    46340.087    40018.624    13154.825       15.144        4.976      450.725      121.979        0.073      351.079       32.715      855.081
07/05/2013  14:32:00     -201.529      -75.721       21.081      208.391      125.532       93.221    43426.743    15758.329     8690.218        5.732        3.394      215.285      103.439        0.231      351.116       32.781      855.109
07/05/2013  14:33:00     -184.136      -30.497       17.422      170.878      120.169       69.916    29199.167    14440.562     4888.265        4.182        2.426      186.645       75.335        0.163      351.416       33.304      855.123
07/05/2013  14:34:00     -252.528       17.487        3.465      152.050      106.367       70.327    23119.189    11313.836     4945.887        5.173        1.969      253.132       70.722        0.078      351.404       33.283      855.113
07/05/2013  14:35:00     -142.255       -3.768       27.437      133.294      125.762       76.155    17767.391    15816.089     5799.582        3.019        1.969      142.305       68.345        0.231      351.556       33.549      855.094
07/05/2013  14:36:00     -494.063     -112.477      -24.324      360.036      212.915      102.695   129626.200    45332.636    10546.186       22.139        9.275      506.704      118.498        0.055      351.153       32.845      855.029
07/05/2013  14:37:00     -366.652     -149.860        4.369      237.560      186.689       88.555    56434.731    34852.817     7841.981       12.800        4.956      396.096      106.748        0.073      351.205       32.934      855.056
07/05/2013  14:38:00     -337.503     -200.263       -7.015      229.525      154.298      100.003    52681.605    23807.819    10000.508       12.026        4.324      392.445      105.659        0.072      351.148       32.835      855.065
07/05/2013  14:39:00     -353.205     -273.982        7.097      264.305      233.485      114.973    69856.893    54515.302    13218.785       16.870        6.880      447.012      142.088        0.101      350.997       32.571      855.021
07/05/2013  14:40:00     -409.136     -202.400      -13.369      200.712      171.635       93.841    40285.417    29458.586     8806.083       14.353        3.928      456.462       92.573        0.041      351.064       32.688      855.005
07/05/2013  14:41:00     -516.425      -76.301      -24.631      175.660      214.427       86.582    30856.611    45978.959     7496.484       17.871        4.217      522.032       79.956        0.023      351.183       32.895      854.962
07/05/2013  14:42:00     -247.161     -181.290       13.592      194.923      219.277       92.955    37994.932    48082.385     8640.699        9.441        4.736      306.521      101.913        0.111      351.116       32.780      854.950
07/05/2013  14:43:00     -351.431     -202.292       14.882      254.036      224.103      112.615    64534.305    50222.375    12682.220       14.602        6.372      405.494      144.985        0.128      351.176       32.884      854.907
07/05/2013  14:44:00     -277.855     -231.932       -0.071      209.197      176.732      101.153    43763.439    31234.056    10231.959       10.810        4.261      361.934      116.452        0.104      351.206       32.935      854.961
07/05/2013  14:45:00     -458.902     -182.143      -17.643      301.452      210.388      103.675    90873.142    44263.063    10748.423       19.495        7.294      493.728      125.734        0.065      350.978       32.539      854.950
07/05/2013  14:46:00     -318.990      -74.187        1.562      266.285      161.320       96.291    70907.807    26023.985     9271.993       10.671        5.310      327.503      118.813        0.132      351.268       33.047      854.944
07/05/2013  14:47:00     -338.548     -119.997       -2.608      236.546      205.771       91.288    55953.790    42341.589     8333.575       11.780        5.331      359.185       98.482        0.075      351.299       33.098      854.942
07/05/2013  14:48:00     -348.281     -226.314      -16.853      184.660      152.570       99.075    34099.214    23277.708     9815.941       11.998        3.360      415.352       91.705        0.049      351.113       32.772      854.966
07/05/2013  14:49:00     -398.838     -200.085      -26.899      208.889      158.741       89.367    43634.564    25198.673     7986.488       13.831        3.841      446.213       79.008        0.031      351.191       32.911      854.964
07/05/2013  14:50:00     -303.281     -179.239      -17.290      152.158      134.674       70.593    23152.007    18137.151     4983.363        8.533        2.314      352.287       72.562        0.042      350.971       32.526      854.999
07/05/2013  14:51:00     -280.955     -209.764      -10.795      175.618      162.320       81.077    30841.597    26347.912     6573.473        9.340        3.188      350.623       78.956        0.051      351.108       32.767      854.970
07/05/2013  14:52:00     -221.872     -124.123        5.420      186.227      111.618       84.450    34680.391    12458.684     7131.873        5.946        2.714      254.232       88.047        0.120      351.237       32.991      854.974
07/05/2013  14:53:00     -353.285      -42.621      -20.034      146.712      147.955       71.510    21524.482    21890.721     5113.619        8.777        2.426      355.847       73.906        0.043      351.235       32.987      854.965
07/05/2013  14:54:00     -190.145      -40.880       15.111      234.922      159.931       79.109    55188.268    25577.956     6258.278        6.252        4.351      194.490       99.762        0.263      351.249       33.013      854.925
07/05/2013  14:55:00     -282.918      -81.675      -13.504       82.964       64.246       45.013     6883.107     4127.504     2026.191        4.996        0.652      294.472       40.984        0.019      351.279       33.062      854.917
07/05/2013  14:56:00     -149.472      -96.795       27.419      151.428      146.397       87.319    22930.453    21432.005     7624.538        4.221        2.599      178.076      106.661        0.359      351.364       33.215      854.883
07/05/2013  14:57:00     -335.520     -201.940       -3.035      198.335      175.900       82.539    39336.907    30940.846     6812.627       11.521        3.855      391.604       82.323        0.044      351.211       32.945      854.892
07/05/2013  14:58:00     -309.053     -170.527        0.366      204.284      132.459       82.915    41732.119    17545.490     6874.860        9.536        3.308      352.978       98.256        0.077      351.310       33.118      854.909
07/05/2013  14:59:00     -461.724     -126.234      -18.166      272.242      178.314       97.344    74115.784    31795.740     9475.902       17.240        5.769      478.669       95.380        0.040      351.037       32.644      854.906
07/05/2013  15:00:00     -495.699     -235.588      -16.344      308.603      253.257      108.636    95235.952    64138.964    11801.797       23.630        8.559      548.834      135.581        0.061      350.971       32.529      854.912
07/05/2013  15:01:00     -315.737     -180.176      -12.474      266.705      197.263      103.364    71131.823    38912.676    10684.065       12.649        6.036      363.529      130.036        0.128      350.859       32.333      854.932
07/05/2013  15:02:00     -327.937     -180.213       -2.550      186.983      166.507       85.468    34962.519    27724.618     7304.743       10.499        3.500      374.192      101.615        0.074      350.901       32.406      854.894
07/05/2013  15:03:00     -338.234      -11.938       -5.870      153.480      123.365       81.671    23555.997    15219.005     6670.180        8.000        2.272      338.444       87.421        0.067      351.113       32.773      854.889
07/05/2013  15:04:00     -372.742     -199.236        3.688      210.493      166.778       78.852    44307.471    27814.852     6217.589       12.848        3.917      422.648       89.196        0.045      351.088       32.730      854.883
07/05/2013  15:05:00     -329.444     -195.302        5.710      172.806      166.142       98.992    29862.078    27603.191     9799.483       10.697        3.363      382.983       98.131        0.066      351.137       32.815      854.884
07/05/2013  15:06:00     -285.098     -196.820      -26.935      133.356      125.183       62.075    17783.927    15670.792     3853.286        7.902        1.865      346.437       62.329        0.032      351.223       32.966      854.904
07/05/2013  15:07:00     -115.828      -95.677        7.764       76.077       75.245       41.494     5787.691     5661.795     1721.729        1.790        0.659      150.234       39.752        0.070      351.446       33.357      854.923
07/05/2013  15:08:00     -145.464     -219.317       19.846      186.668      149.579       82.877    34844.911    22373.752     6868.580        6.686        3.204      263.172       89.118        0.115      351.391       33.259      854.930
07/05/2013  15:09:00     -262.022     -227.847        3.527      204.435      200.236       97.663    41793.869    40094.359     9538.047       10.599        4.571      347.232      107.533        0.096      351.299       33.099      854.931
07/05/2013  15:10:00     -277.194     -219.622       13.009      166.130      147.665       86.249    27599.276    21805.053     7438.830        9.103        2.842      353.653       91.689        0.067      351.106       32.762      854.955
07/05/2013  15:11:00     -248.991     -198.406      -18.978      131.243      164.252       76.523    17224.840    26978.810     5855.841        7.588        2.503      318.373       67.297        0.045      350.984       32.550      854.919
07/05/2013  15:12:00     -177.675     -129.708       23.585      173.243      154.639       79.501    30013.154    23913.160     6320.444        5.459        3.012      219.983       65.413        0.088      351.158       32.853      854.877
07/05/2013  15:13:00      -75.513     -132.776       -5.979      117.864      105.227       56.255    13891.905    11072.666     3164.595        2.574        1.406      152.747       34.233        0.050      351.271       33.050      854.882
07/05/2013  15:14:00     -146.126      -35.739       14.955       89.795       88.591       53.721     8063.196     7848.344     2885.954        2.082        0.940      150.433       50.446        0.112      351.514       33.474      854.862
07/05/2013  15:15:00     -414.530     -179.497       -3.269      248.324      189.226      106.857    61664.877    35806.389    11418.462       15.646        5.444      451.723      128.027        0.080      351.250       33.012      854.855
07/05/2013  15:16:00     -239.197     -235.142       10.218      221.116      142.887       83.295    48892.357    20416.566     6938.048        9.441        3.812      335.421       96.147        0.082      350.933       32.460      854.853
07/05/2013  15:17:00     -293.762     -206.077       13.603      179.882      145.330       76.546    32357.505    21120.910     5859.327        9.413        2.967      358.837       85.397        0.057      351.030       32.631      854.858
07/05/2013  15:18:00     -188.378     -246.316       -2.872      171.348      162.188       90.778    29360.057    26304.801     8240.658        8.002        3.195      310.093      100.868        0.106      351.148       32.834      854.856
07/05/2013  15:19:00     -135.160     -344.083      -25.788      276.946      179.787      112.319    76699.029    32323.470    12615.527       12.946        6.082      369.677      108.974        0.087      350.881       32.370      854.840
07/05/2013  15:20:00     -185.611     -318.995       18.597      223.723      180.129       99.906    50051.959    32446.525     9981.219       11.450        4.624      369.066       98.934        0.072      350.870       32.350      854.871
07/05/2013  15:21:00     -212.159     -295.196      -15.663      170.315      172.488      103.855    29007.360    29752.141    10785.844       10.096        3.477      363.527       85.524        0.055      350.815       32.255      854.877
07/05/2013  15:22:00     -142.395     -215.468        7.496      162.819      170.124       81.371    26510.000    28942.332     6621.303        6.440        3.104      258.269       93.308        0.131      351.172       32.877      854.853
07/05/2013  15:23:00      -34.019     -219.355        3.652      130.434      115.411       80.061    17013.066    13319.677     6409.711        4.301        1.837      221.978       56.837        0.066      351.025       32.622      854.888
07/05/2013  15:24:00       67.577     -113.366       48.894      109.203      157.099       72.945    11925.343    24680.085     5321.043        3.086        2.096      131.979       70.903        0.289      350.991       32.565      854.829
07/05/2013  15:25:00       49.234     -282.628      -12.257      123.964      122.052       70.889    15367.096    14896.707     5025.288        5.886        1.764      286.884       40.799        0.020      350.698       32.051      854.797
07/05/2013  15:26:00     -201.445     -130.344        9.761      208.035      102.521       69.064    43278.744    10510.546     4769.797        5.810        2.928      239.937       84.783        0.125      351.136       32.815      854.761
07/05/2013  15:27:00     -329.038     -275.112       -1.966      218.178      178.197       90.143    47601.746    31754.118     8125.713       13.570        4.374      428.897      103.334        0.058      351.034       32.638      854.818
07/05/2013  15:28:00     -335.384     -129.539        8.400      268.570      188.129      100.242    72129.898    35392.540    10048.513       12.343        5.879      359.531      124.594        0.120      351.068       32.696      854.762
07/05/2013  15:29:00     -226.957     -121.621        9.576      159.827      110.804       73.550    25544.642    12277.416     5409.568        5.480        2.162      257.490       67.522        0.069      350.971       32.527      854.748
07/05/2013  15:30:00     -141.458     -223.353       10.518      187.068      145.728       74.751    34994.374    21236.638     5587.773        6.590        3.091      264.380       77.532        0.086      351.040       32.648      854.723
07/05/2013  15:31:00     -155.934     -204.773      -17.322      146.528      115.635       84.909    21470.359    13371.430     7209.578        5.429        2.103      257.386       47.968        0.035      351.270       33.048      854.751
07/05/2013  15:32:00     -107.473     -215.210       24.096      114.307      145.020       65.137    13066.103    21030.665     4242.811        4.839        1.917      240.553       65.686        0.075      351.393       33.261      854.779
07/05/2013  15:33:00     -213.433     -194.826       -4.623      131.275      141.382       57.131    17233.232    19988.909     3263.936        6.200        2.024      288.983       56.214        0.038      351.246       33.005      854.749
07/05/2013  15:34:00     -206.425     -138.273        6.025      162.409      117.961       67.858    26376.670    13914.889     4604.762        5.332        2.245      248.456       59.239        0.057      351.325       33.144      854.734
07/05/2013  15:35:00     -152.390     -145.426       17.822      203.380      158.269       90.376    41363.587    25049.145     8167.733        5.962        3.729      210.645       81.097        0.148      351.438       33.341      854.711
07/05/2013  15:36:00     -156.665     -130.661       -3.791      199.420      113.383       96.305    39768.180    12855.754     9274.562        5.175        3.095      204.001       90.693        0.198      351.320       33.136      854.732
07/05/2013  15:37:00     -294.943     -361.658       -6.215      195.447      167.455      104.188    38199.560    28041.115    10855.230       14.745        3.855      466.678      104.270        0.050      350.919       32.436      854.732
07/05/2013  15:38:00     -142.114     -217.039      -10.071      145.801      173.062       83.496    21258.027    29950.583     6971.663        6.278        2.909      259.427       63.880        0.061      350.885       32.378      854.701
07/05/2013  15:39:00      -23.894     -278.753      -16.571      218.847      142.799       79.495    47894.086    20391.516     6319.497        7.656        3.730      279.775       70.542        0.064      351.012       32.598      854.667
07/05/2013  15:40:00     -180.697      -94.193       14.943      137.975      117.192       65.466    19037.151    13733.905     4285.777        3.939        1.853      203.773       74.344        0.133      351.429       33.325      854.663
07/05/2013  15:41:00     -265.625     -167.188        1.536      159.824      152.694       65.299    25543.810    23315.508     4263.900        7.581        2.656      313.860       63.031        0.040      351.308       33.116      854.648
07/05/2013  15:42:00     -239.405     -188.542       20.892      162.876      163.141       81.378    26528.605    26614.953     6622.454        7.652        2.988      304.734       74.339        0.060      351.133       32.809      854.611
07/05/2013  15:43:00     -405.191     -288.477      -22.603      203.698      122.708       84.354    41492.811    15057.220     7115.619       15.578        3.183      497.392       83.288        0.028      351.161       32.857      854.620
07/05/2013  15:44:00     -446.759     -228.937       -8.376      291.789      167.410      101.531    85140.860    28026.026    10308.620       18.775        6.174      502.002      130.119        0.067      351.143       32.827      854.579
07/05/2013  15:45:00     -437.772     -181.093      -21.516      260.263      170.504       99.427    67736.876    29071.784     9885.674       16.578        5.335      473.750      111.680        0.056      350.888       32.382      854.545
07/05/2013  15:46:00     -314.862     -130.236      -10.793      192.401      205.207       84.925    37018.077    42110.000     7212.248       10.126        4.317      340.734       81.840        0.058      351.151       32.839      854.516
07/05/2013  15:47:00     -235.523     -236.110        8.867      186.191      131.113       82.001    34667.223    17190.497     6724.210        8.493        2.929      333.495       83.310        0.062      351.308       33.116      854.599
07/05/2013  15:48:00     -268.284     -315.654       -1.018      154.633      179.622       87.089    23911.503    32263.941     7584.476       11.767        3.188      414.263       88.599        0.046      351.310       33.119      854.625
07/05/2013  15:49:00     -201.292     -236.594       -1.667      127.969      200.601       62.516    16376.147    40240.726     3908.229        7.850        3.026      310.636       72.003        0.054      351.306       33.110      854.618
07/05/2013  15:50:00     -138.959      -14.493       14.336      117.927       90.873       57.180    13906.805     8257.950     3269.569        2.257        1.272      139.713       69.562        0.248      351.539       33.518      854.610
07/05/2013  15:51:00     -100.380      -81.613       27.270      116.388      127.296       49.427    13546.200    16204.343     2443.002        2.483        1.610      129.370       31.882        0.061      351.451       33.364      854.609
07/05/2013  15:52:00     -168.968     -148.140        5.783      146.866      113.672       66.767    21569.716    12921.328     4457.807        4.473        1.947      224.712       56.773        0.064      351.319       33.132      854.614
07/05/2013  15:53:00     -299.417     -265.849      -24.414      141.349      123.618       79.091    19979.428    15281.319     6255.309       10.121        2.076      400.408       57.107        0.020      351.194       32.914      854.617
07/05/2013  15:54:00     -254.199     -207.078       -2.443      138.724      145.769       65.067    19244.292    21248.638     4233.655        7.611        2.236      327.870       62.945        0.037      351.247       33.007      854.608
07/05/2013  15:55:00     -255.315     -152.771       13.385      190.015      108.801       65.751    36105.733    11837.640     4323.229        7.047        2.613      297.531       61.736        0.043      351.135       32.814      854.596
07/05/2013  15:56:00     -453.516     -250.174      -14.821      226.799      178.742       83.849    51437.607    31948.803     7030.700       17.943        4.521      517.942      100.156        0.037      350.934       32.464      854.541
07/05/2013  15:57:00     -206.396     -200.772        1.908      174.051      141.701       65.606    30293.767    20079.112     4304.116        6.878        2.734      287.939       63.164        0.048      351.204       32.932      854.588
07/05/2013  15:58:00     -219.103     -289.635        4.663      256.348      180.176       83.620    65714.527    32463.437     6992.236       11.852        5.259      363.173      103.796        0.082      351.054       32.671      854.567
07/05/2013  15:59:00     -509.696     -348.211        1.728      200.698      165.110       96.723    40279.722    27261.237     9355.411       22.895        3.845      617.285       98.624        0.026      350.947       32.486      854.547
07/05/2013  16:00:00     -306.778     -234.175       13.415      235.774      190.709       94.225    55589.401    36369.770     8878.435       12.496        5.042      385.942      120.053        0.097      350.980       32.543      854.532
07/05/2013  16:01:00     -468.125     -252.099      -29.110      207.055      142.869       86.750    42871.757    20411.632     7525.539       17.716        3.540      531.691       92.937        0.031      350.867       32.345      854.563
07/05/2013  16:02:00     -440.050     -242.507      -24.800      193.529      136.890       81.978    37453.352    18738.924     6720.350       15.798        3.146      502.447       76.044        0.023      351.019       32.610      854.518
07/05/2013  16:03:00     -505.475     -251.262      -21.844      206.186      188.592       96.981    42512.569    35567.037     9405.224       20.328        4.374      564.480       94.118        0.028      350.918       32.435      854.517
07/05/2013  16:04:00     -375.618     -237.437       -2.277      217.150      179.984       95.835    47154.172    32394.270     9184.363       14.308        4.437      444.371       99.366        0.050      350.924       32.445      854.504
07/05/2013  16:05:00     -345.464     -201.597       10.525      225.500      126.488       85.684    50850.263    15999.162     7341.730       11.713        3.710      399.983       91.337        0.052      351.004       32.585      854.474
07/05/2013  16:06:00     -375.533     -138.012      -16.161      189.021      176.219       94.820    35728.807    31053.022     8990.865       11.804        3.789      400.090       86.608        0.047      351.132       32.807      854.483
07/05/2013  16:07:00     -335.894     -195.805       -1.232      186.374      133.738       75.972    34735.176    17885.854     5771.819       10.477        2.920      388.799       84.228        0.047      350.944       32.481      854.471
07/05/2013  16:08:00     -497.956      -46.793      -32.123      228.872      158.778       77.341    52382.435    25210.478     5981.567       16.736        4.179      500.149       89.047        0.032      350.913       32.427      854.476
07/05/2013  16:09:00     -664.974     -145.616      -32.351      253.386      219.646      106.011    64204.227    48244.307    11238.340       29.404        6.184      680.731      126.807        0.035      350.873       32.356      854.447
07/05/2013  16:10:00     -467.506     -176.217      -12.664      297.279      244.300      107.542    88374.627    59682.664    11565.315       20.467        7.981      499.614      127.936        0.066      350.989       32.559      854.463
07/05/2013  16:11:00     -491.240     -252.591      -18.895      211.364      182.430      102.288    44674.703    33280.673    10462.733       19.693        4.421      552.376       93.190        0.028      350.777       32.190      854.484
07/05/2013  16:12:00     -353.112     -226.096        0.185      249.601      169.704      104.925    62300.513    28799.612    11009.281       13.894        5.105      419.294      121.604        0.084      350.888       32.383      854.461
07/05/2013  16:13:00     -395.640      -78.273        0.286      182.672      149.966       95.665    33369.222    22489.786     9151.723       11.382        3.251      403.308       89.175        0.049      350.944       32.480      854.453
07/05/2013  16:14:00     -473.269      -92.307       -6.368      182.789      125.855       82.331    33411.965    15839.364     6778.334       14.428        2.801      482.187       87.203        0.033      350.922       32.442      854.446
07/05/2013  16:15:00     -515.819     -120.811      -11.881      218.406      135.426       98.243    47701.301    18340.150     9651.760       17.823        3.785      529.778      113.070        0.046      350.820       32.264      854.435
07/05/2013  16:16:00     -647.624     -132.313      -28.020      307.419      164.734      104.073    94506.297    27137.221    10831.206       28.506        6.624      661.002      126.743        0.037      350.714       32.080      854.431
07/05/2013  16:17:00     -324.338      -83.116       -0.980      195.574      160.416       95.207    38249.247    25733.387     9064.395        9.256        3.652      334.818       98.265        0.086      350.941       32.475      854.421
07/05/2013  16:18:00     -208.922     -127.019        1.159      156.161      146.207       63.705    24386.349    21376.491     4058.316        5.479        2.491      244.504       68.365        0.078      351.021       32.615      854.407
07/05/2013  16:19:00     -459.726     -321.205        5.234      200.939      198.817      103.025    40376.468    39528.205    10614.151       20.252        4.526      560.822      111.693        0.040      350.868       32.347      854.414
07/05/2013  16:20:00     -430.523     -221.772      -10.962      278.989      158.751      119.553    77835.034    25201.842    14292.920       17.597        5.866      484.286      139.496        0.083      350.718       32.087      854.419
07/05/2013  16:21:00     -370.471     -261.558      -15.863      183.184      133.361       86.388    33556.345    17785.111     7462.893       13.235        2.940      453.499       85.553        0.036      350.743       32.130      854.394
07/05/2013  16:22:00     -363.933     -247.730        0.079      218.630      130.805      104.497    47799.270    17109.993    10919.675       13.481        3.791      440.247      116.681        0.070      350.896       32.396      854.374
07/05/2013  16:23:00     -508.191     -130.440       -7.215      218.649      181.715       97.275    47807.417    33020.190     9462.512       18.279        4.515      524.664      109.990        0.044      350.926       32.448      854.387
07/05/2013  16:24:00     -359.936      -48.990        1.795      239.752      168.217       96.099    57480.960    28297.121     9235.102       11.347        4.751      363.254      119.516        0.108      351.163       32.862      854.388
07/05/2013  16:25:00     -355.614        4.052        3.817      233.477      153.325       89.201    54511.500    23508.435     7956.861       10.622        4.299      355.637       92.960        0.068      351.122       32.790      854.362
07/05/2013  16:26:00     -492.448     -220.333      -22.779      250.109      204.181      105.240    62554.278    41690.026    11075.439       20.342        5.766      539.492       99.356        0.034      350.959       32.505      854.376
07/05/2013  16:27:00     -369.825     -270.427        9.415      282.178      219.979      118.757    79624.492    48390.823    14103.259       17.603        7.106      458.150      155.538        0.115      350.887       32.381      854.379
07/05/2013  16:28:00     -322.009     -158.115       -1.496      187.775      214.596       91.513    35259.512    46051.302     8374.679       10.917        4.484      358.734       97.924        0.075      351.015       32.602      854.364
07/05/2013  16:29:00     -435.886     -202.387        1.269      190.155      195.838       83.361    36158.986    38352.646     6949.033       15.619        4.073      480.580       87.108        0.033      351.003       32.583      854.391
07/05/2013  16:30:00     -262.793       22.623        8.712      197.437      140.700       67.010    38981.397    19796.409     4490.371        6.645        3.163      263.765       74.219        0.079      351.100       32.752      854.399
07/05/2013  16:31:00     -329.283     -137.662      -11.346      177.456      138.782       63.381    31490.465    19260.435     4017.173        9.113        2.738      356.901       69.843        0.038      350.935       32.464      854.407
07/05/2013  16:32:00     -353.502     -183.004      -16.309      164.389      175.559       79.214    27023.602    30820.870     6274.794       11.141        3.206      398.063       78.571        0.039      350.709       32.071      854.372
07/05/2013  16:33:00     -433.725     -291.014       -2.100      268.371      205.426      103.389    72023.105    42199.961    10689.282       19.884        6.246      522.309      119.098        0.052      350.785       32.204      854.371
07/05/2013  16:34:00     -410.975     -218.987       -4.678      245.752      181.573       94.643    60393.920    32968.577     8957.241       15.958        5.116      465.678      120.176        0.067      350.797       32.226      854.350
07/05/2013  16:35:00     -411.850     -261.313       11.460      257.576      169.169      101.087    66345.471    28618.199    10218.668       17.159        5.259      487.755      108.885        0.050      350.661       31.986      854.381
07/05/2013  16:36:00     -260.478     -231.885        1.400      194.493      148.064       99.345    37827.361    21922.987     9869.360        9.561        3.481      348.740       94.313        0.073      350.674       32.010      854.351
07/05/2013  16:37:00     -297.525     -120.929        5.006      237.293      192.653       96.807    56307.971    37115.297     9371.687       10.296        5.140      321.162      112.077        0.122      350.816       32.256      854.402
07/05/2013  16:38:00     -420.479      -46.578       -9.530      208.025      148.583       88.798    43274.460    22076.801     7885.093       12.614        3.662      423.051       97.383        0.053      350.977       32.537      854.375
07/05/2013  16:39:00     -569.635     -123.301      -18.399      221.039      158.416       97.446    48858.432    25095.757     9495.803       21.172        4.172      582.827      116.319        0.040      350.790       32.212      854.415
07/05/2013  16:40:00     -447.390     -138.794      -15.770      232.759      115.433       75.347    54176.882    13324.702     5677.145       14.641        3.659      468.425       99.311        0.045      350.893       32.390      854.386
07/05/2013  16:41:00     -333.928      -22.923       -5.366      166.308      161.509       64.482    27658.453    26085.122     4157.906        8.497        2.895      334.714       70.903        0.045      351.056       32.674      854.414
07/05/2013  16:42:00     -254.337     -145.996        2.163      155.073      169.098       69.810    24047.757    28593.985     4873.464        7.175        2.876      293.261       65.887        0.050      351.050       32.664      854.413
07/05/2013  16:43:00     -330.510      -47.558       -4.548      200.256      192.609       84.143    40102.557    37098.082     7079.968        9.788        4.214      333.914       93.285        0.078      351.004       32.584      854.407
07/05/2013  16:44:00     -304.015     -101.533       -6.801      205.585      194.406       85.419    42265.359    37793.722     7296.370        9.505        4.368      320.522       85.938        0.072      350.924       32.445      854.378
07/05/2013  16:45:00     -343.466     -173.647        6.360      199.020      196.893       77.913    39608.769    38767.024     6070.396       11.629        4.222      384.867      102.795        0.071      350.902       32.407      854.352
07/05/2013  16:46:00     -407.577     -112.550       -8.160      304.127      158.623       98.954    92493.344    25161.386     9791.980       15.312        6.372      422.832      128.571        0.092      350.867       32.346      854.339
07/05/2013  16:47:00     -476.995      -47.825      -25.055      272.763      158.530       99.099    74399.654    25131.823     9820.554       16.987        5.468      479.386      102.112        0.045      350.820       32.265      854.332
07/05/2013  16:48:00     -330.022     -140.438       -3.174      238.291      195.594      104.543    56782.441    38257.009    10929.283       11.729        5.298      358.661      117.959        0.108      350.892       32.390      854.264
07/05/2013  16:49:00     -299.049     -121.771        5.764      192.802      166.137       92.261    37172.522    27601.530     8512.183        8.877        3.664      322.891      103.563        0.103      351.049       32.664      854.281
07/05/2013  16:50:00     -449.754     -205.107       -4.488      259.967      202.514      115.200    67582.929    41012.078    13271.119       18.309        6.093      494.315      123.088        0.062      350.883       32.374      854.304
07/05/2013  16:51:00     -568.614     -258.402      -15.508      249.065      254.610      125.057    62033.442    64826.129    15639.290       26.639        7.125      624.575      132.343        0.045      350.754       32.149      854.282
07/05/2013  16:52:00     -463.403     -369.345      -17.594      274.289      227.573      117.894    75234.333    51789.625    13898.940       24.617        7.046      592.586      144.692        0.060      350.767       32.172      854.302
07/05/2013  16:53:00     -594.957     -386.499       -6.050      317.109      230.938      146.004   100557.971    53332.415    21317.245       33.926        8.760      709.475      171.307        0.058      350.760       32.159      854.279
07/05/2013  16:54:00     -500.939     -230.281      -14.000      262.982      179.841      106.402    69159.541    32342.731    11321.312       20.847        5.641      551.334      127.839        0.054      350.789       32.211      854.339
07/05/2013  16:55:00     -415.639     -347.690       -4.088      209.952      189.132      102.137    44079.858    35770.734    10431.963       19.195        4.514      541.889      107.984        0.040      350.761       32.161      854.365
07/05/2013  16:56:00     -534.227     -327.801      -17.791      198.273      176.295       99.827    39312.077    31079.822     9965.511       23.675        4.018      626.779       98.874        0.025      350.627       31.928      854.359
07/05/2013  16:57:00     -321.374      -58.348       -2.591      221.145      117.819       75.725    48905.312    13881.284     5734.241        8.759        3.426      326.628       88.857        0.074      350.862       32.338      854.387
07/05/2013  16:58:00     -263.777       65.000       -6.360      214.622      135.673       73.557    46062.413    18407.160     5410.687        7.185        3.494      271.668       79.602        0.086      350.992       32.566      854.370
07/05/2013  16:59:00     -176.553     -116.990       25.260      171.990      140.431       95.419    29580.556    19720.871     9104.726        5.194        2.920      211.797       96.839        0.209      351.084       32.725      854.340
07/05/2013  17:00:00     -535.395     -103.902       -2.618      238.575      196.164      116.057    56918.048    38480.300    13469.280       20.314        5.443      545.384      112.923        0.043      350.817       32.260      854.357
07/05/2013  17:01:00     -455.113      -90.953      -21.377      230.529      167.140       91.626    53143.739    27935.615     8395.303       15.265        4.474      464.113       93.536        0.041      350.779       32.193      854.352
07/05/2013  17:02:00     -407.475     -190.838       -1.816      217.412      194.542       87.180    47268.002    37846.653     7600.351       14.757        4.636      449.950       90.224        0.040      350.816       32.258      854.326
07/05/2013  17:03:00     -292.377      -87.991       -6.039      189.824      181.698       86.344    36033.284    33014.141     7455.247        8.487        3.825      305.331       89.183        0.085      350.855       32.325      854.332
07/05/2013  17:04:00     -337.969     -171.620        2.024      267.115      187.512      120.703    71350.565    35160.836    14569.228       13.236        6.054      379.047      133.772        0.125      350.907       32.416      854.320
07/05/2013  17:05:00     -433.200     -149.874      -13.580      306.637      215.254      109.306    94026.123    46334.413    11947.770       18.128        7.615      458.393      133.903        0.085      350.797       32.224      854.313
07/05/2013  17:06:00     -499.794      -16.134        0.551      281.133      232.787      110.978    79035.607    54189.919    12316.213       19.777        7.277      500.054      132.818        0.071      350.771       32.179      854.333
07/05/2013  17:07:00     -605.227     -183.447      -36.197      224.481      230.521      110.711    50391.569    53140.075    12256.991       25.850        5.789      632.418      106.746        0.028      350.706       32.066      854.353
07/05/2013  17:08:00     -637.503     -118.773      -17.880      261.100      208.776      119.796    68173.458    43587.294    14351.157       27.345        6.306      648.473      124.688        0.037      350.574       31.836      854.336
07/05/2013  17:09:00     -511.063      -68.815      -27.649      196.559      138.705       92.699    38635.377    19238.958     8593.153       16.656        3.323      515.675       94.560        0.034      350.555       31.801      854.361
07/05/2013  17:10:00     -428.615      -99.911      -14.912      246.075      149.970       90.912    60552.783    22490.978     8264.991       14.259        4.565      440.106      116.012        0.069      350.665       31.994      854.337
07/05/2013  17:11:00     -285.649     -238.698       -5.427      215.006      188.883       97.135    46227.643    35676.974     9435.235       11.495        4.567      372.253      112.155        0.091      350.738       32.122      854.319
07/05/2013  17:12:00     -210.889      -68.776       12.154      266.821      134.708       78.426    71193.499    18146.120     6150.577        7.240        4.775      221.821      117.053        0.278      350.881       32.372      854.339
07/05/2013  17:13:00     -244.784     -101.406       15.874      209.331      179.065       91.139    43819.478    32064.391     8306.263        7.731        4.210      264.958      101.960        0.148      350.869       32.350      854.359
07/05/2013  17:14:00     -284.374     -164.826       23.301      230.301      165.539      110.299    53038.677    27403.148    12165.915       10.057        4.630      328.689      122.360        0.139      350.799       32.227      854.366
07/05/2013  17:15:00     -477.437      -99.337      -11.434      253.873      203.771       91.414    64451.632    41522.585     8356.518       17.611        5.717      487.662      106.811        0.048      350.573       31.834      854.385
07/05/2013  17:16:00     -377.762     -107.982       -2.665      311.038      178.027      119.479    96744.613    31693.466    14275.336       14.851        7.136      392.892      159.813        0.165      350.639       31.948      854.380
07/05/2013  17:17:00     -376.266     -112.929      -17.349      207.218      141.315       84.971    42939.216    19970.007     7220.060       11.237        3.506      392.847       96.090        0.060      350.620       31.915      854.349
07/05/2013  17:18:00     -225.064     -112.273       -3.340      205.178      157.095       76.640    42097.920    24678.996     5873.710        6.795        3.633      251.514       97.998        0.152      350.832       32.286      854.359
07/05/2013  17:19:00     -392.081     -187.516       -8.709      269.424      198.201      109.846    72589.257    39283.453    12066.118       15.643        6.197      434.614      127.193        0.086      350.764       32.168      854.386
07/05/2013  17:20:00     -447.800     -136.196       -1.888      252.923      194.998      108.992    63970.082    38024.145    11879.317       16.645        5.694      468.053      124.589        0.071      350.558       31.808      854.402
07/05/2013  17:21:00     -197.748     -160.596      -10.526      200.144      145.114       85.083    40057.724    21058.139     7239.041        6.667        3.418      254.746      107.251        0.177      350.724       32.097      854.359
07/05/2013  17:22:00     -480.878     -217.381        0.642      302.067      206.568      102.755    91244.526    42670.296    10558.543       21.146        7.224      527.729      135.089        0.066      350.669       32.001      854.375
07/05/2013  17:23:00     -440.127     -168.749      -19.994      256.224      180.403       98.325    65650.955    32545.385     9667.867       16.520        5.393      471.368      112.262        0.057      350.593       31.868      854.358
07/05/2013  17:24:00     -313.482      -50.764       19.914      171.214      177.196       90.052    29314.181    31398.477     8109.336        8.502        3.441      317.566       93.922        0.087      350.735       32.116      854.359
07/05/2013  17:25:00     -372.626      -91.909       12.923      228.478      167.762       84.834    52202.109    28144.154     7196.788       11.749        4.377      383.793      102.984        0.072      350.734       32.116      854.348
07/05/2013  17:26:00     -406.029     -206.597        8.046      224.471      192.475       85.701    50387.119    37046.616     7344.654       15.117        4.739      455.567      101.475        0.050      350.773       32.184      854.372
07/05/2013  17:27:00     -565.348     -390.258      -15.350      264.685      190.258      121.508    70058.259    36198.169    14764.146       29.656        6.051      686.965      148.699        0.047      350.449       31.617      854.342
07/05/2013  17:28:00     -361.640     -303.787       12.670      260.792      215.427      121.132    68012.417    46408.669    14673.035       17.614        6.455      472.303      119.121        0.064      350.533       31.764      854.312
07/05/2013  17:29:00     -389.752     -255.998       -0.546      336.957      233.910      109.894   113540.325    54713.960    12076.640       19.885        9.017      466.306      136.274        0.085      350.571       31.831      854.315
07/05/2013  17:30:00     -336.366     -102.056       14.922      208.864      155.200       89.158    43624.157    24087.161     7949.135        9.971        3.783      351.508       92.760        0.070      350.614       31.906      854.338
07/05/2013  17:31:00     -516.190      -71.883       -6.521      276.831      207.087      120.577    76635.343    42884.952    14538.782       20.283        6.703      521.171      151.892        0.085      350.621       31.917      854.320
07/05/2013  17:32:00     -494.225     -185.023        3.361      269.956      225.118      107.850    72876.055    50678.063    11631.663       20.682        6.759      527.723      124.950        0.056      350.516       31.737      854.357
07/05/2013  17:33:00     -378.063      -89.928       18.237      252.857      195.713      113.207    63936.708    38303.699    12815.718       13.318        5.753      388.611      128.831        0.110      350.607       31.895      854.388
07/05/2013  17:34:00     -469.571     -183.107      -13.191      253.057      213.149       99.218    64037.830    45432.695     9844.274       18.673        5.966      504.009      105.356        0.044      350.435       31.595      854.385
07/05/2013  17:35:00     -377.769     -259.740       -2.784      189.604      160.160       89.579    35949.554    25651.150     8024.363       13.989        3.481      458.448      102.374        0.050      350.468       31.651      854.373
07/05/2013  17:36:00     -360.704     -158.726      -22.841      183.858      126.345       81.487    33803.776    15963.132     6640.150       10.610        2.820      394.083       88.083        0.050      350.485       31.680      854.394
07/05/2013  17:37:00     -446.845     -261.641      -16.222      240.257      183.649       89.607    57723.308    33726.980     8029.395       18.391        4.974      517.809       89.863        0.030      350.422       31.571      854.398
07/05/2013  17:38:00     -499.416     -210.124      -19.231      285.592      175.434       95.907    81562.965    30777.111     9198.230       20.771        6.077      541.820      119.484        0.049      350.473       31.661      854.400
07/05/2013  17:39:00     -381.958     -140.455       -6.607      245.129      191.756      102.040    60088.068    36770.404    10412.220       13.645        5.364      406.963      129.745        0.102      350.559       31.809      854.425
07/05/2013  17:40:00     -264.496     -157.182      -11.532      160.244      135.469       80.266    25678.009    18351.895     6442.611        7.262        2.524      307.675       82.656        0.072      350.520       31.743      854.430
07/05/2013  17:41:00     -171.342      -89.349       10.193      185.788      111.597       80.094    34517.210    12453.795     6414.997        4.540        2.669      193.239       96.088        0.247      350.506       31.718      854.390
07/05/2013  17:42:00     -397.631     -169.368       -7.421      222.784      131.908       92.300    49632.781    17399.827     8519.364       13.119        3.778      432.199      102.008        0.056      350.618       31.912      854.373
07/05/2013  17:43:00     -565.856     -153.654      -28.812      228.658      219.246      105.251    52284.439    48069.017    11077.861       22.801        5.572      586.347      107.833        0.034      350.513       31.730      854.430
07/05/2013  17:44:00     -495.673      -87.105      -18.217      216.612      164.456       93.206    46920.606    27045.714     8687.439       16.812        4.133      503.269      100.778        0.040      350.464       31.644      854.485
07/05/2013  17:45:00     -348.581      -75.341      -11.825      212.605      191.509       91.707    45200.731    36675.849     8410.121       10.879        4.514      356.630      106.457        0.089      350.447       31.614      854.482
07/05/2013  17:46:00     -384.447      -57.712       -3.116      242.641      192.143       87.492    58874.437    36918.969     7654.868       12.727        5.172      388.755      108.515        0.078      350.459       31.635      854.441
07/05/2013  17:47:00     -403.241      -32.786      -14.387      204.556      152.405       69.551    41843.202    23227.230     4837.323       11.688        3.495      404.572       81.923        0.041      350.463       31.643      854.492
07/05/2013  17:48:00     -258.189     -175.594       -4.518      163.827      146.110       70.351    26839.353    21348.109     4949.283        7.532        2.657      312.241       75.198        0.058      350.536       31.769      854.498
07/05/2013  17:49:00     -311.800     -105.868      -12.515      145.394      118.895       82.316    21139.284    14136.081     6775.983        7.531        2.103      329.283       75.379        0.052      350.611       31.900      854.493
07/05/2013  17:50:00     -235.182      -66.529       18.612      230.098      110.967       77.417    52945.253    12313.715     5993.381        6.565        3.563      244.411       97.965        0.161      350.493       31.696      854.480
07/05/2013  17:51:00     -263.367     -207.945      -12.667      116.745      112.691       67.773    13629.337    12699.239     4593.185        7.184        1.546      335.564       57.026        0.029      350.543       31.781      854.477
07/05/2013  17:52:00     -320.305     -132.925        3.216      194.018      109.769       69.387    37642.917    12049.257     4814.523        8.738        2.725      346.791       77.793        0.050      350.517       31.736      854.475
07/05/2013  17:53:00     -438.613     -231.190       -7.093      176.756      146.333       93.335    31242.536    21413.442     8711.381       15.361        3.068      495.812       92.339        0.035      350.414       31.557      854.460
07/05/2013  17:54:00     -388.609     -183.465      -16.093      225.291      211.541      105.222    50755.837    44749.658    11071.572       14.574        5.329      429.740      117.015        0.074      350.410       31.552      854.451
07/05/2013  17:55:00     -369.216      -44.837        0.902      194.010      143.153       89.628    37640.016    20492.744     8033.256       10.224        3.308      371.929       89.914        0.058      350.612       31.901      854.496
07/05/2013  17:56:00     -423.818     -250.690        2.197      182.183      135.197       82.913    33190.592    18278.100     6874.592       15.040        2.917      492.410       81.929        0.028      350.350       31.447      854.504
07/05/2013  17:57:00     -106.437     -161.480       18.257      145.895      134.340       65.106    21285.369    18047.118     4238.790        4.065        2.179      193.402       73.657        0.145      350.419       31.568      854.474
07/05/2013  17:58:00     -139.952     -172.136        9.861      146.440      129.313       66.387    21444.732    16721.799     4407.174        4.594        2.129      221.850       71.882        0.105      350.460       31.638      854.449
07/05/2013  17:59:00     -508.498     -133.679      -40.111      120.546      233.126       67.835    14531.233    54347.877     4601.620       17.575        3.674      525.775       55.993        0.011      350.366       31.473      854.438
07/05/2013  18:00:00     -399.224      -93.620      -17.364      267.926      166.515       87.012    71784.589    27727.349     7571.086       13.774        5.354      410.054      116.407        0.081      350.407       31.546      854.416
07/05/2013  18:01:00     -276.411      -13.046       -5.027      174.453      131.460       73.413    30433.939    17281.860     5389.490        6.484        2.655      276.719       71.498        0.067      350.521       31.743      854.410
07/05/2013  18:02:00     -346.695     -196.214       -1.020      236.238      138.233       87.213    55808.219    19108.470     7606.137       12.059        4.126      398.368      106.435        0.071      350.550       31.794      854.426
07/05/2013  18:03:00     -522.420     -139.623      -18.976      214.266      198.581       88.693    45909.875    39434.284     7866.360       19.298        4.661      540.756       98.877        0.033      350.378       31.497      854.423
07/05/2013  18:04:00     -323.066      -20.330       -4.518      224.939      137.552      106.850    50597.656    18920.498    11416.950        9.285        4.047      323.705      124.622        0.148      350.361       31.466      854.408
07/05/2013  18:05:00     -303.645     -173.952       -0.928      194.845      192.399       97.994    37964.447    37017.416     9602.832       10.351        4.229      349.943      106.020        0.092      350.443       31.610      854.392
07/05/2013  18:06:00     -278.868     -104.650        2.192      205.225      181.909       94.178    42117.350    33090.788     8869.467        8.638        4.204      297.857       98.544        0.109      350.393       31.521      854.390
07/05/2013  18:07:00     -374.360     -112.343       -0.909      216.401      188.284       93.425    46829.374    35450.836     8728.285       12.187        4.550      390.854       98.934        0.064      350.337       31.425      854.416
07/05/2013  18:08:00     -476.021      -81.759       -9.595      214.814      215.729       96.398    46144.877    46539.150     9292.568       16.765        5.099      482.991      110.336        0.052      350.291       31.343      854.392
07/05/2013  18:09:00     -231.013     -134.244        0.589      152.205      147.513       77.594    23166.498    21760.060     6020.798        6.116        2.547      267.187       84.551        0.100      350.433       31.591      854.405
07/05/2013  18:10:00     -176.302     -159.856       -0.074      160.530      151.793       81.284    25769.754    23040.981     6607.054        5.602        2.771      237.984       74.547        0.098      350.413       31.556      854.403
07/05/2013  18:11:00     -567.712     -367.757      -22.466      320.105      234.448      115.006   102466.979    54966.061    13226.315       31.432        8.533      676.419      128.865        0.036      350.253       31.277      854.384
07/05/2013  18:12:00     -537.321     -353.088      -17.003      239.660      173.313       91.220    57437.055    30037.292     8321.033       25.472        4.790      642.950       87.378        0.018      350.128       31.060      854.449
07/05/2013  18:13:00     -268.841     -301.488       -0.606      173.916      134.343       85.341    30246.921    18048.127     7283.024       10.936        2.779      403.943       93.232        0.053      350.180       31.151      854.449
07/05/2013  18:14:00     -191.360     -140.790      -10.420      142.674      119.041       69.824    20355.746    14170.875     4875.383        4.797        1.970      237.573       61.136        0.066      350.354       31.455      854.380
07/05/2013  18:15:00     -308.425     -233.485      -11.161      153.995      160.411       81.954    23714.584    25731.570     6716.416       10.295        2.808      386.834       83.331        0.046      350.164       31.122      854.474
07/05/2013  18:16:00     -262.200     -136.462       -1.100      159.848      127.103       62.637    25551.530    16155.090     3923.402        6.649        2.282      295.586       59.942        0.041      350.238       31.252      854.469
07/05/2013  18:17:00     -259.606     -180.777      -15.330      125.849       86.545       53.431    15837.939     7489.961     2854.917        6.324        1.309      316.347       59.527        0.035      350.150       31.097      854.483
07/05/2013  18:18:00     -218.691      -59.532       -8.269      108.939       78.190       50.176    11867.673     6113.713     2517.637        3.596        1.025      226.649       60.353        0.071      350.194       31.175      854.508
07/05/2013  18:19:00     -190.449      -90.508        8.912      132.043       98.096       50.048    17435.347     9622.875     2504.780        3.705        1.478      210.861       53.484        0.064      350.275       31.318      854.510
07/05/2013  18:20:00     -264.786      -50.973      -10.180      118.357      114.643       53.005    14008.387    13143.061     2809.538        5.138        1.498      269.647       50.975        0.036      350.174       31.140      854.478
07/05/2013  18:21:00     -473.241     -191.988      -10.861      212.728      171.188       84.589    45253.175    29305.321     7155.230       17.131        4.086      510.702       93.841        0.034      350.190       31.168      854.499
07/05/2013  18:22:00     -488.236     -272.911       -8.086      240.749      186.028       97.356    57960.075    34606.439     9478.243       20.746        5.102      559.334      127.569        0.052      350.120       31.045      854.494
07/05/2013  18:23:00     -238.815     -158.626        8.977      153.186      129.707       74.501    23466.098    16824.031     5550.389        6.405        2.292      286.696       71.492        0.062      350.189       31.167      854.511
07/05/2013  18:24:00     -418.572     -120.931        3.457      214.571      181.243       85.282    46040.866    32848.847     7273.063       13.798        4.308      435.691       92.516        0.045      350.215       31.211      854.486
07/05/2013  18:25:00     -315.272     -107.328      -19.782      216.023      140.723       90.049    46666.066    19802.904     8108.811        9.293        3.729      333.040      110.158        0.109      350.273       31.311      854.503
07/05/2013  18:26:00     -252.325     -165.547       -2.497      203.654      159.470       78.065    41474.896    25430.742     6094.126        8.203        3.650      301.785       93.707        0.096      350.258       31.288      854.524
07/05/2013  18:27:00     -321.798     -139.663      -17.125      189.439      116.886       84.544    35887.283    13662.311     7147.734        9.001        2.835      350.799       87.041        0.062      350.184       31.158      854.517
07/05/2013  18:28:00     -213.010      -16.146       -2.460      116.162      101.944       63.806    13493.530    10392.485     4071.268        3.679        1.398      213.621       65.047        0.093      350.252       31.275      854.513
07/05/2013  18:29:00     -192.247     -172.741        7.434      214.518      134.112       75.695    46018.034    17986.095     5729.718        6.828        3.487      258.454       81.846        0.100      350.357       31.457      854.547
07/05/2013  18:30:00     -305.787     -207.790        9.483      173.820      153.169       82.796    30213.308    23460.793     6855.166        9.864        3.026      369.706       91.865        0.062      350.105       31.021      854.573
07/05/2013  18:31:00     -237.224     -134.949       -9.777      115.653       88.121       50.895    13375.652     7765.340     2590.319        4.915        1.187      272.922       54.222        0.039      350.106       31.020      854.535
07/05/2013  18:32:00     -232.181     -112.940       -8.985      107.698      109.801       59.936    11598.914    12056.303     3592.321        4.699        1.362      258.193       51.385        0.040      350.189       31.166      854.561
07/05/2013  18:33:00     -180.191      -41.081       -8.278       87.964       73.105       43.609     7737.605     5344.367     1901.771        2.460        0.749      184.814       43.704        0.056      350.284       31.332      854.583
07/05/2013  18:34:00     -181.052       36.405      -17.274       89.952       87.346       48.750     8091.308     7629.306     2376.589        2.625        0.905      184.676       33.918        0.034      350.301       31.363      854.574
07/05/2013  18:35:00     -330.416     -103.263        9.205      268.910      148.105       96.402    72312.598    21934.966     9293.315       11.171        5.177      346.176      119.080        0.118      350.129       31.062      854.538
07/05/2013  18:36:00     -264.586     -136.786       11.418      204.705      143.916       77.850    41904.093    20711.939     6060.629        7.875        3.434      297.852       99.752        0.112      350.064       30.948      854.568
07/05/2013  18:37:00     -274.318     -182.383       -0.675      189.798      164.076       88.204    36023.204    26921.072     7779.894        8.961        3.536      329.415       98.008        0.089      350.087       30.989      854.573
07/05/2013  18:38:00     -324.568     -230.619       -5.733      191.160      132.532       92.803    36541.980    17564.639     8612.330       11.063        3.136      398.157       99.189        0.062      350.058       30.938      854.599
07/05/2013  18:39:00     -298.265     -110.939       -3.539      148.651      155.760       77.505    22097.032    24261.252     6007.094        7.681        2.618      318.228       82.231        0.067      350.098       31.008      854.635
07/05/2013  18:40:00     -277.233      -19.596       -4.897      142.628      128.037       74.616    20342.782    16393.388     5567.495        5.978        2.115      277.924       80.738        0.084      350.039       30.906      854.661
07/05/2013  18:41:00     -470.579      -36.834      -34.006      136.369      112.632       72.774    18596.632    12686.011     5296.103       13.026        1.829      472.018       64.105        0.018      349.963       30.774      854.661
07/05/2013  18:42:00     -220.804      -42.704       -5.449      104.118      104.264       53.803    10840.551    10870.949     2894.796        3.760        1.230      224.896       30.311        0.018      350.201       31.186      854.648
07/05/2013  18:43:00     -470.746      -94.876      -33.419      153.789      139.310       56.032    23650.947    19407.285     3139.637       13.895        2.310      480.212       56.451        0.014      349.998       30.833      854.643
07/05/2013  18:44:00     -392.617     -108.064       -0.364      162.180      147.469       70.070    26302.350    21747.111     4909.834       10.938        2.648      407.217       81.629        0.040      349.976       30.796      854.623
07/05/2013  18:45:00     -271.470     -133.248       -2.194      125.123      103.571       63.756    15655.692    10726.865     4064.878        6.095        1.522      302.409       67.827        0.050      350.032       30.892      854.678
07/05/2013  18:46:00     -198.125      -58.503       -3.490      137.959      139.345       58.367    19032.664    19416.966     3406.662        4.226        2.093      206.582       69.525        0.113      350.115       31.036      854.667
07/05/2013  18:47:00     -202.998     -169.484        3.272      142.926      136.391       77.068    20427.984    18602.394     5939.530        5.745        2.248      264.448       86.234        0.106      350.113       31.034      854.689
07/05/2013  18:48:00     -324.210     -133.285        4.258      150.331      141.291       73.900    22599.282    19963.196     5461.280        8.545        2.401      350.539       78.978        0.051      350.078       30.973      854.676
07/05/2013  18:49:00     -518.349     -243.879       -7.794      215.919      200.491       98.926    46621.072    40196.643     9786.276       21.239        4.830      572.854      101.301        0.031      350.007       30.850      854.689
07/05/2013  18:50:00     -315.423     -134.516       15.871      218.364      202.077       94.984    47682.723    40835.273     9022.052       10.767        4.877      342.909      108.843        0.101      349.942       30.738      854.713
07/05/2013  18:51:00     -364.463     -279.894      -10.639      198.224      146.578       91.445    39292.891    21485.029     8362.249       14.020        3.457      459.537      114.276        0.062      349.915       30.692      854.744
07/05/2013  18:52:00     -195.926     -198.520        8.764      155.789      115.616       74.249    24270.086    13367.119     5512.985        6.050        2.158      278.921       77.844        0.078      349.925       30.709      854.808
07/05/2013  18:53:00     -267.072     -279.518        3.809      197.549      200.352       92.224    39025.747    40141.008     8505.185       11.855        4.384      386.598       91.119        0.056      349.926       30.708      854.810
07/05/2013  18:54:00     -350.966     -257.648        1.433      221.548      156.852       78.761    49083.348    24602.572     6203.264       13.471        3.994      435.384       88.719        0.042      349.879       30.628      854.810
07/05/2013  18:55:00     -302.230     -211.057        3.899      197.837      143.456       93.956    39139.473    20579.661     8827.687       10.221        3.427      368.630      103.148        0.078      349.877       30.625      854.809
07/05/2013  18:56:00     -244.515     -165.669        6.210      135.116      119.002       73.489    18256.322    14161.467     5400.699        6.254        1.891      295.353       68.339        0.054      349.913       30.688      854.833
07/05/2013  18:57:00     -241.931      -85.425       -8.843      100.775       93.263       47.688    10155.689     8697.966     2274.142        4.351        1.056      256.569       40.969        0.025      349.946       30.744      854.855
07/05/2013  18:58:00     -232.127      -75.805       -6.053      114.959      145.191       69.018    13215.610    21080.368     4763.427        4.935        1.953      244.191       65.250        0.071      349.905       30.674      854.852
07/05/2013  18:59:00     -218.763      -97.294        2.091      117.912      107.042       56.916    13903.209    11458.075     3239.432        4.296        1.430      239.423       64.488        0.073      349.864       30.601      854.838
07/05/2013  19:00:00     -111.308      -97.610        2.428       90.470       50.183       38.560     8184.743     2518.352     1486.891        1.705        0.609      148.045       35.193        0.057      349.925       30.710      854.851
07/05/2013  19:01:00     -161.507     -114.735        0.227      124.558       96.042       57.832    15514.769     9223.988     3344.580        3.366        1.404      198.112       47.576        0.058      349.931       30.719      854.863
07/05/2013  19:02:00     -276.518     -150.185        4.538      132.023      114.817       63.741    17430.099    13182.900     4062.911        6.685        1.734      314.671       68.780        0.048      349.855       30.585      854.834
07/05/2013  19:03:00     -246.781      -70.381       -3.029      119.875       93.948       53.018    14370.130     8826.217     2810.903        4.593        1.300      256.621       56.455        0.048      349.932       30.720      854.816
07/05/2013  19:04:00     -282.870      -50.218       -3.328      104.725      102.581       54.637    10967.356    10522.774     2985.210        5.351        1.224      287.293       49.550        0.030      349.928       30.715      854.853
07/05/2013  19:05:00     -346.224     -239.969      -16.085      112.657      105.851       61.851    12691.624    11204.407     3825.500       10.271        1.386      421.256       57.855        0.019      349.822       30.527      854.872
07/05/2013  19:06:00     -185.916     -143.010        1.697      141.150      115.866       70.591    19923.441    13425.039     4983.119        4.667        1.917      234.556       77.165        0.108      349.807       30.503      854.831
07/05/2013  19:07:00     -242.579      -99.379       -2.984      152.138      117.245       64.962    23146.022    13746.481     4220.075        5.491        2.056      262.146       65.136        0.062      349.827       30.536      854.826
07/05/2013  19:08:00     -374.931     -117.073      -18.027      154.227      134.850       71.609    23785.923    18184.464     5127.916       10.084        2.355      392.784       78.972        0.040      349.728       30.364      854.840
07/05/2013  19:09:00     -253.482      -59.092       12.337      135.744      128.851       67.026    18426.530    16602.513     4492.460        5.370        1.976      260.278       60.125        0.053      349.745       30.394      854.813
07/05/2013  19:10:00     -321.404      -23.397       -8.594      137.999      105.864       60.338    19043.856    11207.164     3640.693        6.890        1.695      322.254       67.249        0.044      349.713       30.338      854.815
07/05/2013  19:11:00     -186.564       19.047      -12.888       87.916       56.235       36.336     7729.295     3162.355     1320.329        2.377        0.611      187.534       42.089        0.050      349.739       30.385      854.808
07/05/2013  19:12:00     -125.861      -64.269       14.431       92.521       64.516       47.479     8560.183     4162.357     2254.287        1.758        0.749      141.320       37.890        0.072      349.799       30.491      854.824
07/05/2013  19:13:00     -208.689     -157.066       -1.092      123.427      103.851       60.314    15234.229    10785.029     3637.773        4.893        1.483      261.191       67.897        0.068      349.749       30.402      854.825
07/05/2013  19:14:00     -342.694     -220.032      -11.520      233.258      187.079       78.842    54409.297    34998.601     6216.109       13.079        4.781      407.250       90.001        0.049      349.753       30.407      854.847
07/05/2013  19:15:00     -328.592     -250.241        3.700      195.807      149.345       73.211    38340.222    22304.056     5359.837       11.829        3.300      413.030       77.647        0.035      349.714       30.341      854.857
07/05/2013  19:16:00     -313.341     -177.550       -9.048      148.628      126.464       81.067    22090.168    15993.200     6571.836        8.721        2.233      360.148       75.549        0.044      349.688       30.295      854.881
07/05/2013  19:17:00     -214.009     -106.774        4.115      175.382      120.293       76.937    30758.944    14470.366     5919.251        5.417        2.557      239.167       92.311        0.149      349.679       30.281      854.878
07/05/2013  19:18:00     -226.697     -120.724        4.696      146.405      153.166       63.286    21434.465    23459.853     4005.069        5.743        2.445      256.838       68.684        0.072      349.739       30.385      854.881
07/05/2013  19:19:00     -338.627     -245.399       -6.877      204.228      144.752       87.382    41709.276    20953.122     7635.572       12.260        3.515      418.197       95.439        0.052      349.656       30.240      854.899
07/05/2013  19:20:00     -415.705     -158.388       -5.456      217.362      163.423       78.986    47246.283    26707.233     6238.771       13.904        4.010      444.857      104.575        0.055      349.710       30.334      854.952
07/05/2013  19:21:00     -236.944     -252.309       19.292      199.034      182.843       87.859    39614.533    33431.582     7719.177       10.045        4.038      346.125       96.572        0.078      349.693       30.303      854.972
07/05/2013  19:22:00     -239.826     -225.164        4.130      164.322      116.960       79.374    27001.787    13679.590     6300.258        7.760        2.349      328.961       83.160        0.064      349.632       30.199      854.984
07/05/2013  19:23:00     -276.914     -269.488      -19.214      144.677      222.351       72.303    20931.550    49439.764     5227.790       11.262        3.780      386.401       71.794        0.035      349.643       30.218      854.933
07/05/2013  19:24:00     -310.915     -132.547       -0.168      163.116      140.617       80.052    26606.668    19773.264     6408.291        8.350        2.639      337.990       76.297        0.051      349.600       30.145      854.978
07/05/2013  19:25:00     -277.464     -154.359       -0.666      213.976      133.058       85.579    45785.911    17704.446     7323.770        8.580        3.541      317.510      113.548        0.128      349.572       30.096      854.979
07/05/2013  19:26:00     -313.813     -185.843      -21.650      110.088      100.016       57.479    12119.318    10003.239     3303.834        7.945        1.271      364.714       54.790        0.023      349.590       30.127      855.010
07/05/2013  19:27:00     -295.656     -135.447      -11.693      182.033      113.965       70.075    33135.836    12987.943     4910.569        7.845        2.552      325.205       87.632        0.073      349.568       30.089      855.028
07/05/2013  19:28:00     -179.922      -87.489       -4.461      133.009      100.852       57.771    17691.283    10171.100     3337.485        3.562        1.560      200.066       55.117        0.076      349.576       30.103      855.005
07/05/2013  19:29:00     -322.231     -253.486        0.516      248.247      193.566       95.131    61626.679    37467.968     9049.960       13.809        5.407      409.985      127.770        0.097      349.527       30.017      855.009
07/05/2013  19:30:00     -297.106     -217.237        3.091      206.526      149.800       90.063    42652.795    22440.076     8111.362       10.432        3.660      368.054       90.706        0.061      349.499       29.967      854.986
07/05/2013  19:31:00     -380.769     -144.537      -23.512      132.839      180.275       81.678    17646.183    32498.936     6671.275       11.161        2.841      407.279       80.332        0.039      349.511       29.988      855.004
07/05/2013  19:32:00     -344.932      -40.867        5.203      190.755      152.920       89.744    36387.338    23384.398     8053.948        9.424        3.391      347.345       83.552        0.058      349.514       29.994      855.030
07/05/2013  19:33:00     -333.317     -150.310      -19.600      185.695      138.973       69.634    34482.786    19313.495     4848.936        9.635        2.932      365.641       84.483        0.053      349.477       29.929      854.963
07/05/2013  19:34:00     -389.729     -143.605      -19.587      173.168      174.644       89.461    29987.038    30500.650     8003.187       12.068        3.425      415.344       91.903        0.049      349.445       29.873      854.949
07/05/2013  19:35:00     -398.002     -219.708      -20.047      150.746      132.550       74.041    22724.324    17569.591     5482.047       12.642        2.289      454.617       76.555        0.028      349.458       29.897      854.984
07/05/2013  19:36:00     -216.574     -134.200       16.054      160.964      140.701       81.895    25909.359    19796.773     6706.754        5.878        2.621      254.782       88.706        0.121      349.484       29.942      855.012
07/05/2013  19:37:00     -189.247     -193.112       -1.758      127.117      126.078       70.029    16158.681    15895.727     4904.029        5.503        1.848      270.383       69.451        0.066      349.488       29.948      855.052
07/05/2013  19:38:00     -348.702     -204.538      -14.687      158.345      138.819       72.130    25073.188    19270.603     5202.721       10.659        2.477      404.264       79.242        0.038      349.458       29.897      855.076
07/05/2013  19:39:00     -344.043     -143.584      -14.169      147.013      128.724       71.582    21612.881    16569.827     5123.920        9.124        2.165      372.802       65.471        0.031      349.451       29.885      855.101
07/05/2013  19:40:00     -253.567     -167.589       -1.206      128.846      103.922       58.919    16601.232    10799.827     3471.449        6.162        1.544      303.944       59.038        0.038      349.445       29.874      855.100
07/05/2013  19:41:00     -224.930      -78.542        7.474      113.022      103.737       64.203    12773.957    10761.327     4121.998        4.223        1.383      238.249       65.589        0.076      349.410       29.815      855.106
07/05/2013  19:42:00     -214.038      -29.930       -8.087       78.874       73.329       39.091     6221.088     5377.172     1528.130        2.995        0.656      216.120       27.668        0.016      349.433       29.854      855.106
07/05/2013  19:43:00     -183.425     -120.504        8.299      132.518      136.611       47.059    17561.012    18662.542     2214.544        4.333        1.922      219.468       57.759        0.069      349.385       29.771      855.146
07/05/2013  19:44:00     -260.318     -186.862        5.364      134.891      114.111       63.860    18195.621    13021.302     4078.153        6.900        1.765      320.442       67.818        0.045      349.325       29.667      855.154
07/05/2013  19:45:00     -308.256     -223.454      -18.102      135.320       78.091       56.871    18311.569     6098.128     3234.295        8.646        1.382      380.727       56.081        0.022      349.309       29.638      855.163
07/05/2013  19:46:00     -270.843      -55.862       -7.019      195.513      117.713       76.141    38225.451    13856.412     5797.518        6.719        2.894      276.543       81.666        0.087      349.269       29.572      855.127
07/05/2013  19:47:00     -280.055     -234.479        0.095      152.981      159.866       75.583    23403.313    25557.184     5712.733        9.403        2.734      365.255       80.168        0.048      349.276       29.581      855.183
07/05/2013  19:48:00     -496.255     -395.997      -41.593      181.017      176.190       99.755    32767.284    31042.890     9951.151       23.927        3.688      634.888       92.872        0.021      349.272       29.576      855.171
07/05/2013  19:49:00     -297.303     -163.070      -13.305      250.940      179.536       90.036    62970.908    32233.140     8106.571       10.921        5.166      339.089      105.684        0.097      349.290       29.607      855.122
07/05/2013  19:50:00     -357.773     -175.952        8.473      229.376      215.245      113.040    52613.483    46330.469    12778.088       13.535        5.586      398.699      125.275        0.099      349.248       29.531      855.124
07/05/2013  19:51:00     -367.951      -91.115        0.625      178.367      158.074       96.177    31814.684    24987.515     9249.981       10.486        3.303      379.065       97.660        0.066      349.288       29.603      855.176
07/05/2013  19:52:00     -339.683     -152.207       -5.133      245.781      187.183       90.383    60408.440    35037.638     8169.150       12.108        5.181      372.225      115.016        0.095      349.298       29.621      855.202
07/05/2013  19:53:00     -430.185     -216.153      -27.992      189.437      212.235       93.699    35886.247    45043.766     8779.537       16.112        4.485      481.437      103.005        0.046      349.263       29.560      855.218
07/05/2013  19:54:00     -303.345     -164.177      -10.233      178.068      160.149       76.750    31708.254    25647.583     5890.515        9.115        3.162      344.924       73.735        0.046      349.218       29.482      855.225
07/05/2013  19:55:00     -302.890      -51.122       -9.971      151.592      116.578       60.446    22980.145    13590.445     3653.743        6.733        2.011      307.174       68.843        0.050      349.186       29.427      855.238
07/05/2013  19:56:00     -298.365      -52.489      -11.324      140.377      101.660       57.518    19705.629    10334.821     3308.279        6.262        1.667      302.946       61.683        0.041      349.133       29.334      855.198
07/05/2013  19:57:00     -300.122      -70.061      -11.285      171.383      108.307       58.771    29372.020    11730.487     3453.977        6.982        2.228      308.191       69.783        0.051      349.083       29.246      855.173
07/05/2013  19:58:00     -396.266     -225.638        6.032      259.234      233.200      107.613    67202.129    54382.247    11580.626       17.054        6.658      456.003      126.100        0.076      349.097       29.270      855.199
07/05/2013  19:59:00     -388.310     -203.061       -7.824      228.812      153.596       97.948    52355.155    23591.653     9593.744       13.879        4.277      438.199      106.776        0.059      349.118       29.308      855.232
07/05/2013  20:00:00     -420.082     -204.308      -16.631      194.763      145.697       69.524    37932.647    21227.658     4833.602       14.123        3.200      467.130       74.088        0.025      349.195       29.441      855.262
07/05/2013  20:01:00     -356.090     -193.056      -14.129      179.118      134.887       89.985    32083.292    18194.413     8097.358       11.131        2.919      405.057       90.698        0.050      349.187       29.428      855.261
07/05/2013  20:02:00     -470.117     -145.324      -19.462      248.827      158.918       94.496    61914.893    25254.829     8929.400       16.928        4.805      492.066      114.093        0.054      349.159       29.380      855.267
07/05/2013  20:03:00     -366.141     -113.462        0.737      175.649      126.705       84.894    30852.456    16054.035     7207.039       10.051        2.706      383.318       93.340        0.059      349.143       29.353      855.309
07/05/2013  20:04:00     -287.419     -138.550       18.898      191.583      201.926       90.603    36703.980    40774.193     8208.846        9.391        4.284      319.070      105.882        0.110      349.092       29.262      855.336
07/05/2013  20:05:00     -327.761     -120.485      -16.598      160.105      118.651       82.886    25633.534    14077.963     6870.119        8.439        2.329      349.205       99.756        0.082      349.079       29.239      855.361
07/05/2013  20:06:00     -302.157     -141.634        1.502      161.153       92.439       66.857    25970.276     8544.960     4469.877        7.517        1.949      333.705       80.119        0.058      349.047       29.185      855.372
07/05/2013  20:07:00     -313.248      -85.381      -33.912      114.317       91.712       58.562    13068.423     8411.022     3429.522        6.573        1.245      324.676       54.885        0.029      349.016       29.129      855.390
07/05/2013  20:08:00     -352.728      -57.325      -18.199      104.765       82.212       54.292    10975.659     6758.748     2947.672        7.435        1.034      357.356       46.883        0.017      348.993       29.091      855.376
07/05/2013  20:09:00     -340.459     -107.194       -4.479      123.060       87.973       59.741    15143.661     7739.206     3568.943        7.693        1.323      356.935       62.666        0.031      348.962       29.038      855.377
07/05/2013  20:10:00     -296.379      -60.012       -8.182      129.953       95.285       49.623    16887.822     9079.217     2462.456        5.996        1.421      302.394       51.168        0.029      348.876       28.889      855.404
07/05/2013  20:11:00     -318.213      -88.847       -4.617      140.147       87.011       60.130    19641.259     7570.866     3615.629        7.000        1.541      330.384       56.575        0.029      348.874       28.885      855.403
07/05/2013  20:12:00     -221.460      -17.735        2.314      130.492       93.896       53.304    17028.070     8816.367     2841.316        3.902        1.434      222.169       63.273        0.081      348.822       28.794      855.423
07/05/2013  20:13:00     -187.564      -18.008        0.711      122.436       83.515       57.577    14990.688     6974.792     3315.163        3.039        1.264      188.426       66.694        0.125      348.767       28.698      855.431
07/05/2013  20:14:00     -240.751      -40.936       -9.254      100.471       80.333       43.512    10094.462     6453.435     1893.324        3.908        0.922      244.206       48.994        0.040      348.752       28.674      855.452
07/05/2013  20:15:00     -329.837      -36.632      -16.267       88.390       93.381       52.628     7812.740     8720.046     2769.736        6.485        0.965      331.865       44.099        0.018      348.740       28.653      855.463
07/05/2013  20:16:00     -263.413      -40.698      -10.219      100.132       67.314       52.975    10026.513     4531.222     2806.368        4.425        0.868      266.538       56.578        0.045      348.684       28.556      855.480
07/05/2013  20:17:00     -277.153      -89.277      -11.737      105.042       97.067       58.900    11033.797     9422.084     3469.203        5.442        1.196      291.177       49.963        0.029      348.711       28.604      855.493
07/05/2013  20:18:00     -271.138      -47.802       -8.499      104.096       86.109       51.378    10836.027     7414.770     2639.722        4.838        1.045      275.319       47.944        0.030      348.683       28.553      855.488
07/05/2013  20:19:00     -385.917      -62.016      -33.916      105.943      109.153       61.135    11223.998    11914.337     3737.522        9.040        1.344      390.868       59.237        0.023      348.690       28.568      855.475
07/05/2013  20:20:00     -305.021     -120.355       -7.912      137.183       87.126       60.476    18819.158     7590.989     3657.378        6.882        1.503      327.907       65.403        0.040      348.677       28.546      855.462
07/05/2013  20:21:00     -405.678      -62.348      -22.455      132.361       88.046       69.155    17519.396     7752.091     4782.391        9.950        1.503      410.441       72.563        0.031      348.669       28.531      855.480
07/05/2013  20:22:00     -309.947      -75.733      -17.524      111.617      103.556       58.787    12458.411    10723.880     3455.957        6.437        1.332      319.066       57.151        0.032      348.660       28.516      855.481
07/05/2013  20:23:00     -334.434      -80.989       -8.107      157.195      100.740       71.089    24710.267    10148.596     5053.618        7.918        1.996      344.101       77.944        0.051      348.644       28.487      855.491
07/05/2013  20:24:00     -468.086       30.444      -44.496      120.036       71.685       47.645    14408.669     5138.796     2270.043       12.191        1.091      469.075       53.299        0.013      348.684       28.557      855.484
07/05/2013  20:25:00     -372.113      -46.718      -40.896       89.920       93.227       49.456     8085.672     8691.259     2445.935        8.077        0.961      375.034       45.688        0.015      348.636       28.471      855.487
07/05/2013  20:26:00     -290.415     -109.131       -8.053      169.819       98.397       63.500    28838.356     9681.977     4032.213        6.943        2.128      310.242       83.524        0.072      348.579       28.374      855.512
07/05/2013  20:27:00     -412.463     -164.116      -19.240      161.295      111.856       77.740    26016.147    12511.842     6043.439       12.099        2.229      443.914       69.345        0.024      348.609       28.426      855.532
07/05/2013  20:28:00     -202.503     -143.463       10.489      140.078      131.461       69.458    19621.901    17281.924     4824.364        5.171        2.086      248.172       73.690        0.088      348.631       28.464      855.528
07/05/2013  20:29:00     -376.815       35.602      -41.955      116.818       84.782       55.607    13646.554     7188.057     3092.088        8.447        1.196      378.493       53.609        0.020      348.578       28.372      855.533
07/05/2013  20:30:00     -361.700       21.196      -23.605      170.410      131.228       69.987    29039.615    17220.734     4898.205        9.149        2.558      362.320       69.649        0.037      348.570       28.358      855.502
07/05/2013  20:31:00     -269.996      -50.855      -17.212      114.125      104.451       59.022    13024.552    10909.993     3483.595        5.159        1.371      274.743       63.349        0.053      348.560       28.340      855.526
07/05/2013  20:32:00     -324.172      -57.953      -32.633       89.850      106.226       49.331     8072.935    11284.026     2433.501        6.565        1.090      329.311       43.562        0.017      348.510       28.255      855.553
07/05/2013  20:33:00     -296.036      -62.234      -31.211       81.712       97.124       41.224     6676.861     9433.071     1699.377        5.514        0.890      302.507       37.803        0.016      348.444       28.142      855.583
07/05/2013  20:34:00     -336.063      -70.294        0.566      149.007       89.813       66.305    22203.120     8066.395     4396.317        7.627        1.733      343.336       72.797        0.045      348.400       28.065      855.608
07/05/2013  20:35:00     -324.243      -94.307        2.798      103.353       87.247       53.525    10681.787     7612.086     2864.927        6.759        1.058      337.680       48.606        0.021      348.369       28.011      855.604
07/05/2013  20:36:00     -220.062      -77.056      -15.021      110.907       77.475       47.993    12300.364     6002.453     2303.349        3.759        1.030      233.163       41.668        0.032      348.331       27.946      855.608
07/05/2013  20:37:00     -270.015     -106.544      -12.094      127.217       88.930       55.101    16184.082     7908.482     3036.079        5.576        1.356      290.275       62.769        0.047      348.272       27.843      855.609
07/05/2013  20:38:00     -249.935     -110.377       -4.224       78.371       65.202       49.106     6142.060     4251.336     2411.375        4.373        0.640      273.223       45.999        0.028      348.264       27.827      855.617
07/05/2013  20:39:00     -268.957      -45.414       -8.948       94.639       64.552       44.904     8956.591     4166.982     2016.341        4.481        0.757      272.764       46.571        0.029      348.277       27.852      855.624
07/05/2013  20:40:00     -249.683      -85.628       -7.974       77.346       76.871       45.668     5982.459     5909.200     2085.540        4.185        0.699      263.958       36.541        0.019      348.216       27.747      855.625
07/05/2013  20:41:00     -228.917      -61.754        1.642      106.048       93.784       55.655    11246.174     8795.463     3097.521        3.967        1.157      237.100       57.849        0.060      348.221       27.757      855.632
07/05/2013  20:42:00     -272.075      -73.065       -1.428      112.462       86.173       52.157    12647.655     7425.843     2720.328        5.108        1.140      281.715       49.605        0.031      348.170       27.667      855.653
07/05/2013  20:43:00     -268.968      -77.313       -7.486      102.397       94.200       41.384    10485.170     8873.706     1712.606        4.972        1.054      279.859       40.237        0.021      348.184       27.692      855.664
07/05/2013  20:44:00     -325.586     -124.280      -10.060      110.651       91.608       60.755    12243.564     8391.968     3691.220        7.294        1.216      348.499       63.531        0.033      348.190       27.701      855.666
07/05/2013  20:45:00     -302.782      -70.538      -32.988      127.604      101.698       46.755    16282.691    10342.510     2186.008        6.327        1.441      310.890       53.084        0.029      348.177       27.679      855.672
07/05/2013  20:46:00     -357.772      -97.462      -11.139      148.534       97.931       58.478    22062.348     9590.494     3419.636        8.634        1.754      370.809       67.116        0.033      348.133       27.603      855.672
07/05/2013  20:47:00     -284.153     -131.973       -6.502      133.606      116.914       66.765    17850.532    13668.827     4457.537        6.708        1.799      313.305       59.568        0.036      348.123       27.586      855.676
07/05/2013  20:48:00     -261.585      -73.838       -3.450      102.312       93.087       52.155    10467.740     8665.263     2720.105        4.787        1.093      271.806       46.924        0.030      348.088       27.525      855.705
07/05/2013  20:49:00     -248.929      -94.488        7.555      119.374       90.098       49.233    14250.267     8117.672     2423.887        4.787        1.240      266.259       54.144        0.041      348.046       27.451      855.724
07/05/2013  20:50:00     -286.579     -107.923      -14.070      106.312       83.196       52.048    11302.148     6921.530     2708.988        5.745        1.047      306.227       55.461        0.033      348.059       27.475      855.725
07/05/2013  20:51:00     -281.061      -69.763      -24.884       83.955       81.431       46.936     7048.495     6630.931     2203.002        5.018        0.794      289.590       40.351        0.019      348.140       27.614      855.728
07/05/2013  20:52:00     -308.172      -67.974      -13.889      113.647       87.264       55.898    12915.610     7615.040     3124.562        6.171        1.183      315.579       55.974        0.031      348.103       27.551      855.730
07/05/2013  20:53:00     -288.240      -33.368      -14.781      135.338       71.551       50.021    18316.479     5119.586     2502.141        5.517        1.297      290.165       55.523        0.037      348.054       27.466      855.733
07/05/2013  20:54:00     -396.841      -56.992      -36.637      106.706      107.242       56.379    11386.123    11500.910     3178.584        9.406        1.303      400.912       49.537        0.015      348.075       27.502      855.719
07/05/2013  20:55:00     -224.787      -45.937       -7.667      133.664      116.131       58.185    17865.950    13486.420     3385.552        4.371        1.737      229.433       65.158        0.081      348.005       27.380      855.710
07/05/2013  20:56:00     -322.701      -77.711      -16.160       95.684      114.625       48.383     9155.435    13138.931     2340.900        6.753        1.232      331.926       42.135        0.016      347.963       27.311      855.729
07/05/2013  20:57:00     -325.097      -75.605      -16.858       93.174      103.818       52.724     8681.458    10778.082     2779.862        6.696        1.112      333.773       42.436        0.016      348.009       27.389      855.750
07/05/2013  20:58:00     -319.049      -70.754       -6.988      117.561      118.181       69.859    13820.677    13966.767     4880.331        6.975        1.633      326.801       68.677        0.044      347.965       27.314      855.748
07/05/2013  20:59:00     -333.174      -22.709      -20.198      116.734       99.490       59.076    13626.887     9898.216     3490.032        6.947        1.351      333.947       59.866        0.032      347.958       27.301      855.753
07/05/2013  21:00:00     -383.408      -70.446      -28.986       97.269      114.686       59.620     9461.252    13152.841     3554.501        8.948        1.308      389.826       45.360        0.014      347.959       27.303      855.751
07/05/2013  21:01:00     -365.926      -57.086      -22.771      105.434       94.012       62.763    11116.262     8838.184     3939.148        8.078        1.195      370.352       56.818        0.024      347.943       27.274      855.751
07/05/2013  21:02:00     -291.619      -72.646      -19.626      124.678      137.374       54.004    15544.624    18871.598     2916.421        6.401        1.867      300.531       57.599        0.037      347.890       27.183      855.753
07/05/2013  21:03:00     -368.952      -71.581      -18.454      114.076      104.807       54.824    13013.336    10984.519     3005.637        8.429        1.350      375.832       55.280        0.022      347.893       27.188      855.774
07/05/2013  21:04:00     -398.287     -115.566      -20.116      125.305      105.751       58.587    15701.362    11183.182     3432.473       10.135        1.516      414.715       59.669        0.021      347.863       27.135      855.798
07/05/2013  21:05:00     -400.318      -44.332      -26.729      137.646      125.534       75.813    18946.316    15758.836     5747.622       10.169        2.023      402.765       76.439        0.036      347.850       27.114      855.820
07/05/2013  21:06:00     -359.727      -59.703       -9.074      146.367      103.726       54.339    21423.318    10759.132     2952.780        8.409        1.757      364.648       51.271        0.020      347.832       27.082      855.811
07/05/2013  21:07:00     -288.531     -127.229        1.258      116.341       98.869       62.767    13535.157     9775.166     3939.730        6.334        1.363      315.337       65.531        0.043      347.799       27.026      855.814
07/05/2013  21:08:00     -366.173     -116.261      -27.009      172.136      120.011       61.958    29630.848    14402.635     3838.754        9.809        2.394      384.186       60.867        0.025      347.806       27.039      855.846
07/05/2013  21:09:00     -346.611      -23.481      -17.136      116.232      110.521       60.136    13509.937    12214.792     3616.310        7.516        1.467      347.405       59.182        0.029      347.812       27.048      855.862
07/05/2013  21:10:00     -330.820      -80.938       -8.912      110.161      128.606       60.173    12135.455    16539.478     3620.791        7.418        1.615      340.577       49.018        0.021      347.829       27.078      855.856
07/05/2013  21:11:00     -468.320      -92.026      -34.298      184.061      140.252       67.886    33878.616    19670.683     4608.561       14.355        2.908      477.276       83.253        0.030      347.854       27.120      855.827
07/05/2013  21:12:00     -256.086      -64.175      -16.117      127.075       98.547       58.598    16147.961     9711.451     3433.696        4.962        1.465      264.005       64.012        0.059      347.762       26.965      855.799
07/05/2013  21:13:00     -385.488      -70.150      -20.312      136.346      115.335       68.977    18590.196    13302.248     4757.849        9.529        1.833      391.819       72.028        0.034      347.752       26.945      855.812
07/05/2013  21:14:00     -306.784      -24.977      -15.821      132.474      119.752       68.060    17549.462    14340.608     4632.207        6.575        1.826      307.799       73.327        0.057      347.759       26.959      855.831
07/05/2013  21:15:00     -341.654      -40.138      -17.560      168.857       92.179       68.922    28512.842     8497.029     4750.193        8.020        2.088      344.004       85.951        0.062      347.741       26.928      855.861
07/05/2013  21:16:00     -274.051      -54.478       -5.638      114.712      101.672       52.373    13158.950    10337.259     2742.929        5.217        1.312      279.413       54.774        0.038      347.707       26.868      855.885
07/05/2013  21:17:00     -324.292       19.646      -10.870       97.377       93.631       60.377     9482.346     8766.744     3645.416        6.378        1.095      324.887       53.134        0.027      347.720       26.890      855.911
07/05/2013  21:18:00     -291.718       -1.730      -20.037       91.631       91.477       49.485     8396.188     8368.059     2448.771        5.235        0.961      291.723       41.338        0.020      347.708       26.868      855.926
07/05/2013  21:19:00     -223.133      -45.551       -5.365      120.233       96.071       48.955    14455.959     9229.713     2396.575        3.898        1.304      227.735       33.839        0.022      347.661       26.790      855.941
07/05/2013  21:20:00     -267.630      -43.627       -7.099      139.453      118.583       62.155    19447.002    14061.906     3863.231        5.547        1.869      271.162       67.685        0.062      347.664       26.794      855.956
07/05/2013  21:21:00     -269.622      -59.269      -12.391      117.518      102.725       56.325    13810.590    10552.340     3172.548        5.194        1.377      276.059       53.684        0.038      347.677       26.817      855.960
07/05/2013  21:22:00     -383.590      -92.528      -33.990      175.975      108.703       68.152    30967.169    11816.390     4644.631       10.213        2.371      394.592       74.791        0.036      347.686       26.830      855.987
07/05/2013  21:23:00     -376.787      -95.790      -10.038      128.655      106.475       68.720    16552.161    11336.829     4722.376        9.192        1.631      388.772       72.030        0.034      347.663       26.792      856.006
07/05/2013  21:24:00     -269.449      -35.586        1.012      136.769      106.893       57.419    18705.745    11426.172     3296.896        5.364        1.671      271.789       60.271        0.049      347.629       26.731      856.032
07/05/2013  21:25:00     -316.588      -49.274      -12.597      118.295      104.855       58.659    13993.609    10994.584     3440.908        6.562        1.421      320.400       56.896        0.032      347.604       26.691      856.053
07/05/2013  21:26:00     -358.936      -45.536      -19.858      127.635      106.981       59.138    16290.573    11444.884     3497.329        8.126        1.562      361.813       62.249        0.030      347.619       26.716      856.062
07/05/2013  21:27:00     -387.400      -75.110      -23.915      163.099      120.766       63.752    26601.137    14584.535     4064.263       10.076        2.262      394.614       70.140        0.032      347.641       26.752      856.051
07/05/2013  21:28:00     -247.078      -35.490       -6.070      139.068      104.830       62.173    19339.838    10989.385     3865.479        4.826        1.710      249.614       68.817        0.076      347.586       26.660      856.043
07/05/2013  21:29:00     -393.773      -45.599      -19.873      185.252      142.340       69.717    34318.443    20260.659     4860.475       10.847        2.972      396.404       76.484        0.037      347.633       26.741      856.047
07/05/2013  21:30:00     -322.846      -62.380       -2.079      177.417      131.392       68.463    31476.718    17263.963     4687.202        8.077        2.671      328.817       81.391        0.061      347.626       26.728      856.069
07/05/2013  21:31:00     -387.216      -84.397      -21.870      147.731      126.983       77.423    21824.355    16124.722     5994.321       10.073        2.197      396.307       59.825        0.023      347.631       26.737      856.112
07/05/2013  21:32:00     -331.849      -45.246      -14.723      141.036      101.073       62.736    19891.106    10215.674     3935.815        7.321        1.702      334.919       68.126        0.041      347.594       26.673      856.127
07/05/2013  21:33:00     -323.889      -17.638      -15.540      111.954       90.817       64.489    12533.753     8247.653     4158.836        6.519        1.247      324.369       58.037        0.032      347.577       26.644      856.151
07/05/2013  21:34:00     -306.997       -9.448      -24.838      143.627       88.544       57.206    20628.743     7840.022     3272.487        6.334        1.587      307.142       69.362        0.051      347.586       26.662      856.161
07/05/2013  21:35:00     -285.921     -110.652       -8.016      124.152      107.183       65.401    15413.637    11488.171     4277.312        6.261        1.559      306.586       67.802        0.049      347.561       26.614      856.160
07/05/2013  21:36:00     -259.225      -17.540      -13.202      182.828       86.009       60.519    33425.956     7397.551     3662.494        5.607        2.224      259.818       84.238        0.105      347.510       26.529      856.162
07/05/2013  21:37:00     -476.226        1.368      -38.428      135.007      109.854       66.778    18226.968    12067.903     4459.347       13.150        1.738      476.228       63.696        0.018      347.524       26.554      856.159
07/05/2013  21:38:00     -296.514      -32.962      -22.251      122.474      105.467       55.424    14999.932    11123.277     3071.772        5.934        1.460      298.341       62.138        0.043      347.470       26.460      856.149
07/05/2013  21:39:00     -365.922      -81.423      -11.041      153.725      112.199       63.447    23631.524    12588.611     4025.470        9.044        2.012      374.872       75.042        0.040      347.477       26.472      856.173
07/05/2013  21:40:00     -276.002      -52.431      -17.579      154.770       82.369       60.255    23953.879     6784.626     3630.625        5.680        1.718      280.938       57.429        0.042      347.495       26.502      856.193
07/05/2013  21:41:00     -326.395      -48.329       -9.760      155.423      104.003       67.812    24156.348    10816.669     4598.484        7.426        1.979      329.953       75.173        0.052      347.517       26.540      856.219
07/05/2013  21:42:00     -177.110      -43.255       15.152      117.701       88.577       53.863    13853.552     7845.799     2901.231        2.903        1.230      182.315       63.490        0.121      347.446       26.418      856.238
07/05/2013  21:43:00     -284.331      -10.528      -21.801      132.890      101.155       61.286    17659.721    10232.352     3755.974        5.653        1.582      284.526       64.680        0.052      347.452       26.428      856.247
07/05/2013  21:44:00     -298.192      -60.128      -25.617      126.372      108.587       48.750    15969.942    11791.224     2376.516        6.166        1.507      304.194       66.184        0.047      347.463       26.446      856.258
07/05/2013  21:45:00     -256.871       -3.495      -11.914      130.279      109.246       54.424    16972.629    11934.660     2961.978        4.900        1.593      256.895       53.202        0.043      347.440       26.408      856.248
07/05/2013  21:46:00     -383.086      -40.120      -17.326      158.869      107.186       70.439    25239.464    11488.742     4961.690        9.517        2.084      385.181       74.882        0.038      347.442       26.410      856.254
07/05/2013  21:47:00     -252.586     -104.044        6.742      163.021      117.043       71.666    26575.814    13698.975     5136.085        6.003        2.271      273.175       91.516        0.112      347.385       26.313      856.254
07/05/2013  21:48:00     -383.147      -92.866      -17.287      147.256      120.928       64.640    21684.349    14623.507     4178.276        9.810        2.024      394.241       71.135        0.033      347.429       26.388      856.280
07/05/2013  21:49:00     -427.340      -47.315      -23.960      140.904      112.238       72.509    19854.007    12597.444     5257.549       11.156        1.885      429.951       84.734        0.039      347.434       26.395      856.282
07/05/2013  21:50:00     -272.828      -45.745       -4.442      115.068       89.756       59.711    13240.556     8056.099     3565.394        5.070        1.243      276.637       56.058        0.041      347.365       26.279      856.288
07/05/2013  21:51:00     -353.391      -59.171       -8.531      186.581      135.856       79.680    34812.563    18456.799     6348.953        9.403        2.981      358.311       91.384        0.065      347.376       26.296      856.294
07/05/2013  21:52:00     -374.866      -80.745      -13.412      117.621      127.994       59.707    13834.704    16382.465     3564.893        9.050        1.689      383.463       51.709        0.018      347.395       26.328      856.315
07/05/2013  21:53:00     -299.507      -10.881       -3.456      143.437      125.911       69.059    20574.062    15853.579     4769.203        6.551        2.060      299.704       74.195        0.061      347.345       26.244      856.332
07/05/2013  21:54:00     -250.501      -78.256       -1.955      194.598      111.885       68.948    37868.204    12518.172     4753.830        6.200        2.757      262.440       84.535        0.104      347.345       26.243      856.338
07/05/2013  21:55:00     -313.259      -39.236       -9.495      118.423      108.250       58.997    14023.909    11718.063     3480.645        6.449        1.461      315.707       56.094        0.032      347.323       26.205      856.371
07/05/2013  21:56:00     -239.620      -91.072       -3.027      153.056      123.312       64.323    23426.079    15205.949     4137.435        5.424        2.138      256.343       75.767        0.087      347.310       26.184      856.366
07/05/2013  21:57:00     -368.685      -25.780      -24.323      130.077      109.042       52.365    16920.044    11890.199     2742.119        8.436        1.578      369.585       52.842        0.020      347.348       26.249      856.348
07/05/2013  21:58:00     -369.458       -6.542      -20.195      124.075       98.301       47.262    15394.578     9663.021     2233.680        8.212        1.365      369.516       50.755        0.019      347.347       26.247      856.328
07/05/2013  21:59:00     -378.617      -78.539      -37.195      117.215       80.208       59.406    13739.380     6433.254     3529.105        8.730        1.185      386.677       62.588        0.026      347.329       26.216      856.357
07/05/2013  22:00:00     -215.829      -91.304        5.788      125.635       82.025       52.634    15784.264     6728.164     2770.288        4.011        1.264      234.347       46.906        0.040      347.284       26.137      856.387
07/05/2013  22:01:00     -322.366      -64.563       -9.067      135.040      103.565       67.458    18235.769    10725.615     4550.648        7.083        1.676      328.768       73.229        0.050      347.287       26.143      856.405
07/05/2013  22:02:00     -331.492      -38.770       -8.912       99.078       87.573       65.344     9816.369     7668.984     4269.828        6.661        1.088      333.751       59.931        0.032      347.271       26.115      856.452
07/05/2013  22:03:00     -310.303      -52.373       -8.840      116.005       87.316       56.119    13457.103     7624.124     3149.372        6.167        1.212      314.692       60.868        0.037      347.282       26.135      856.458
07/05/2013  22:04:00     -274.353      -68.787      -10.616      142.441       90.035       60.122    20289.486     8106.266     3614.611        5.606        1.601      282.845       66.035        0.055      347.242       26.066      856.469
07/05/2013  22:05:00     -257.841      -23.590       -5.644      119.678       99.531       56.222    14322.869     9906.490     3160.879        4.722        1.370      258.918       61.470        0.056      347.238       26.059      856.473
07/05/2013  22:06:00     -264.582      -65.276       -8.538       96.210       69.933       48.358     9256.290     4890.636     2338.487        4.541        0.824      272.516       50.749        0.035      347.210       26.010      856.478
07/05/2013  22:07:00     -266.523      -42.910       -8.791      114.922       78.968       60.527    13206.999     6235.888     3663.553        4.803        1.155      269.955       63.990        0.056      347.186       25.970      856.488
07/05/2013  22:08:00     -245.660     -125.552       -5.843      119.632       96.304       58.419    14311.777     9274.425     3412.765        5.157        1.350      275.884       60.550        0.048      347.167       25.936      856.502
07/05/2013  22:09:00     -241.239     -107.814       -3.882      102.136       87.097       52.107    10431.665     7585.880     2715.092        4.528        1.037      264.235       46.365        0.031      347.178       25.954      856.508
07/05/2013  22:10:00     -225.593     -102.776      -17.026      126.058       96.531       60.851    15890.584     9318.151     3702.831        4.532        1.446      247.902       69.466        0.079      347.168       25.938      856.495
07/05/2013  22:11:00     -264.482      -32.874       16.307      162.899      108.035       73.314    26536.021    11671.511     5374.980        5.743        2.179      266.517       85.336        0.103      347.149       25.906      856.498
07/05/2013  22:12:00     -391.724     -148.136      -21.281      152.580      127.441       68.210    23280.702    16241.328     4652.575       11.000        2.209      418.798       69.834        0.028      347.212       26.014      856.508
07/05/2013  22:13:00     -329.803      -52.986       -7.283      144.523      111.578       73.418    20886.839    12449.719     5390.175        7.517        1.936      334.033       78.216        0.055      347.185       25.968      856.525
07/05/2013  22:14:00     -337.825     -117.196       -2.631      166.524      120.315       63.438    27730.166    14475.704     4024.368        8.704        2.312      357.576       70.704        0.039      347.155       25.915      856.567
07/05/2013  22:15:00     -391.290      -37.398      -25.509      125.079      106.283       69.116    15644.785    11296.108     4776.977        9.343        1.586      393.073       64.796        0.027      347.181       25.960      856.585
07/05/2013  22:16:00     -273.598      -94.576       -9.082      153.149       94.288       53.425    23454.702     8890.160     2854.203        5.953        1.760      289.483       60.226        0.043      347.192       25.980      856.589
07/05/2013  22:17:00     -192.617      -23.659        0.000      115.265       82.512       41.273    13286.112     6808.285     1703.497        2.973        1.090      194.064       37.774        0.038      347.113       25.844      856.604
07/05/2013  22:18:00     -182.692      -35.595        4.334       99.208       66.022       36.342     9842.262     4358.934     1320.755        2.509        0.776      186.127       44.141        0.056      347.067       25.766      856.608
07/05/2013  22:19:00     -196.693      -42.812       -1.608      102.780       85.505       39.966    10563.778     7311.097     1597.292        2.999        0.974      201.298       41.161        0.042      347.065       25.762      856.612
07/05/2013  22:20:00     -255.652      -36.667       -0.185      119.945       66.669       48.714    14386.778     4444.807     2373.032        4.395        1.060      258.268       48.190        0.035      347.048       25.732      856.594
07/05/2013  22:21:00     -423.966     -117.770      -25.185       87.647       78.114       49.426     7681.955     6101.845     2442.894       10.524        0.811      440.019       44.863        0.010      347.100       25.820      856.601
07/05/2013  22:22:00     -136.391      -49.895        5.399      122.969       89.809       52.606    15121.405     8065.708     2767.431        2.353        1.298      145.230       62.192        0.183      347.019       25.682      856.593
07/05/2013  22:23:00     -301.135      -54.823       -5.416      213.800       89.436       70.764    45710.431     7998.875     5007.495        7.621        2.936      306.085       83.594        0.075      347.049       25.733      856.601
07/05/2013  22:24:00     -382.805      -35.993      -23.379       84.447      122.126       55.536     7131.373    14914.671     3084.211        8.675        1.257      384.494       45.859        0.014      347.111       25.840      856.598
07/05/2013  22:25:00     -293.411        4.144      -27.385      101.999       98.911       56.564    10403.853     9783.335     3199.506        5.512        1.169      293.441       51.804        0.031      347.071       25.770      856.593
07/05/2013  22:26:00     -124.072      -64.796        2.026      100.101       79.681       45.898    10020.231     6349.101     2106.658        1.903        0.924      139.972       39.619        0.080      346.973       25.605      856.618
07/05/2013  22:27:00     -191.792      -86.675       -9.932      124.622       64.224       46.910    15530.732     4124.768     2200.576        3.312        1.093      210.468       58.251        0.077      347.025       25.693      856.608
07/05/2013  22:28:00     -187.181       -9.862       -4.554       85.802       78.115       43.759     7361.949     6101.971     1914.866        2.526        0.769      187.441       41.840        0.050      346.993       25.638      856.601
07/05/2013  22:29:00     -270.578      -77.205        6.837      144.157       98.365       62.523    20781.221     9675.585     3909.187        5.679        1.718      281.377       71.430        0.064      347.000       25.649      856.601
07/05/2013  22:30:00     -362.737      -14.102      -17.718      109.314       84.122       61.441    11949.460     7076.521     3775.041        7.744        1.140      363.011       57.508        0.025      347.037       25.712      856.595
07/05/2013  22:31:00     -294.608      -59.146       -8.936      116.526       82.530       56.333    13578.289     6811.175     3173.447        5.696        1.178      300.487       53.342        0.032      346.996       25.643      856.590
07/05/2013  22:32:00     -423.131      -96.755      -14.369       98.830       79.575       61.212     9767.459     6332.224     3746.884       10.422        0.992      434.052       53.701        0.015      346.975       25.605      856.575
07/05/2013  22:33:00     -350.996     -127.226      -22.626      113.590       89.154       51.964    12902.758     7948.365     2700.307        8.172        1.178      373.342       46.062        0.015      347.040       25.718      856.552
07/05/2013  22:34:00     -290.293      -93.480       -7.341      106.739      105.765       64.356    11393.154    11186.199     4141.738        5.989        1.336      304.974       65.869        0.047      346.988       25.629      856.557
07/05/2013  22:35:00     -301.104      -62.138       -6.379      127.944       95.141       56.499    16369.623     9051.729     3192.186        6.158        1.431      307.449       56.961        0.034      346.959       25.578      856.577
07/05/2013  22:36:00     -361.325     -119.307       -4.914      121.725      105.122       63.813    14816.988    11050.613     4072.065        8.737        1.497      380.513       63.345        0.028      346.938       25.543      856.586
07/05/2013  22:37:00     -221.254      -69.149        2.440      118.102       88.448       59.460    13948.117     7823.137     3535.448        3.952        1.265      231.807       54.256        0.055      346.869       25.424      856.597
07/05/2013  22:38:00     -305.154      -54.026       -1.245      131.288      116.520       57.894    17236.526    13576.804     3351.757        6.510        1.708      309.899       54.029        0.030      346.888       25.456      856.587
07/05/2013  22:39:00     -291.138      -50.769      -12.648      166.904      103.404       58.840    27856.796    10692.362     3462.192        6.475        2.101      295.531       66.993        0.051      346.909       25.493      856.571
07/05/2013  22:40:00     -258.367     -104.364      -12.484      138.818       90.631       47.441    19270.389     8213.915     2250.696        5.376        1.487      278.649       47.746        0.029      346.987       25.627      856.556
07/05/2013  22:41:00     -327.313        5.608      -36.631      102.757       86.292       47.853    10558.949     7446.276     2289.886        6.440        1.015      327.361       29.905        0.008      346.954       25.568      856.553
07/05/2013  22:42:00     -227.100      -65.888      -16.573       69.938       85.389       50.904     4891.376     7291.328     2591.246        3.548        0.739      236.464       40.988        0.030      346.918       25.506      856.553
07/05/2013  22:43:00     -293.893      -56.013      -10.659      135.720       91.978       57.901    18420.037     8459.916     3352.496        5.992        1.512      299.183       65.189        0.047      346.881       25.442      856.551
07/05/2013  22:44:00     -244.535      -64.805      -21.559      120.726      109.498       55.325    14574.858    11989.850     3060.907        4.704        1.481      252.976       54.393        0.046      346.864       25.413      856.554
07/05/2013  22:45:00     -281.680       -6.654      -12.151      166.203       64.984       59.034    27623.579     4222.879     3485.003        5.743        1.767      281.759       76.129        0.073      346.865       25.417      856.564
07/05/2013  22:46:00     -319.407      -67.957       -8.206      116.198       97.746       57.419    13501.884     9554.368     3296.887        6.652        1.318      326.557       52.805        0.026      346.905       25.486      856.553
07/05/2013  22:47:00     -278.756      -55.049      -15.297      128.240      104.347       61.671    16445.474    10888.288     3803.335        5.605        1.557      284.139       57.348        0.041      346.863       25.412      856.553
07/05/2013  22:48:00     -243.696      -61.446        0.242      123.461       92.476       58.219    15242.612     8551.823     3389.420        4.517        1.359      251.324       67.659        0.072      346.846       25.386      856.564
07/05/2013  22:49:00     -222.389      -59.844      -19.326      100.687       83.128       42.398    10137.903     6910.323     1797.583        3.613        0.942      230.300       23.442        0.010      346.884       25.450      856.561
07/05/2013  22:50:00     -268.034      -39.084       -4.306      139.248      101.988       51.214    19390.106    10401.605     2622.919        5.290        1.621      270.869       54.399        0.040      346.903       25.483      856.574
07/05/2013  22:51:00     -234.514      -43.010      -17.817       98.172       82.062       49.104     9637.817     6734.104     2411.178        3.797        0.939      238.425       54.105        0.051      346.882       25.447      856.582
07/05/2013  22:52:00     -141.259      -77.365        5.025      139.715       80.128       63.851    19520.329     6420.480     4076.941        2.799        1.501      161.057       65.713        0.166      346.846       25.385      856.560
07/05/2013  22:53:00     -258.642      -35.499      -10.901       94.823       79.319       44.017     8991.418     6291.433     1937.514        4.274        0.861      261.067       45.531        0.030      346.874       25.432      856.573
07/05/2013  22:54:00     -232.537      -75.397        6.888      137.191       97.697       66.227    18821.446     9544.643     4385.951        4.627        1.638      244.455       65.657        0.072      346.915       25.503      856.588
07/05/2013  22:55:00     -231.650      -77.876       -5.482      158.751      104.728       65.176    25201.870    10967.863     4247.926        5.008        2.021      244.390       81.998        0.113      346.908       25.492      856.593
07/05/2013  22:56:00     -201.954      -68.964        5.617      160.935       90.737       52.729    25900.175     8233.169     2780.377        4.124        1.846      213.404       76.174        0.127      346.908       25.491      856.617
07/05/2013  22:57:00      -94.659       22.153       29.764       94.571       72.930       48.045     8943.700     5318.835     2308.336        1.345        0.829       97.217       39.039        0.161      346.828       25.355      856.622
07/05/2013  22:58:00      -88.425      -69.348       -0.284       80.064       67.750       39.130     6410.312     4590.080     1531.127        1.258        0.627      112.376       42.573        0.144      346.876       25.439      856.636
07/05/2013  22:59:00     -145.635     -168.636       10.404      101.365       78.076       49.922    10274.931     6095.786     2492.231        3.431        0.943      222.818       49.889        0.050      346.850       25.391      856.653
07/05/2013  23:00:00      -95.193     -193.948      -12.303       59.135       79.150       39.911     3497.007     6264.681     1592.904        2.909        0.568      216.050       32.565        0.023      346.654       25.054      856.652
07/05/2013  23:01:00     -110.326      -80.496       -8.660       61.659       46.440       29.831     3801.803     2156.684      889.897        1.279        0.342      136.570       19.974        0.021      346.601       24.965      856.647
07/05/2013  23:02:00      -32.591     -146.125       11.425       57.251       74.668       34.678     3277.682     5575.245     1202.579        1.630        0.503      149.716       41.464        0.077      346.597       24.958      856.646
07/05/2013  23:03:00      -38.695      -88.638        5.019       49.191       58.022       24.534     2419.747     3366.592      601.895        0.788        0.319       96.716       26.435        0.075      346.606       24.976      856.654
07/05/2013  23:04:00      -88.673     -172.334       -2.555       72.716       65.991       40.818     5287.659     4354.759     1666.108        2.444        0.565      193.809       25.490        0.017      346.497       24.784      856.667
07/05/2013  23:05:00      -63.640     -149.025       15.045       99.482       84.960       48.922     9896.582     7218.258     2393.379        2.299        0.975      162.045       43.949        0.074      346.459       24.718      856.659
07/05/2013  23:06:00     -102.234     -123.643      -19.634       60.675      100.084       29.120     3681.475    10016.829      847.979        2.033        0.727      160.435       30.373        0.036      346.462       24.724      856.648
07/05/2013  23:07:00      -79.962      -66.366        6.714       94.562       66.444       31.821     8942.062     4414.748     1012.579        1.260        0.718      103.915       29.898        0.083      346.482       24.761      856.656
07/05/2013  23:08:00      -37.000     -140.535       -1.282       50.072       67.808       32.070     2507.220     4597.907     1028.490        1.463        0.407      145.324       30.466        0.044      346.545       24.869      856.650
07/05/2013  23:09:00      -39.612     -159.233       -2.861       37.821       73.849       35.029     1430.432     5453.701     1227.002        1.752        0.406      164.086       19.791        0.015      346.526       24.836      856.658
07/05/2013  23:10:00      -32.164      -73.157       -1.206       26.380       45.648       21.216      695.919     2083.726      450.121        0.481        0.161       79.915        6.809        0.007      346.519       24.826      856.658
07/05/2013  23:11:00      -58.850      -83.364        8.033       63.758       57.992       26.568     4065.024     3363.014      705.876        0.930        0.407      102.044       14.844        0.021      346.416       24.648      856.665
07/05/2013  23:12:00      -57.607      -67.852        1.288       49.670       38.561       28.134     2467.096     1486.933      791.513        0.633        0.237       89.008       25.504        0.082      346.453       24.712      856.672
07/05/2013  23:13:00      -83.990     -104.468       -3.162       46.432       65.375       22.086     2155.891     4273.938      487.793        1.245        0.346      134.044       19.121        0.020      346.527       24.840      856.672
07/05/2013  23:14:00      -53.229      -72.839       -0.683       39.550       50.531       19.973     1564.175     2553.409      398.923        0.633        0.226       90.216       18.447        0.042      346.482       24.760      856.665
07/05/2013  23:15:00      -81.728      -44.663        2.169       46.318       33.257       22.586     2145.340     1106.022      510.135        0.622        0.188       93.136       22.673        0.059      346.492       24.778      856.659
07/05/2013  23:16:00      -57.224      -17.702        1.108       50.653       38.802       23.436     2565.709     1505.593      549.242        0.410        0.231       59.899       25.041        0.175      346.387       24.598      856.660
07/05/2013  23:17:00     -170.580      -31.369      -12.575       73.160       78.080       30.737     5352.433     6096.524      944.781        2.131        0.620      173.440       25.613        0.022      346.620       24.995      856.645
07/05/2013  23:18:00     -103.265      -37.989       10.333      111.839       63.323       44.357    12507.883     4009.841     1967.573        1.535        0.924      110.031       39.881        0.131      346.543       24.864      856.630
07/05/2013  23:19:00     -195.718      -78.004       -7.954       62.290       47.561       26.673     3880.066     2262.073      711.463        2.565        0.343      210.690       24.075        0.013      346.626       25.006      856.645
07/05/2013  23:20:00     -159.121     -107.980       -2.504       61.729       75.936       35.815     3810.430     5766.222     1282.725        2.392        0.543      192.299       28.205        0.022      346.590       24.943      856.656
07/05/2013  23:21:00      -73.526      -72.778        3.847       73.014       62.783       30.739     5330.980     3941.720      944.868        1.047        0.511      103.454       28.382        0.075      346.625       25.007      856.684
07/05/2013  23:22:00     -178.866      -76.994       -3.689      109.075       54.393       36.519    11897.324     2958.642     1333.655        2.706        0.809      194.733       36.051        0.034      346.651       25.049      856.720
07/05/2013  23:23:00     -117.113      -63.550       17.780      112.343       61.229       45.200    12621.008     3748.981     2043.016        1.824        0.921      133.245       58.422        0.192      346.541       24.860      856.740
07/05/2013  23:24:00      -72.951      -70.069        5.993       63.908       47.392       33.888     4084.254     2245.974     1148.414        0.887        0.374      101.151       25.743        0.065      346.731       25.190      856.738
07/05/2013  23:25:00      -87.700      -90.090        0.706       79.430       41.218       28.051     6309.077     1698.924      786.835        1.230        0.440      125.728       23.411        0.035      346.757       25.233      856.759
07/05/2013  23:26:00      -20.879     -131.296        8.956       64.080       60.378       40.993     4106.280     3645.519     1680.390        1.359        0.472      132.946       29.128        0.048      346.708       25.149      856.733
07/05/2013  23:27:00     -130.903     -131.103       -5.605       73.045       65.020       37.635     5335.606     4227.664     1416.356        2.267        0.549      185.267       32.024        0.030      346.717       25.164      856.735
07/05/2013  23:28:00      -45.267     -162.409       -3.914       53.597       47.441       34.676     2872.675     2250.637     1202.445        1.738        0.316      168.599       24.941        0.022      346.602       24.967      856.761
07/05/2013  23:29:00       23.644     -148.301        1.592       68.469       52.552       38.449     4688.049     2761.691     1478.359        1.574        0.446      150.174       30.651        0.042      346.220       24.310      856.776
07/05/2013  23:30:00       14.789     -127.504        0.900       53.448       47.121       37.058     2856.695     2220.349     1373.314        1.146        0.323      128.358       23.798        0.034      346.145       24.181      856.786
07/05/2013  23:31:00       16.401      -30.160       14.583       46.806       43.483       30.083     2190.832     1890.742      904.985        0.319        0.249       34.331       22.487        0.429      345.999       23.932      856.784
07/05/2013  23:32:00      -58.862       -2.589        7.222       27.353       23.986       19.742      748.184      575.316      389.747        0.262        0.086       58.919        9.980        0.029      346.087       24.084      856.806
07/05/2013  23:33:00      -54.930        5.892        2.468       33.862       27.979       32.272     1146.659      782.852     1041.451        0.301        0.149       55.245       26.968        0.238      346.066       24.047      856.806
07/05/2013  23:34:00       -5.325      -44.353        3.692       35.690       31.827       31.028     1273.766     1012.984      962.749        0.263        0.162       44.671       12.793        0.082      346.113       24.128      856.807
07/05/2013  23:35:00     -112.388     -103.997       -3.605       97.448       55.780       33.138     9496.025     3111.403     1098.154        1.858        0.685      153.122       25.560        0.028      346.180       24.240      856.789
07/05/2013  23:36:00     -191.510     -176.277        1.337      101.611       93.800       43.959    10324.894     8798.530     1932.427        4.440        1.053      260.288       48.809        0.035      346.165       24.212      856.787
07/05/2013  23:37:00     -206.804     -105.859      -10.665       68.357       67.146       34.028     4672.623     4508.582     1157.896        3.221        0.517      232.323       26.483        0.013      346.525       24.831      856.742
07/05/2013  23:38:00     -175.756      -81.902        3.436       96.840       54.300       43.460     9378.047     2948.468     1888.797        2.591        0.711      193.902       46.622        0.058      346.476       24.749      856.723
07/05/2013  23:39:00     -182.302      -80.735        4.086       89.928       84.245       43.599     8087.029     7097.155     1900.900        2.842        0.854      199.380       47.269        0.056      346.445       24.695      856.723
07/05/2013  23:40:00     -242.302     -120.555       -5.870      115.331       87.589       47.425    13301.239     7671.833     2249.144        4.825        1.161      270.636       48.949        0.033      346.451       24.704      856.742
07/05/2013  23:41:00     -246.887     -157.960       -2.922      118.917      100.894       64.521    14141.137    10179.692     4162.922        5.719        1.424      293.095       67.625        0.053      346.571       24.911      856.757
07/05/2013  23:42:00     -145.768     -108.844        7.016       98.867       75.866       48.416     9774.634     5755.713     2344.098        2.551        0.894      181.921       52.010        0.082      346.492       24.775      856.779
07/05/2013  23:43:00     -193.196     -116.107        8.192      102.565       72.891       50.182    10519.478     5313.125     2518.191        3.461        0.918      225.401       40.689        0.033      346.148       24.185      856.786
07/05/2013  23:44:00     -166.996     -139.508       -4.260       70.339       80.256       40.018     4947.606     6441.064     1601.424        3.018        0.650      217.601       35.806        0.027      346.134       24.160      856.778
07/05/2013  23:45:00     -302.790     -140.022       -8.394       87.980       80.609       46.412     7740.466     6497.846     2154.033        6.387        0.820      333.598       39.574        0.014      346.397       24.611      856.762
07/05/2013  23:46:00     -221.416      -73.436      -12.459       92.540       66.943       40.063     8563.707     4481.393     1605.072        3.461        0.733      233.276       32.081        0.019      346.368       24.562      856.767
07/05/2013  23:47:00     -243.402     -104.100       -8.614      114.945       80.423       47.481    13212.449     6467.892     2254.456        4.604        1.097      264.729       49.017        0.034      346.387       24.596      856.779
07/05/2013  23:48:00     -221.612     -179.289        0.418      109.054       93.409       61.902    11892.815     8725.238     3831.819        5.285        1.222      285.056       59.456        0.044      346.150       24.185      856.791
07/05/2013  23:49:00     -183.356     -128.910        5.703       73.962       80.663       47.070     5470.336     6506.533     2215.587        3.223        0.710      224.137       34.843        0.024      346.027       23.976      856.785
07/05/2013  23:50:00     -135.811      -97.301        9.022       88.393       55.324       39.833     7813.329     3060.760     1586.677        2.022        0.623      167.069       40.673        0.059      346.090       24.086      856.775
07/05/2013  23:51:00      -81.878     -144.818       19.313       76.653       83.200       50.261     5875.684     6922.223     2526.128        2.168        0.766      166.362       40.928        0.061      345.992       23.917      856.782
07/05/2013  23:52:00     -122.745     -168.211       12.413      116.544       79.653       54.134    13582.568     6344.608     2930.503        3.318        1.143      208.234       56.406        0.073      345.862       23.693      856.793
07/05/2013  23:53:00     -129.036     -126.653       -5.742       99.235       71.296       41.427     9847.664     5083.067     1716.192        2.468        0.832      180.808       40.784        0.051      345.778       23.550      856.805
07/05/2013  23:54:00     -140.941     -126.261        1.123      118.850       81.247       54.309    14125.380     6601.059     2949.482        2.974        1.184      189.225       53.037        0.079      345.722       23.453      856.815
07/05/2013  23:55:00     -161.396      -85.210        3.390      104.726       74.429       49.141    10967.441     5539.713     2414.876        2.612        0.946      182.509       55.736        0.093      345.665       23.356      856.821
07/05/2013  23:56:00     -110.645      -66.956        1.841       75.357       49.726       33.215     5678.611     2472.655     1103.224        1.299        0.463      129.326       29.300        0.051      345.670       23.366      856.838
07/05/2013  23:57:00     -149.171      -97.409       -3.813       87.356       77.578       42.494     7631.092     6018.412     1805.757        2.360        0.773      178.158       40.569        0.052      345.692       23.401      856.866
07/05/2013  23:58:00     -112.994      -79.047       -0.193       92.713       45.532       42.288     8595.759     2073.154     1788.307        1.573        0.623      137.899       45.323        0.108      345.717       23.445      856.862
07/05/2013  23:59:00      -38.200      -61.717       -1.678       48.378       45.081       27.588     2340.388     2032.282      761.105        0.520        0.257       72.582       15.138        0.043      345.814       23.613      856.861
